Wetterdaten: Samstag, 02.07.2016
Datum Zeit Temp. A. Feuchte A. Luftdruck Regen Wind Richtung Richtung Sonnenschein ET UV Solar Taupunkt Windchill Windben Empfang
02.07.2016 00:00 19,9 C 79 % 1014,0 hPa 0,0 l/m 0,9 km/h (0 Bft) O-NO 75 0 min 0,000 mm 0,0 UV-I 0 W/m 16,1 C 19,9 C 1,6 km/h (1 Bft) 97,87 %
02.07.2016 00:02 19,8 C 79 % 1013,9 hPa 0,0 l/m 1,6 km/h (1 Bft) O-NO 75 0 min 0,000 mm 0,0 UV-I 0 W/m 16,0 C 19,8 C 1,6 km/h (1 Bft) 97,37 %
02.07.2016 00:04 19,8 C 79 % 1014,0 hPa 0,0 l/m 2,8 km/h (1 Bft) O-NO 75 0 min 0,000 mm 0,0 UV-I 0 W/m 16,0 C 19,8 C 4,8 km/h (1 Bft) 97,87 %
02.07.2016 00:06 19,8 C 79 % 1014,0 hPa 0,0 l/m 3,4 km/h (1 Bft) O-NO 75 0 min 0,000 mm 0,0 UV-I 0 W/m 16,0 C 19,8 C 4,8 km/h (1 Bft) 97,87 %
02.07.2016 00:08 19,9 C 79 % 1014,0 hPa 0,0 l/m 3,0 km/h (1 Bft) O-NO 75 0 min 0,000 mm 0,0 UV-I 0 W/m 16,1 C 19,9 C 3,2 km/h (1 Bft) 95,74 %
02.07.2016 00:10 19,9 C 79 % 1014,0 hPa 0,0 l/m 3,0 km/h (1 Bft) O-NO 75 0 min 0,000 mm 0,0 UV-I 0 W/m 16,1 C 19,9 C 3,2 km/h (1 Bft) 95,74 %
02.07.2016 00:12 19,9 C 79 % 1013,9 hPa 0,0 l/m 3,0 km/h (1 Bft) O-NO 75 0 min 0,000 mm 0,0 UV-I 0 W/m 16,1 C 19,9 C 4,8 km/h (1 Bft) 95,74 %
02.07.2016 00:14 20,1 C 79 % 1013,9 hPa 0,0 l/m 3,4 km/h (1 Bft) O-NO 75 0 min 0,000 mm 0,0 UV-I 0 W/m 16,3 C 20,1 C 4,8 km/h (1 Bft) 95,74 %
02.07.2016 00:16 20,1 C 78 % 1013,8 hPa 0,0 l/m 3,7 km/h (1 Bft) O-NO 75 0 min 0,000 mm 0,0 UV-I 0 W/m 16,1 C 20,1 C 4,8 km/h (1 Bft) 98,00 %
02.07.2016 00:18 20,1 C 78 % 1013,9 hPa 0,0 l/m 2,8 km/h (1 Bft) O-NO 75 0 min 0,000 mm 0,0 UV-I 0 W/m 16,1 C 20,1 C 3,2 km/h (1 Bft) 95,74 %
02.07.2016 00:20 20,2 C 78 % 1013,8 hPa 0,0 l/m 2,5 km/h (1 Bft) O-NO 75 0 min 0,000 mm 0,0 UV-I 0 W/m 16,2 C 20,2 C 3,2 km/h (1 Bft) 100,00 %
02.07.2016 00:22 20,2 C 79 % 1013,8 hPa 0,0 l/m 2,1 km/h (1 Bft) O-NO 75 0 min 0,000 mm 0,0 UV-I 0 W/m 16,4 C 20,2 C 3,2 km/h (1 Bft) 100,00 %
02.07.2016 00:24 20,0 C 79 % 1013,8 hPa 0,0 l/m 2,5 km/h (1 Bft) O-NO 75 0 min 0,000 mm 0,0 UV-I 0 W/m 16,2 C 20,0 C 4,8 km/h (1 Bft) 95,74 %
02.07.2016 00:26 19,8 C 80 % 1013,8 hPa 0,0 l/m 2,8 km/h (1 Bft) O 91 0 min 0,000 mm 0,0 UV-I 0 W/m 16,2 C 19,8 C 4,8 km/h (1 Bft) 95,74 %
02.07.2016 00:28 19,5 C 81 % 1013,7 hPa 0,0 l/m 2,5 km/h (1 Bft) O 91 0 min 0,000 mm 0,0 UV-I 0 W/m 16,1 C 19,5 C 3,2 km/h (1 Bft) 100,00 %
02.07.2016 00:30 19,3 C 82 % 1013,7 hPa 0,0 l/m 2,2 km/h (1 Bft) O 91 0 min 0,000 mm 0,0 UV-I 0 W/m 16,1 C 19,3 C 3,2 km/h (1 Bft) 97,87 %
02.07.2016 00:32 19,1 C 83 % 1013,7 hPa 0,0 l/m 2,3 km/h (1 Bft) O 91 0 min 0,000 mm 0,0 UV-I 0 W/m 16,1 C 19,1 C 3,2 km/h (1 Bft) 100,00 %
02.07.2016 00:34 18,9 C 84 % 1013,7 hPa 0,0 l/m 1,5 km/h (1 Bft) O 91 0 min 0,000 mm 0,0 UV-I 0 W/m 16,1 C 18,9 C 3,2 km/h (1 Bft) 100,00 %
02.07.2016 00:36 18,9 C 84 % 1013,7 hPa 0,0 l/m 0,4 km/h (0 Bft) O 91 0 min 0,000 mm 0,0 UV-I 0 W/m 16,1 C 18,9 C 1,6 km/h (1 Bft) 97,87 %
02.07.2016 00:38 18,9 C 84 % 1013,8 hPa 0,0 l/m 0,0 km/h (0 Bft) O 91 0 min 0,000 mm 0,0 UV-I 0 W/m 16,1 C 18,9 C 0,0 km/h (0 Bft) 100,00 %
02.07.2016 00:40 18,9 C 84 % 1013,8 hPa 0,0 l/m 0,6 km/h (0 Bft) O 91 0 min 0,000 mm 0,0 UV-I 0 W/m 16,1 C 18,9 C 1,6 km/h (1 Bft) 97,87 %
02.07.2016 00:42 18,9 C 84 % 1013,8 hPa 0,0 l/m 0,9 km/h (0 Bft) O 91 0 min 0,000 mm 0,0 UV-I 0 W/m 16,1 C 18,9 C 1,6 km/h (1 Bft) 100,00 %
02.07.2016 00:44 18,8 C 85 % 1013,8 hPa 0,0 l/m 0,0 km/h (0 Bft) O 91 0 min 0,000 mm 0,0 UV-I 0 W/m 16,2 C 18,8 C 0,0 km/h (0 Bft) 100,00 %
02.07.2016 00:46 18,7 C 85 % 1013,8 hPa 0,0 l/m 0,0 km/h (0 Bft) O 91 0 min 0,000 mm 0,0 UV-I 0 W/m 16,1 C 18,7 C 0,0 km/h (0 Bft) 97,87 %
02.07.2016 00:48 18,7 C 85 % 1013,8 hPa 0,0 l/m 0,0 km/h (0 Bft) O 91 0 min 0,000 mm 0,0 UV-I 0 W/m 16,1 C 18,7 C 0,0 km/h (0 Bft) 100,00 %
02.07.2016 00:50 18,7 C 85 % 1013,7 hPa 0,0 l/m 0,0 km/h (0 Bft) O 91 0 min 0,000 mm 0,0 UV-I 0 W/m 16,1 C 18,7 C 0,0 km/h (0 Bft) 97,87 %
02.07.2016 00:52 18,8 C 85 % 1013,8 hPa 0,0 l/m 0,0 km/h (0 Bft) O 91 0 min 0,000 mm 0,0 UV-I 0 W/m 16,2 C 18,8 C 0,0 km/h (0 Bft) 100,00 %
02.07.2016 00:54 18,8 C 85 % 1013,8 hPa 0,0 l/m 0,3 km/h (0 Bft) O 91 0 min 0,000 mm 0,0 UV-I 0 W/m 16,2 C 18,8 C 1,6 km/h (1 Bft) 100,00 %
02.07.2016 00:56 18,7 C 85 % 1013,8 hPa 0,0 l/m 0,0 km/h (0 Bft) O 91 0 min 0,000 mm 0,0 UV-I 0 W/m 16,1 C 18,7 C 0,0 km/h (0 Bft) 100,00 %
02.07.2016 00:58 18,7 C 86 % 1013,7 hPa 0,0 l/m 0,0 km/h (0 Bft) O 91 0 min 0,000 mm 0,0 UV-I 0 W/m 16,3 C 18,7 C 0,0 km/h (0 Bft) 97,87 %
02.07.2016 01:00 18,7 C 86 % 1013,7 hPa 0,0 l/m 0,0 km/h (0 Bft) O 91 0 min 0,000 mm 0,0 UV-I 0 W/m 16,3 C 18,7 C 0,0 km/h (0 Bft) 100,00 %
02.07.2016 01:02 18,6 C 85 % 1013,6 hPa 0,0 l/m 0,0 km/h (0 Bft) O 91 0 min 0,000 mm 0,0 UV-I 0 W/m 16,0 C 18,6 C 0,0 km/h (0 Bft) 100,00 %
02.07.2016 01:04 18,4 C 85 % 1013,6 hPa 0,0 l/m 0,1 km/h (0 Bft) O 91 0 min 0,000 mm 0,0 UV-I 0 W/m 15,8 C 18,4 C 1,6 km/h (1 Bft) 100,00 %
02.07.2016 01:06 18,4 C 86 % 1013,6 hPa 0,0 l/m 1,6 km/h (1 Bft) O 91 0 min 0,000 mm 0,0 UV-I 0 W/m 16,0 C 18,4 C 3,2 km/h (1 Bft) 95,74 %
02.07.2016 01:08 18,4 C 86 % 1013,6 hPa 0,0 l/m 2,0 km/h (1 Bft) O 91 0 min 0,000 mm 0,0 UV-I 0 W/m 16,0 C 18,4 C 3,2 km/h (1 Bft) 97,87 %
02.07.2016 01:10 18,5 C 86 % 1013,5 hPa 0,0 l/m 2,8 km/h (1 Bft) O 89 0 min 0,000 mm 0,0 UV-I 0 W/m 16,1 C 18,5 C 4,8 km/h (1 Bft) 95,74 %
02.07.2016 01:12 18,6 C 85 % 1013,5 hPa 0,0 l/m 3,4 km/h (1 Bft) O 89 0 min 0,000 mm 0,0 UV-I 0 W/m 16,0 C 18,6 C 4,8 km/h (1 Bft) 97,87 %
02.07.2016 01:14 18,8 C 84 % 1013,5 hPa 0,0 l/m 2,2 km/h (1 Bft) O 89 0 min 0,000 mm 0,0 UV-I 0 W/m 16,0 C 18,8 C 3,2 km/h (1 Bft) 100,00 %
02.07.2016 01:16 18,8 C 84 % 1013,5 hPa 0,0 l/m 2,6 km/h (1 Bft) O 89 0 min 0,000 mm 0,0 UV-I 0 W/m 16,0 C 18,8 C 3,2 km/h (1 Bft) 100,00 %
02.07.2016 01:18 18,9 C 83 % 1013,5 hPa 0,0 l/m 1,5 km/h (1 Bft) O 89 0 min 0,000 mm 0,0 UV-I 0 W/m 15,9 C 18,9 C 3,2 km/h (1 Bft) 97,87 %
02.07.2016 01:20 18,9 C 83 % 1013,5 hPa 0,0 l/m 0,2 km/h (0 Bft) O 89 0 min 0,000 mm 0,0 UV-I 0 W/m 15,9 C 18,9 C 1,6 km/h (1 Bft) 100,00 %
02.07.2016 01:22 18,8 C 84 % 1013,5 hPa 0,0 l/m 0,0 km/h (0 Bft) O 89 0 min 0,000 mm 0,0 UV-I 0 W/m 16,0 C 18,8 C 0,0 km/h (0 Bft) 95,74 %
02.07.2016 01:24 18,6 C 84 % 1013,5 hPa 0,0 l/m 0,2 km/h (0 Bft) O 89 0 min 0,000 mm 0,0 UV-I 0 W/m 15,8 C 18,6 C 1,6 km/h (1 Bft) 97,87 %
02.07.2016 01:26 18,6 C 85 % 1013,5 hPa 0,0 l/m 0,0 km/h (0 Bft) O 89 0 min 0,000 mm 0,0 UV-I 0 W/m 16,0 C 18,6 C 0,0 km/h (0 Bft) 100,00 %
02.07.2016 01:28 18,4 C 85 % 1013,5 hPa 0,0 l/m 0,5 km/h (0 Bft) O 89 0 min 0,000 mm 0,0 UV-I 0 W/m 15,8 C 18,4 C 1,6 km/h (1 Bft) 97,87 %
02.07.2016 01:30 18,3 C 85 % 1013,4 hPa 0,0 l/m 1,2 km/h (1 Bft) O 89 0 min 0,000 mm 0,0 UV-I 0 W/m 15,7 C 18,3 C 3,2 km/h (1 Bft) 100,00 %
02.07.2016 01:32 18,2 C 86 % 1013,4 hPa 0,0 l/m 0,3 km/h (0 Bft) O 89 0 min 0,000 mm 0,0 UV-I 0 W/m 15,8 C 18,2 C 1,6 km/h (1 Bft) 100,00 %
02.07.2016 01:34 18,2 C 86 % 1013,4 hPa 0,0 l/m 0,0 km/h (0 Bft) O 89 0 min 0,000 mm 0,0 UV-I 0 W/m 15,8 C 18,2 C 0,0 km/h (0 Bft) 97,87 %
02.07.2016 01:36 18,1 C 86 % 1013,4 hPa 0,0 l/m 0,0 km/h (0 Bft) O 89 0 min 0,000 mm 0,0 UV-I 0 W/m 15,7 C 18,1 C 0,0 km/h (0 Bft) 100,00 %
02.07.2016 01:38 18,1 C 87 % 1013,4 hPa 0,0 l/m 0,0 km/h (0 Bft) O 89 0 min 0,000 mm 0,0 UV-I 0 W/m 15,9 C 18,1 C 0,0 km/h (0 Bft) 95,74 %
02.07.2016 01:40 18,1 C 87 % 1013,4 hPa 0,0 l/m 0,0 km/h (0 Bft) O 89 0 min 0,000 mm 0,0 UV-I 0 W/m 15,9 C 18,1 C 0,0 km/h (0 Bft) 97,87 %
02.07.2016 01:42 18,1 C 87 % 1013,3 hPa 0,0 l/m 0,4 km/h (0 Bft) O 89 0 min 0,000 mm 0,0 UV-I 0 W/m 15,9 C 18,1 C 1,6 km/h (1 Bft) 100,00 %
02.07.2016 01:44 18,1 C 87 % 1013,4 hPa 0,0 l/m 0,5 km/h (0 Bft) O 89 0 min 0,000 mm 0,0 UV-I 0 W/m 15,9 C 18,1 C 1,6 km/h (1 Bft) 100,00 %
02.07.2016 01:46 18,0 C 87 % 1013,3 hPa 0,0 l/m 0,0 km/h (0 Bft) O 89 0 min 0,000 mm 0,0 UV-I 0 W/m 15,8 C 18,0 C 0,0 km/h (0 Bft) 95,83 %
02.07.2016 01:48 17,9 C 87 % 1013,3 hPa 0,0 l/m 0,0 km/h (0 Bft) O 89 0 min 0,000 mm 0,0 UV-I 0 W/m 15,7 C 17,9 C 0,0 km/h (0 Bft) 97,87 %
02.07.2016 01:50 17,9 C 87 % 1013,2 hPa 0,0 l/m 0,0 km/h (0 Bft) O 89 0 min 0,000 mm 0,0 UV-I 0 W/m 15,7 C 17,9 C 0,0 km/h (0 Bft) 95,74 %
02.07.2016 01:52 17,8 C 87 % 1013,2 hPa 0,0 l/m 0,7 km/h (0 Bft) O 89 0 min 0,000 mm 0,0 UV-I 0 W/m 15,6 C 17,8 C 3,2 km/h (1 Bft) 97,87 %
02.07.2016 01:54 17,8 C 87 % 1013,2 hPa 0,0 l/m 2,2 km/h (1 Bft) O 89 0 min 0,000 mm 0,0 UV-I 0 W/m 15,6 C 17,8 C 3,2 km/h (1 Bft) 97,87 %
02.07.2016 01:56 17,8 C 87 % 1013,1 hPa 0,0 l/m 1,7 km/h (1 Bft) O 89 0 min 0,000 mm 0,0 UV-I 0 W/m 15,6 C 17,8 C 3,2 km/h (1 Bft) 95,74 %
02.07.2016 01:58 17,7 C 87 % 1013,1 hPa 0,0 l/m 1,4 km/h (1 Bft) O 89 0 min 0,000 mm 0,0 UV-I 0 W/m 15,5 C 17,7 C 3,2 km/h (1 Bft) 97,87 %
02.07.2016 02:00 17,8 C 87 % 1013,1 hPa 0,0 l/m 1,3 km/h (1 Bft) O 89 0 min 0,000 mm 0,0 UV-I 0 W/m 15,6 C 17,8 C 1,6 km/h (1 Bft) 96,00 %
02.07.2016 02:02 17,9 C 87 % 1013,0 hPa 0,0 l/m 1,6 km/h (1 Bft) O 89 0 min 0,000 mm 0,0 UV-I 0 W/m 15,7 C 17,9 C 1,6 km/h (1 Bft) 97,87 %
02.07.2016 02:04 17,9 C 87 % 1013,1 hPa 0,0 l/m 1,2 km/h (1 Bft) O 89 0 min 0,000 mm 0,0 UV-I 0 W/m 15,7 C 17,9 C 1,6 km/h (1 Bft) 97,87 %
02.07.2016 02:06 18,0 C 86 % 1013,0 hPa 0,0 l/m 0,4 km/h (0 Bft) O 89 0 min 0,000 mm 0,0 UV-I 0 W/m 15,6 C 18,0 C 1,6 km/h (1 Bft) 97,37 %
02.07.2016 02:08 17,9 C 87 % 1013,0 hPa 0,0 l/m 0,0 km/h (0 Bft) O 89 0 min 0,000 mm 0,0 UV-I 0 W/m 15,7 C 17,9 C 1,6 km/h (1 Bft) 97,87 %
02.07.2016 02:10 17,9 C 87 % 1013,0 hPa 0,0 l/m 0,0 km/h (0 Bft) O 89 0 min 0,000 mm 0,0 UV-I 0 W/m 15,7 C 17,9 C 0,0 km/h (0 Bft) 95,74 %
02.07.2016 02:12 17,8 C 87 % 1013,0 hPa 0,0 l/m 0,0 km/h (0 Bft) O 89 0 min 0,000 mm 0,0 UV-I 0 W/m 15,6 C 17,8 C 0,0 km/h (0 Bft) 97,87 %
02.07.2016 02:14 17,8 C 87 % 1013,0 hPa 0,0 l/m 0,0 km/h (0 Bft) O 89 0 min 0,000 mm 0,0 UV-I 0 W/m 15,6 C 17,8 C 0,0 km/h (0 Bft) 95,74 %
02.07.2016 02:16 17,8 C 87 % 1012,9 hPa 0,0 l/m 0,0 km/h (0 Bft) O 89 0 min 0,000 mm 0,0 UV-I 0 W/m 15,6 C 17,8 C 1,6 km/h (1 Bft) 97,87 %
02.07.2016 02:18 17,7 C 88 % 1013,0 hPa 0,0 l/m 1,0 km/h (0 Bft) O 89 0 min 0,000 mm 0,0 UV-I 0 W/m 15,7 C 17,7 C 1,6 km/h (1 Bft) 97,87 %
02.07.2016 02:20 17,7 C 88 % 1013,0 hPa 0,0 l/m 1,1 km/h (1 Bft) O 89 0 min 0,000 mm 0,0 UV-I 0 W/m 15,7 C 17,7 C 3,2 km/h (1 Bft) 97,87 %
02.07.2016 02:22 17,6 C 88 % 1013,0 hPa 0,0 l/m 3,0 km/h (1 Bft) O 89 0 min 0,000 mm 0,0 UV-I 0 W/m 15,6 C 17,6 C 3,2 km/h (1 Bft) 95,74 %
02.07.2016 02:24 17,4 C 89 % 1013,0 hPa 0,0 l/m 2,3 km/h (1 Bft) O 89 0 min 0,000 mm 0,0 UV-I 0 W/m 15,6 C 17,4 C 3,2 km/h (1 Bft) 97,92 %
02.07.2016 02:26 17,3 C 90 % 1012,9 hPa 0,0 l/m 1,3 km/h (1 Bft) O 89 0 min 0,000 mm 0,0 UV-I 0 W/m 15,6 C 17,3 C 3,2 km/h (1 Bft) 100,00 %
02.07.2016 02:28 17,3 C 90 % 1012,9 hPa 0,0 l/m 0,0 km/h (0 Bft) O 89 0 min 0,000 mm 0,0 UV-I 0 W/m 15,6 C 17,3 C 0,0 km/h (0 Bft) 100,00 %
02.07.2016 02:30 17,3 C 90 % 1012,9 hPa 0,0 l/m 0,2 km/h (0 Bft) O 89 0 min 0,000 mm 0,0 UV-I 0 W/m 15,6 C 17,3 C 1,6 km/h (1 Bft) 97,87 %
02.07.2016 02:32 17,3 C 90 % 1012,9 hPa 0,0 l/m 1,6 km/h (1 Bft) O 89 0 min 0,000 mm 0,0 UV-I 0 W/m 15,6 C 17,3 C 3,2 km/h (1 Bft) 100,00 %
02.07.2016 02:34 17,3 C 90 % 1012,8 hPa 0,0 l/m 0,9 km/h (0 Bft) O 85 0 min 0,000 mm 0,0 UV-I 0 W/m 15,6 C 17,3 C 3,2 km/h (1 Bft) 95,74 %
02.07.2016 02:36 17,2 C 90 % 1012,8 hPa 0,0 l/m 0,3 km/h (0 Bft) O 85 0 min 0,000 mm 0,0 UV-I 0 W/m 15,5 C 17,2 C 1,6 km/h (1 Bft) 100,00 %
02.07.2016 02:38 17,2 C 90 % 1012,8 hPa 0,0 l/m 1,0 km/h (0 Bft) O 83 0 min 0,000 mm 0,0 UV-I 0 W/m 15,5 C 17,2 C 3,2 km/h (1 Bft) 97,87 %
02.07.2016 02:40 17,3 C 90 % 1012,9 hPa 0,0 l/m 0,7 km/h (0 Bft) SO 136 0 min 0,000 mm 0,0 UV-I 0 W/m 15,6 C 17,3 C 1,6 km/h (1 Bft) 95,74 %
02.07.2016 02:42 17,3 C 90 % 1012,9 hPa 0,0 l/m 3,6 km/h (1 Bft) S-SO 157 0 min 0,000 mm 0,0 UV-I 0 W/m 15,6 C 17,3 C 4,8 km/h (1 Bft) 97,37 %
02.07.2016 02:44 17,2 C 90 % 1012,9 hPa 0,0 l/m 4,5 km/h (1 Bft) S-SO 167 0 min 0,000 mm 0,0 UV-I 0 W/m 15,5 C 17,2 C 6,4 km/h (2 Bft) 100,00 %
02.07.2016 02:46 17,2 C 90 % 1012,9 hPa 0,0 l/m 3,3 km/h (1 Bft) S 181 0 min 0,000 mm 0,0 UV-I 0 W/m 15,5 C 17,2 C 4,8 km/h (1 Bft) 97,87 %
02.07.2016 02:48 17,2 C 90 % 1013,0 hPa 0,0 l/m 2,8 km/h (1 Bft) S 181 0 min 0,000 mm 0,0 UV-I 0 W/m 15,5 C 17,2 C 4,8 km/h (1 Bft) 100,00 %
02.07.2016 02:50 17,1 C 90 % 1013,0 hPa 0,0 l/m 3,7 km/h (1 Bft) S-SO 166 0 min 0,000 mm 0,0 UV-I 0 W/m 15,4 C 17,1 C 4,8 km/h (1 Bft) 100,00 %
02.07.2016 02:52 17,1 C 90 % 1013,0 hPa 0,0 l/m 2,6 km/h (1 Bft) S-SO 163 0 min 0,000 mm 0,0 UV-I 0 W/m 15,4 C 17,1 C 8,0 km/h (2 Bft) 100,00 %
02.07.2016 02:54 17,1 C 90 % 1012,9 hPa 0,0 l/m 1,5 km/h (1 Bft) S-SO 163 0 min 0,000 mm 0,0 UV-I 0 W/m 15,4 C 17,1 C 6,4 km/h (2 Bft) 100,00 %
02.07.2016 02:56 17,1 C 90 % 1012,9 hPa 0,0 l/m 1,4 km/h (1 Bft) S-SO 163 0 min 0,000 mm 0,0 UV-I 0 W/m 15,4 C 17,1 C 3,2 km/h (1 Bft) 100,00 %
02.07.2016 02:58 17,1 C 90 % 1012,9 hPa 0,0 l/m 2,4 km/h (1 Bft) S-SO 163 0 min 0,000 mm 0,0 UV-I 0 W/m 15,4 C 17,1 C 3,2 km/h (1 Bft) 100,00 %
02.07.2016 03:00 17,2 C 90 % 1012,9 hPa 0,0 l/m 2,6 km/h (1 Bft) S-SO 163 0 min 0,000 mm 0,0 UV-I 0 W/m 15,5 C 17,2 C 3,2 km/h (1 Bft) 100,00 %
02.07.2016 03:02 17,2 C 90 % 1012,9 hPa 0,0 l/m 1,8 km/h (1 Bft) S-SO 163 0 min 0,000 mm 0,0 UV-I 0 W/m 15,5 C 17,2 C 3,2 km/h (1 Bft) 100,00 %
02.07.2016 03:04 17,3 C 90 % 1012,9 hPa 0,0 l/m 2,5 km/h (1 Bft) S-SO 165 0 min 0,000 mm 0,0 UV-I 0 W/m 15,6 C 17,3 C 6,4 km/h (2 Bft) 97,87 %
02.07.2016 03:06 17,3 C 90 % 1012,9 hPa 0,0 l/m 3,9 km/h (1 Bft) S-SO 166 0 min 0,000 mm 0,0 UV-I 0 W/m 15,6 C 17,3 C 6,4 km/h (2 Bft) 97,87 %
02.07.2016 03:08 17,4 C 90 % 1012,9 hPa 0,0 l/m 2,7 km/h (1 Bft) S-SO 158 0 min 0,000 mm 0,0 UV-I 0 W/m 15,7 C 17,4 C 6,4 km/h (2 Bft) 100,00 %
02.07.2016 03:10 17,4 C 90 % 1012,8 hPa 0,0 l/m 0,8 km/h (0 Bft) S-SO 158 0 min 0,000 mm 0,0 UV-I 0 W/m 15,7 C 17,4 C 1,6 km/h (1 Bft) 100,00 %
02.07.2016 03:12 17,3 C 90 % 1012,8 hPa 0,0 l/m 0,1 km/h (0 Bft) S-SO 158 0 min 0,000 mm 0,0 UV-I 0 W/m 15,6 C 17,3 C 1,6 km/h (1 Bft) 100,00 %
02.07.2016 03:14 17,3 C 90 % 1012,7 hPa 0,0 l/m 0,0 km/h (0 Bft) S-SO 158 0 min 0,000 mm 0,0 UV-I 0 W/m 15,6 C 17,3 C 1,6 km/h (1 Bft) 100,00 %
02.07.2016 03:16 17,4 C 90 % 1012,8 hPa 0,0 l/m 1,3 km/h (1 Bft) S-SO 158 0 min 0,000 mm 0,0 UV-I 0 W/m 15,7 C 17,4 C 3,2 km/h (1 Bft) 100,00 %
02.07.2016 03:18 17,5 C 90 % 1012,8 hPa 0,0 l/m 1,8 km/h (1 Bft) S-SO 158 0 min 0,000 mm 0,0 UV-I 0 W/m 15,8 C 17,5 C 3,2 km/h (1 Bft) 98,00 %
02.07.2016 03:20 17,6 C 90 % 1012,8 hPa 0,0 l/m 1,7 km/h (1 Bft) S-SO 158 0 min 0,000 mm 0,0 UV-I 0 W/m 15,9 C 17,6 C 3,2 km/h (1 Bft) 100,00 %
02.07.2016 03:22 17,6 C 90 % 1012,7 hPa 0,0 l/m 2,0 km/h (1 Bft) S-SO 158 0 min 0,000 mm 0,0 UV-I 0 W/m 15,9 C 17,6 C 3,2 km/h (1 Bft) 100,00 %
02.07.2016 03:24 17,6 C 89 % 1012,8 hPa 0,0 l/m 0,6 km/h (0 Bft) S-SO 158 0 min 0,000 mm 0,0 UV-I 0 W/m 15,8 C 17,6 C 1,6 km/h (1 Bft) 100,00 %
02.07.2016 03:26 17,5 C 89 % 1012,8 hPa 0,0 l/m 1,5 km/h (1 Bft) S-SO 158 0 min 0,000 mm 0,0 UV-I 0 W/m 15,7 C 17,5 C 3,2 km/h (1 Bft) 100,00 %
02.07.2016 03:28 17,4 C 89 % 1012,8 hPa 0,0 l/m 2,5 km/h (1 Bft) S-SO 158 0 min 0,000 mm 0,0 UV-I 0 W/m 15,6 C 17,4 C 3,2 km/h (1 Bft) 100,00 %
02.07.2016 03:30 17,3 C 90 % 1012,8 hPa 0,0 l/m 4,1 km/h (1 Bft) S-SO 167 0 min 0,000 mm 0,0 UV-I 0 W/m 15,6 C 17,3 C 6,4 km/h (2 Bft) 100,00 %
02.07.2016 03:32 17,3 C 90 % 1012,9 hPa 0,0 l/m 4,2 km/h (1 Bft) S-SW 212 0 min 0,000 mm 0,0 UV-I 0 W/m 15,6 C 17,3 C 6,4 km/h (2 Bft) 100,00 %
02.07.2016 03:34 17,3 C 90 % 1012,9 hPa 0,0 l/m 4,0 km/h (1 Bft) S-SW 196 0 min 0,000 mm 0,0 UV-I 0 W/m 15,6 C 17,3 C 6,4 km/h (2 Bft) 97,87 %
02.07.2016 03:36 17,2 C 90 % 1012,9 hPa 0,0 l/m 4,7 km/h (1 Bft) S 178 0 min 0,000 mm 0,0 UV-I 0 W/m 15,5 C 17,2 C 8,0 km/h (2 Bft) 100,00 %
02.07.2016 03:38 17,3 C 91 % 1012,8 hPa 0,0 l/m 3,6 km/h (1 Bft) S 178 0 min 0,000 mm 0,0 UV-I 0 W/m 15,8 C 17,3 C 8,0 km/h (2 Bft) 100,00 %
02.07.2016 03:40 17,4 C 91 % 1012,8 hPa 0,0 l/m 2,0 km/h (1 Bft) S 177 0 min 0,000 mm 0,0 UV-I 0 W/m 15,9 C 17,4 C 3,2 km/h (1 Bft) 100,00 %
02.07.2016 03:42 17,5 C 91 % 1012,8 hPa 0,0 l/m 1,6 km/h (1 Bft) S 177 0 min 0,000 mm 0,0 UV-I 0 W/m 16,0 C 17,5 C 3,2 km/h (1 Bft) 98,00 %
02.07.2016 03:44 17,6 C 90 % 1012,8 hPa 0,0 l/m 3,5 km/h (1 Bft) S 177 0 min 0,000 mm 0,0 UV-I 0 W/m 15,9 C 17,6 C 4,8 km/h (1 Bft) 100,00 %
02.07.2016 03:46 17,7 C 90 % 1012,8 hPa 0,0 l/m 3,1 km/h (1 Bft) S 178 0 min 0,000 mm 0,0 UV-I 0 W/m 16,0 C 17,7 C 4,8 km/h (1 Bft) 100,00 %
02.07.2016 03:48 17,7 C 90 % 1012,8 hPa 0,0 l/m 2,1 km/h (1 Bft) S 178 0 min 0,000 mm 0,0 UV-I 0 W/m 16,0 C 17,7 C 3,2 km/h (1 Bft) 95,74 %
02.07.2016 03:50 17,8 C 89 % 1012,9 hPa 0,0 l/m 3,5 km/h (1 Bft) S 178 0 min 0,000 mm 0,0 UV-I 0 W/m 16,0 C 17,8 C 6,4 km/h (2 Bft) 97,87 %
02.07.2016 03:52 17,8 C 89 % 1012,9 hPa 0,0 l/m 5,0 km/h (1 Bft) S 188 0 min 0,000 mm 0,0 UV-I 0 W/m 16,0 C 17,8 C 6,4 km/h (2 Bft) 95,74 %
02.07.2016 03:54 17,8 C 89 % 1012,9 hPa 0,0 l/m 4,8 km/h (1 Bft) SW 216 0 min 0,000 mm 0,0 UV-I 0 W/m 16,0 C 17,8 C 8,0 km/h (2 Bft) 98,00 %
02.07.2016 03:56 17,7 C 89 % 1013,0 hPa 0,0 l/m 4,7 km/h (1 Bft) S-SW 198 0 min 0,000 mm 0,0 UV-I 0 W/m 15,9 C 17,7 C 8,0 km/h (2 Bft) 97,96 %
02.07.2016 03:58 17,7 C 89 % 1013,0 hPa 0,0 l/m 4,8 km/h (1 Bft) SW 223 0 min 0,000 mm 0,0 UV-I 0 W/m 15,9 C 17,7 C 8,0 km/h (2 Bft) 95,74 %
02.07.2016 04:00 17,6 C 90 % 1012,9 hPa 0,0 l/m 3,3 km/h (1 Bft) SW 219 0 min 0,000 mm 0,0 UV-I 0 W/m 15,9 C 17,6 C 4,8 km/h (1 Bft) 97,37 %
02.07.2016 04:02 17,6 C 90 % 1013,0 hPa 0,0 l/m 4,6 km/h (1 Bft) S-SW 198 0 min 0,000 mm 0,0 UV-I 0 W/m 15,9 C 17,6 C 6,4 km/h (2 Bft) 100,00 %
02.07.2016 04:04 17,6 C 90 % 1013,0 hPa 0,0 l/m 2,3 km/h (1 Bft) S-SW 198 0 min 0,000 mm 0,0 UV-I 0 W/m 15,9 C 17,6 C 4,8 km/h (1 Bft) 93,62 %
02.07.2016 04:06 17,7 C 90 % 1012,9 hPa 0,0 l/m 4,0 km/h (1 Bft) S-SW 198 0 min 0,000 mm 0,0 UV-I 0 W/m 16,0 C 17,7 C 6,4 km/h (2 Bft) 97,87 %
02.07.2016 04:08 17,7 C 90 % 1013,1 hPa 0,0 l/m 5,2 km/h (1 Bft) S-SW 198 0 min 0,000 mm 0,0 UV-I 0 W/m 16,0 C 17,7 C 8,0 km/h (2 Bft) 97,87 %
02.07.2016 04:10 17,6 C 90 % 1013,0 hPa 0,0 l/m 6,2 km/h (2 Bft) S 190 0 min 0,000 mm 0,0 UV-I 0 W/m 15,9 C 17,6 C 8,0 km/h (2 Bft) 95,74 %
02.07.2016 04:12 17,6 C 90 % 1013,1 hPa 0,0 l/m 6,3 km/h (2 Bft) S-SW 207 0 min 0,000 mm 0,0 UV-I 0 W/m 15,9 C 17,6 C 11,3 km/h (2 Bft) 98,00 %
02.07.2016 04:14 17,6 C 90 % 1013,0 hPa 0,0 l/m 8,0 km/h (2 Bft) SW 223 0 min 0,000 mm 0,0 UV-I 0 W/m 15,9 C 16,8 C 11,3 km/h (2 Bft) 95,74 %
02.07.2016 04:16 17,6 C 90 % 1013,1 hPa 0,0 l/m 5,9 km/h (2 Bft) W-SW 239 0 min 0,000 mm 0,0 UV-I 0 W/m 15,9 C 17,6 C 9,7 km/h (2 Bft) 97,87 %
02.07.2016 04:18 17,6 C 90 % 1013,1 hPa 0,0 l/m 7,4 km/h (2 Bft) W-SW 242 0 min 0,000 mm 0,0 UV-I 0 W/m 15,9 C 17,1 C 11,3 km/h (2 Bft) 93,62 %
02.07.2016 04:20 17,6 C 91 % 1013,1 hPa 0,0 l/m 7,0 km/h (2 Bft) SW 231 0 min 0,000 mm 0,0 UV-I 0 W/m 16,1 C 17,3 C 8,0 km/h (2 Bft) 93,62 %
02.07.2016 04:22 17,6 C 91 % 1013,1 hPa 0,0 l/m 5,7 km/h (1 Bft) SW 224 0 min 0,000 mm 0,0 UV-I 0 W/m 16,1 C 17,6 C 8,0 km/h (2 Bft) 100,00 %
02.07.2016 04:24 17,6 C 91 % 1013,0 hPa 0,0 l/m 3,2 km/h (1 Bft) SW 223 0 min 0,000 mm 0,0 UV-I 0 W/m 16,1 C 17,6 C 6,4 km/h (2 Bft) 95,83 %
02.07.2016 04:26 17,6 C 91 % 1013,0 hPa 0,0 l/m 3,5 km/h (1 Bft) S-SW 205 0 min 0,000 mm 0,0 UV-I 0 W/m 16,1 C 17,6 C 6,4 km/h (2 Bft) 97,87 %
02.07.2016 04:28 17,6 C 91 % 1013,0 hPa 0,0 l/m 5,1 km/h (1 Bft) S-SW 198 0 min 0,000 mm 0,0 UV-I 0 W/m 16,1 C 17,6 C 8,0 km/h (2 Bft) 97,87 %
02.07.2016 04:30 17,5 C 91 % 1013,0 hPa 0,0 l/m 4,0 km/h (1 Bft) S-SW 196 0 min 0,000 mm 0,0 UV-I 0 W/m 16,0 C 17,5 C 6,4 km/h (2 Bft) 100,00 %
02.07.2016 04:32 17,5 C 91 % 1012,9 hPa 0,0 l/m 1,1 km/h (1 Bft) S-SW 196 0 min 0,000 mm 0,0 UV-I 0 W/m 16,0 C 17,5 C 3,2 km/h (1 Bft) 100,00 %
02.07.2016 04:34 17,5 C 91 % 1012,9 hPa 0,0 l/m 0,5 km/h (0 Bft) S-SW 196 0 min 0,000 mm 0,0 UV-I 0 W/m 16,0 C 17,5 C 1,6 km/h (1 Bft) 100,00 %
02.07.2016 04:36 17,5 C 91 % 1012,9 hPa 0,0 l/m 3,3 km/h (1 Bft) S-SW 196 0 min 0,000 mm 0,0 UV-I 0 W/m 16,0 C 17,5 C 4,8 km/h (1 Bft) 100,00 %
02.07.2016 04:38 17,5 C 91 % 1012,9 hPa 0,0 l/m 4,5 km/h (1 Bft) S-SW 196 0 min 0,000 mm 0,0 UV-I 0 W/m 16,0 C 17,5 C 4,8 km/h (1 Bft) 100,00 %
02.07.2016 04:40 17,5 C 91 % 1012,9 hPa 0,0 l/m 3,8 km/h (1 Bft) S-SW 196 0 min 0,000 mm 0,0 UV-I 0 W/m 16,0 C 17,5 C 6,4 km/h (2 Bft) 97,37 %
02.07.2016 04:42 17,5 C 91 % 1012,9 hPa 0,0 l/m 4,2 km/h (1 Bft) S-SW 196 0 min 0,000 mm 0,0 UV-I 0 W/m 16,0 C 17,5 C 6,4 km/h (2 Bft) 100,00 %
02.07.2016 04:44 17,5 C 91 % 1012,9 hPa 0,0 l/m 3,1 km/h (1 Bft) S-SW 196 0 min 0,000 mm 0,0 UV-I 0 W/m 16,0 C 17,5 C 4,8 km/h (1 Bft) 98,00 %
02.07.2016 04:46 17,4 C 91 % 1012,8 hPa 0,0 l/m 2,0 km/h (1 Bft) S-SW 196 0 min 0,000 mm 0,0 UV-I 0 W/m 15,9 C 17,4 C 3,2 km/h (1 Bft) 100,00 %
02.07.2016 04:48 17,4 C 91 % 1012,8 hPa 0,0 l/m 1,1 km/h (1 Bft) S-SW 196 0 min 0,000 mm 0,0 UV-I 0 W/m 15,9 C 17,4 C 1,6 km/h (1 Bft) 97,87 %
02.07.2016 04:50 17,4 C 91 % 1012,8 hPa 0,0 l/m 1,1 km/h (1 Bft) S-SW 196 0 min 0,000 mm 0,0 UV-I 0 W/m 15,9 C 17,4 C 3,2 km/h (1 Bft) 100,00 %
02.07.2016 04:52 17,4 C 91 % 1012,9 hPa 0,0 l/m 4,1 km/h (1 Bft) S-SW 197 0 min 0,000 mm 0,0 UV-I 0 W/m 15,9 C 17,4 C 4,8 km/h (1 Bft) 100,00 %
02.07.2016 04:54 17,4 C 91 % 1012,8 hPa 0,0 l/m 3,4 km/h (1 Bft) S-SW 197 0 min 0,000 mm 0,0 UV-I 0 W/m 15,9 C 17,4 C 6,4 km/h (2 Bft) 100,00 %
02.07.2016 04:56 17,4 C 91 % 1012,8 hPa 0,0 l/m 0,9 km/h (0 Bft) S-SW 197 0 min 0,000 mm 0,0 UV-I 0 W/m 15,9 C 17,4 C 3,2 km/h (1 Bft) 97,87 %
02.07.2016 04:58 17,3 C 91 % 1012,8 hPa 0,0 l/m 1,0 km/h (0 Bft) S-SW 197 0 min 0,000 mm 0,0 UV-I 0 W/m 15,8 C 17,3 C 3,2 km/h (1 Bft) 100,00 %
02.07.2016 05:00 17,3 C 91 % 1012,9 hPa 0,0 l/m 3,1 km/h (1 Bft) S-SW 197 0 min 0,000 mm 0,0 UV-I 0 W/m 15,8 C 17,3 C 4,8 km/h (1 Bft) 100,00 %
02.07.2016 05:02 17,2 C 91 % 1012,9 hPa 0,0 l/m 3,7 km/h (1 Bft) S-SW 197 0 min 0,000 mm 0,0 UV-I 0 W/m 15,7 C 17,2 C 4,8 km/h (1 Bft) 100,00 %
02.07.2016 05:04 17,2 C 92 % 1012,9 hPa 0,0 l/m 3,1 km/h (1 Bft) S-SW 197 0 min 0,000 mm 0,0 UV-I 0 W/m 15,9 C 17,2 C 4,8 km/h (1 Bft) 100,00 %
02.07.2016 05:06 17,2 C 92 % 1013,0 hPa 0,0 l/m 5,3 km/h (1 Bft) S-SW 197 0 min 0,000 mm 0,0 UV-I 1 W/m 15,9 C 17,2 C 8,0 km/h (2 Bft) 100,00 %
02.07.2016 05:08 17,2 C 92 % 1013,0 hPa 0,0 l/m 3,6 km/h (1 Bft) S-SW 197 0 min 0,000 mm 0,0 UV-I 5 W/m 15,9 C 17,2 C 6,4 km/h (2 Bft) 100,00 %
02.07.2016 05:10 17,1 C 92 % 1013,0 hPa 0,0 l/m 3,0 km/h (1 Bft) S-SW 197 0 min 0,000 mm 0,0 UV-I 5 W/m 15,8 C 17,1 C 4,8 km/h (1 Bft) 100,00 %
02.07.2016 05:12 17,1 C 92 % 1013,0 hPa 0,0 l/m 2,5 km/h (1 Bft) S-SW 198 0 min 0,000 mm 0,0 UV-I 7 W/m 15,8 C 17,1 C 4,8 km/h (1 Bft) 100,00 %
02.07.2016 05:14 17,1 C 92 % 1013,0 hPa 0,0 l/m 3,9 km/h (1 Bft) S-SW 198 0 min 0,000 mm 0,0 UV-I 7 W/m 15,8 C 17,1 C 4,8 km/h (1 Bft) 100,00 %
02.07.2016 05:16 17,0 C 92 % 1012,9 hPa 0,0 l/m 2,9 km/h (1 Bft) S-SW 198 0 min 0,000 mm 0,0 UV-I 9 W/m 15,7 C 17,0 C 4,8 km/h (1 Bft) 100,00 %
02.07.2016 05:18 17,1 C 92 % 1012,9 hPa 0,0 l/m 0,5 km/h (0 Bft) S-SW 198 0 min 0,000 mm 0,0 UV-I 11 W/m 15,8 C 17,1 C 1,6 km/h (1 Bft) 100,00 %
02.07.2016 05:20 17,1 C 92 % 1012,9 hPa 0,0 l/m 0,1 km/h (0 Bft) S-SW 198 0 min 0,000 mm 0,0 UV-I 11 W/m 15,8 C 17,1 C 1,6 km/h (1 Bft) 97,87 %
02.07.2016 05:22 17,2 C 92 % 1012,8 hPa 0,0 l/m 0,7 km/h (0 Bft) S-SW 198 2 min 0,000 mm 0,0 UV-I 12 W/m 15,9 C 17,2 C 1,6 km/h (1 Bft) 100,00 %
02.07.2016 05:24 17,2 C 92 % 1012,9 hPa 0,0 l/m 2,0 km/h (1 Bft) S-SW 198 2 min 0,000 mm 0,0 UV-I 13 W/m 15,9 C 17,2 C 3,2 km/h (1 Bft) 97,87 %
02.07.2016 05:26 17,3 C 92 % 1012,9 hPa 0,0 l/m 2,6 km/h (1 Bft) S-SW 197 2 min 0,000 mm 0,0 UV-I 15 W/m 16,0 C 17,3 C 3,2 km/h (1 Bft) 100,00 %
02.07.2016 05:28 17,3 C 92 % 1012,9 hPa 0,0 l/m 1,5 km/h (1 Bft) S-SW 197 0 min 0,000 mm 0,0 UV-I 16 W/m 16,0 C 17,3 C 4,8 km/h (1 Bft) 100,00 %
02.07.2016 05:30 17,3 C 91 % 1012,8 hPa 0,0 l/m 2,0 km/h (1 Bft) S-SW 196 0 min 0,000 mm 0,0 UV-I 18 W/m 15,8 C 17,3 C 4,8 km/h (1 Bft) 100,00 %
02.07.2016 05:32 17,2 C 91 % 1012,8 hPa 0,0 l/m 2,5 km/h (1 Bft) S 180 0 min 0,000 mm 0,0 UV-I 20 W/m 15,7 C 17,2 C 4,8 km/h (1 Bft) 97,87 %
02.07.2016 05:34 17,2 C 92 % 1012,8 hPa 0,0 l/m 1,7 km/h (1 Bft) S 179 0 min 0,000 mm 0,0 UV-I 22 W/m 15,9 C 17,2 C 4,8 km/h (1 Bft) 100,00 %
02.07.2016 05:36 17,2 C 92 % 1012,9 hPa 0,0 l/m 3,4 km/h (1 Bft) S 177 0 min 0,000 mm 0,0 UV-I 25 W/m 15,9 C 17,2 C 4,8 km/h (1 Bft) 100,00 %
02.07.2016 05:38 17,2 C 92 % 1012,9 hPa 0,0 l/m 1,8 km/h (1 Bft) S 177 0 min 0,000 mm 0,0 UV-I 27 W/m 15,9 C 17,2 C 3,2 km/h (1 Bft) 97,87 %
02.07.2016 05:40 17,3 C 92 % 1012,9 hPa 0,0 l/m 1,4 km/h (1 Bft) S 177 0 min 0,000 mm 0,0 UV-I 31 W/m 16,0 C 17,3 C 3,2 km/h (1 Bft) 100,00 %
02.07.2016 05:42 17,3 C 92 % 1012,9 hPa 0,0 l/m 2,1 km/h (1 Bft) S 177 0 min 0,000 mm 0,0 UV-I 33 W/m 16,0 C 17,3 C 4,8 km/h (1 Bft) 100,00 %
02.07.2016 05:44 17,4 C 91 % 1012,9 hPa 0,0 l/m 0,8 km/h (0 Bft) S 177 0 min 0,000 mm 0,0 UV-I 34 W/m 15,9 C 17,4 C 3,2 km/h (1 Bft) 97,92 %
02.07.2016 05:46 17,5 C 91 % 1012,8 hPa 0,0 l/m 1,3 km/h (1 Bft) S 177 0 min 0,000 mm 0,0 UV-I 36 W/m 16,0 C 17,5 C 3,2 km/h (1 Bft) 95,74 %
02.07.2016 05:48 17,6 C 91 % 1012,8 hPa 0,0 l/m 1,8 km/h (1 Bft) S 177 0 min 0,000 mm 0,0 UV-I 38 W/m 16,1 C 17,6 C 3,2 km/h (1 Bft) 97,87 %
02.07.2016 05:50 17,7 C 91 % 1012,8 hPa 0,0 l/m 1,5 km/h (1 Bft) S 177 0 min 0,000 mm 0,0 UV-I 40 W/m 16,2 C 17,7 C 3,2 km/h (1 Bft) 97,87 %
02.07.2016 05:52 17,7 C 91 % 1012,8 hPa 0,0 l/m 1,1 km/h (1 Bft) S 177 0 min 0,000 mm 0,0 UV-I 42 W/m 16,2 C 17,7 C 1,6 km/h (1 Bft) 95,74 %
02.07.2016 05:54 17,8 C 90 % 1012,8 hPa 0,0 l/m 0,8 km/h (0 Bft) S 177 0 min 0,000 mm 0,0 UV-I 44 W/m 16,1 C 17,8 C 1,6 km/h (1 Bft) 97,87 %
02.07.2016 05:56 17,8 C 90 % 1012,8 hPa 0,0 l/m 1,3 km/h (1 Bft) S 177 0 min 0,000 mm 0,0 UV-I 46 W/m 16,1 C 17,8 C 3,2 km/h (1 Bft) 97,87 %
02.07.2016 05:58 17,9 C 90 % 1012,8 hPa 0,0 l/m 3,6 km/h (1 Bft) S 178 0 min 0,000 mm 0,0 UV-I 49 W/m 16,2 C 17,9 C 6,4 km/h (2 Bft) 97,87 %
02.07.2016 06:00 17,9 C 90 % 1012,9 hPa 0,0 l/m 7,0 km/h (2 Bft) S 186 0 min 0,025 mm 0,0 UV-I 52 W/m 16,2 C 17,6 C 9,7 km/h (2 Bft) 95,74 %
02.07.2016 06:02 18,1 C 89 % 1012,8 hPa 0,0 l/m 4,0 km/h (1 Bft) S 171 0 min 0,000 mm 0,0 UV-I 55 W/m 16,3 C 18,1 C 6,4 km/h (2 Bft) 97,87 %
02.07.2016 06:04 18,2 C 89 % 1012,8 hPa 0,0 l/m 2,0 km/h (1 Bft) S-SO 167 0 min 0,000 mm 0,0 UV-I 57 W/m 16,4 C 18,2 C 6,4 km/h (2 Bft) 95,74 %
02.07.2016 06:06 18,3 C 89 % 1012,7 hPa 0,0 l/m 2,4 km/h (1 Bft) S-SO 163 0 min 0,000 mm 0,0 UV-I 59 W/m 16,5 C 18,3 C 6,4 km/h (2 Bft) 95,74 %
02.07.2016 06:08 18,4 C 88 % 1012,7 hPa 0,0 l/m 1,7 km/h (1 Bft) S-SO 164 0 min 0,000 mm 0,0 UV-I 62 W/m 16,4 C 18,4 C 6,4 km/h (2 Bft) 95,74 %
02.07.2016 06:10 18,5 C 88 % 1012,7 hPa 0,0 l/m 1,3 km/h (1 Bft) S-SO 164 0 min 0,000 mm 0,0 UV-I 63 W/m 16,5 C 18,5 C 3,2 km/h (1 Bft) 100,00 %
02.07.2016 06:12 18,6 C 88 % 1012,8 hPa 0,0 l/m 2,8 km/h (1 Bft) S-SO 168 0 min 0,000 mm 0,0 UV-I 65 W/m 16,6 C 18,6 C 8,0 km/h (2 Bft) 93,62 %
02.07.2016 06:14 18,7 C 87 % 1012,7 hPa 0,0 l/m 3,0 km/h (1 Bft) S-SO 168 0 min 0,000 mm 0,0 UV-I 69 W/m 16,5 C 18,7 C 6,4 km/h (2 Bft) 95,74 %
02.07.2016 06:16 18,8 C 87 % 1012,8 hPa 0,0 l/m 1,8 km/h (1 Bft) S-SO 168 0 min 0,000 mm 0,0 UV-I 72 W/m 16,6 C 18,8 C 3,2 km/h (1 Bft) 95,83 %
02.07.2016 06:18 18,9 C 87 % 1012,8 hPa 0,0 l/m 2,1 km/h (1 Bft) S-SO 168 0 min 0,000 mm 0,0 UV-I 78 W/m 16,7 C 18,9 C 3,2 km/h (1 Bft) 97,87 %
02.07.2016 06:20 19,1 C 87 % 1012,8 hPa 0,0 l/m 4,2 km/h (1 Bft) S 182 0 min 0,000 mm 0,0 UV-I 83 W/m 16,9 C 19,1 C 6,4 km/h (2 Bft) 100,00 %
02.07.2016 06:22 19,2 C 87 % 1012,8 hPa 0,0 l/m 3,5 km/h (1 Bft) S-SW 202 0 min 0,000 mm 0,0 UV-I 87 W/m 17,0 C 19,2 C 6,4 km/h (2 Bft) 100,00 %
02.07.2016 06:24 19,2 C 86 % 1012,7 hPa 0,0 l/m 3,5 km/h (1 Bft) S 173 0 min 0,000 mm 0,0 UV-I 90 W/m 16,8 C 19,2 C 6,4 km/h (2 Bft) 95,74 %
02.07.2016 06:26 19,2 C 86 % 1012,7 hPa 0,0 l/m 4,2 km/h (1 Bft) S 184 0 min 0,000 mm 0,0 UV-I 93 W/m 16,8 C 19,2 C 8,0 km/h (2 Bft) 100,00 %
02.07.2016 06:28 19,3 C 86 % 1012,7 hPa 0,0 l/m 2,8 km/h (1 Bft) S-SO 165 0 min 0,000 mm 0,0 UV-I 93 W/m 16,9 C 19,3 C 6,4 km/h (2 Bft) 100,00 %
02.07.2016 06:30 19,4 C 86 % 1012,8 hPa 0,0 l/m 5,7 km/h (1 Bft) S-SO 166 0 min 0,000 mm 0,0 UV-I 91 W/m 17,0 C 19,4 C 8,0 km/h (2 Bft) 97,87 %
02.07.2016 06:32 19,5 C 86 % 1012,8 hPa 0,0 l/m 4,7 km/h (1 Bft) S 175 0 min 0,000 mm 0,0 UV-I 90 W/m 17,1 C 19,5 C 9,7 km/h (2 Bft) 97,92 %
02.07.2016 06:34 19,6 C 85 % 1012,7 hPa 0,0 l/m 3,2 km/h (1 Bft) S 169 0 min 0,000 mm 0,0 UV-I 87 W/m 17,0 C 19,6 C 8,0 km/h (2 Bft) 100,00 %
02.07.2016 06:36 19,7 C 85 % 1012,8 hPa 0,0 l/m 2,8 km/h (1 Bft) S-SO 165 0 min 0,000 mm 0,0 UV-I 97 W/m 17,1 C 19,7 C 8,0 km/h (2 Bft) 100,00 %
02.07.2016 06:38 19,8 C 84 % 1012,7 hPa 0,0 l/m 3,1 km/h (1 Bft) S 173 2 min 0,000 mm 0,0 UV-I 132 W/m 17,0 C 19,8 C 8,0 km/h (2 Bft) 97,87 %
02.07.2016 06:40 19,8 C 85 % 1012,7 hPa 0,0 l/m 4,4 km/h (1 Bft) S-SW 196 2 min 0,000 mm 0,0 UV-I 140 W/m 17,2 C 19,8 C 8,0 km/h (2 Bft) 96,00 %
02.07.2016 06:42 19,9 C 84 % 1012,7 hPa 0,0 l/m 6,0 km/h (2 Bft) S-SO 167 2 min 0,000 mm 0,0 UV-I 147 W/m 17,1 C 19,9 C 11,3 km/h (2 Bft) 97,44 %
02.07.2016 06:44 20,0 C 83 % 1012,6 hPa 0,0 l/m 4,2 km/h (1 Bft) S-SO 168 2 min 0,000 mm 0,0 UV-I 158 W/m 17,0 C 20,0 C 9,7 km/h (2 Bft) 95,74 %
02.07.2016 06:46 20,1 C 83 % 1012,7 hPa 0,0 l/m 2,8 km/h (1 Bft) S-SO 167 2 min 0,000 mm 0,0 UV-I 130 W/m 17,1 C 20,1 C 6,4 km/h (2 Bft) 100,00 %
02.07.2016 06:48 20,2 C 83 % 1012,7 hPa 0,0 l/m 4,4 km/h (1 Bft) S-SO 163 0 min 0,000 mm 0,0 UV-I 101 W/m 17,2 C 20,2 C 8,0 km/h (2 Bft) 97,87 %
02.07.2016 06:50 20,3 C 83 % 1012,7 hPa 0,0 l/m 4,9 km/h (1 Bft) S 179 0 min 0,000 mm 0,0 UV-I 113 W/m 17,3 C 20,3 C 9,7 km/h (2 Bft) 97,87 %
02.07.2016 06:52 20,4 C 83 % 1012,7 hPa 0,0 l/m 3,4 km/h (1 Bft) S 189 0 min 0,000 mm 0,0 UV-I 106 W/m 17,4 C 20,4 C 4,8 km/h (1 Bft) 100,00 %
02.07.2016 06:54 20,3 C 83 % 1012,8 hPa 0,0 l/m 4,6 km/h (1 Bft) S 187 0 min 0,000 mm 0,0 UV-I 108 W/m 17,3 C 20,3 C 9,7 km/h (2 Bft) 100,00 %
02.07.2016 06:56 20,3 C 83 % 1012,9 hPa 0,0 l/m 4,7 km/h (1 Bft) SW 215 0 min 0,000 mm 0,0 UV-I 115 W/m 17,3 C 20,3 C 6,4 km/h (2 Bft) 97,87 %
02.07.2016 06:58 20,3 C 84 % 1012,9 hPa 0,0 l/m 4,0 km/h (1 Bft) S 174 0 min 0,000 mm 0,0 UV-I 123 W/m 17,5 C 20,3 C 9,7 km/h (2 Bft) 97,87 %
02.07.2016 07:00 20,3 C 84 % 1012,9 hPa 0,0 l/m 3,9 km/h (1 Bft) S-SO 167 0 min 0,077 mm 0,0 UV-I 137 W/m 17,5 C 20,3 C 6,4 km/h (2 Bft) 100,00 %
02.07.2016 07:02 20,3 C 83 % 1012,8 hPa 0,0 l/m 5,8 km/h (2 Bft) S-SW 202 0 min 0,000 mm 0,0 UV-I 104 W/m 17,3 C 20,3 C 9,7 km/h (2 Bft) 100,00 %
02.07.2016 07:04 20,3 C 83 % 1012,8 hPa 0,0 l/m 3,3 km/h (1 Bft) S 178 0 min 0,000 mm 0,0 UV-I 103 W/m 17,3 C 20,3 C 6,4 km/h (2 Bft) 100,00 %
02.07.2016 07:06 20,3 C 82 % 1012,8 hPa 0,0 l/m 3,4 km/h (1 Bft) S-SO 161 0 min 0,000 mm 0,0 UV-I 99 W/m 17,1 C 20,3 C 6,4 km/h (2 Bft) 100,00 %
02.07.2016 07:08 20,4 C 82 % 1012,7 hPa 0,0 l/m 2,6 km/h (1 Bft) S-SO 161 0 min 0,000 mm 0,0 UV-I 99 W/m 17,2 C 20,4 C 6,4 km/h (2 Bft) 100,00 %
02.07.2016 07:10 20,5 C 82 % 1012,8 hPa 0,0 l/m 4,0 km/h (1 Bft) S 173 0 min 0,000 mm 0,0 UV-I 107 W/m 17,3 C 20,5 C 8,0 km/h (2 Bft) 100,00 %
02.07.2016 07:12 20,5 C 81 % 1012,7 hPa 0,0 l/m 3,4 km/h (1 Bft) S-SO 167 0 min 0,000 mm 0,0 UV-I 120 W/m 17,1 C 20,5 C 4,8 km/h (1 Bft) 97,87 %
02.07.2016 07:14 20,6 C 80 % 1012,7 hPa 0,0 l/m 3,1 km/h (1 Bft) S 171 0 min 0,000 mm 0,0 UV-I 136 W/m 17,0 C 20,6 C 6,4 km/h (2 Bft) 98,00 %
02.07.2016 07:16 20,6 C 80 % 1012,6 hPa 0,0 l/m 2,1 km/h (1 Bft) S 171 0 min 0,000 mm 0,0 UV-I 147 W/m 17,0 C 20,6 C 6,4 km/h (2 Bft) 100,00 %
02.07.2016 07:18 20,7 C 81 % 1012,6 hPa 0,0 l/m 2,6 km/h (1 Bft) S 173 0 min 0,000 mm 0,0 UV-I 157 W/m 17,3 C 20,7 C 6,4 km/h (2 Bft) 100,00 %
02.07.2016 07:20 20,7 C 81 % 1012,6 hPa 0,0 l/m 3,4 km/h (1 Bft) S 175 0 min 0,000 mm 0,2 UV-I 167 W/m 17,3 C 20,7 C 4,8 km/h (1 Bft) 95,74 %
02.07.2016 07:22 20,7 C 81 % 1012,6 hPa 0,0 l/m 1,2 km/h (1 Bft) S 175 0 min 0,000 mm 0,5 UV-I 172 W/m 17,3 C 20,7 C 3,2 km/h (1 Bft) 100,00 %
02.07.2016 07:24 20,7 C 81 % 1012,6 hPa 0,0 l/m 0,8 km/h (0 Bft) S 175 2 min 0,000 mm 0,5 UV-I 188 W/m 17,3 C 20,7 C 3,2 km/h (1 Bft) 97,87 %
02.07.2016 07:26 20,8 C 82 % 1012,6 hPa 0,0 l/m 1,2 km/h (1 Bft) S 175 0 min 0,000 mm 0,5 UV-I 183 W/m 17,6 C 20,8 C 3,2 km/h (1 Bft) 100,00 %
02.07.2016 07:28 20,9 C 82 % 1012,6 hPa 0,0 l/m 1,4 km/h (1 Bft) S 175 0 min 0,000 mm 0,5 UV-I 183 W/m 17,7 C 20,9 C 3,2 km/h (1 Bft) 97,87 %
02.07.2016 07:30 20,9 C 80 % 1012,6 hPa 0,0 l/m 1,8 km/h (1 Bft) S 175 0 min 0,000 mm 0,5 UV-I 187 W/m 17,3 C 20,9 C 3,2 km/h (1 Bft) 97,87 %
02.07.2016 07:32 21,1 C 81 % 1012,5 hPa 0,0 l/m 2,8 km/h (1 Bft) S 175 2 min 0,000 mm 0,6 UV-I 233 W/m 17,7 C 21,1 C 4,8 km/h (1 Bft) 100,00 %
02.07.2016 07:34 21,2 C 82 % 1012,5 hPa 0,0 l/m 2,8 km/h (1 Bft) S 175 2 min 0,000 mm 0,6 UV-I 223 W/m 18,0 C 21,2 C 4,8 km/h (1 Bft) 100,00 %
02.07.2016 07:36 21,2 C 79 % 1012,5 hPa 0,0 l/m 2,9 km/h (1 Bft) S 177 0 min 0,000 mm 0,6 UV-I 195 W/m 17,4 C 21,2 C 4,8 km/h (1 Bft) 100,00 %
02.07.2016 07:38 21,3 C 79 % 1012,5 hPa 0,0 l/m 1,4 km/h (1 Bft) S 177 0 min 0,000 mm 0,6 UV-I 198 W/m 17,5 C 21,3 C 3,2 km/h (1 Bft) 95,74 %
02.07.2016 07:40 21,3 C 79 % 1012,5 hPa 0,0 l/m 1,8 km/h (1 Bft) S 177 0 min 0,000 mm 0,6 UV-I 202 W/m 17,5 C 21,3 C 3,2 km/h (1 Bft) 98,18 %
02.07.2016 07:42 21,3 C 79 % 1012,5 hPa 0,0 l/m 2,8 km/h (1 Bft) S 178 2 min 0,000 mm 0,7 UV-I 207 W/m 17,5 C 21,3 C 4,8 km/h (1 Bft) 100,00 %
02.07.2016 07:44 21,3 C 80 % 1012,4 hPa 0,0 l/m 2,3 km/h (1 Bft) S 178 0 min 0,000 mm 0,7 UV-I 208 W/m 17,7 C 21,3 C 4,8 km/h (1 Bft) 100,00 %
02.07.2016 07:46 21,4 C 80 % 1012,4 hPa 0,0 l/m 4,0 km/h (1 Bft) S 181 0 min 0,000 mm 0,7 UV-I 212 W/m 17,8 C 21,4 C 6,4 km/h (2 Bft) 97,87 %
02.07.2016 07:48 21,4 C 79 % 1012,4 hPa 0,0 l/m 2,0 km/h (1 Bft) S 178 2 min 0,000 mm 0,7 UV-I 224 W/m 17,6 C 21,4 C 3,2 km/h (1 Bft) 95,74 %
02.07.2016 07:50 21,4 C 79 % 1012,4 hPa 0,0 l/m 1,6 km/h (1 Bft) S 178 2 min 0,000 mm 0,8 UV-I 294 W/m 17,6 C 21,4 C 3,2 km/h (1 Bft) 95,92 %
02.07.2016 07:52 21,6 C 79 % 1012,4 hPa 0,0 l/m 3,7 km/h (1 Bft) S 178 2 min 0,000 mm 0,8 UV-I 338 W/m 17,8 C 21,6 C 6,4 km/h (2 Bft) 97,37 %
02.07.2016 07:54 21,7 C 78 % 1012,4 hPa 0,0 l/m 2,2 km/h (1 Bft) S 178 2 min 0,000 mm 0,8 UV-I 271 W/m 17,7 C 21,7 C 4,8 km/h (1 Bft) 93,62 %
02.07.2016 07:56 21,8 C 77 % 1012,4 hPa 0,0 l/m 3,8 km/h (1 Bft) S 190 2 min 0,000 mm 0,9 UV-I 399 W/m 17,6 C 21,8 C 4,8 km/h (1 Bft) 96,00 %
02.07.2016 07:58 21,9 C 77 % 1012,4 hPa 0,0 l/m 1,1 km/h (1 Bft) S 190 2 min 0,000 mm 0,8 UV-I 430 W/m 17,7 C 21,9 C 3,2 km/h (1 Bft) 97,87 %
02.07.2016 08:00 21,9 C 76 % 1012,4 hPa 0,0 l/m 3,1 km/h (1 Bft) W-SW 249 2 min 0,127 mm 0,9 UV-I 263 W/m 17,5 C 21,9 C 4,8 km/h (1 Bft) 98,00 %
02.07.2016 08:02 21,9 C 76 % 1012,5 hPa 0,0 l/m 3,0 km/h (1 Bft) W-SW 249 2 min 0,000 mm 0,9 UV-I 246 W/m 17,5 C 21,9 C 4,8 km/h (1 Bft) 97,87 %
02.07.2016 08:04 22,0 C 76 % 1012,5 hPa 0,0 l/m 2,5 km/h (1 Bft) W-SW 249 2 min 0,000 mm 0,9 UV-I 288 W/m 17,6 C 22,0 C 4,8 km/h (1 Bft) 97,87 %
02.07.2016 08:06 21,9 C 78 % 1012,4 hPa 0,0 l/m 2,4 km/h (1 Bft) W-SW 249 2 min 0,000 mm 1,0 UV-I 334 W/m 17,9 C 21,9 C 4,8 km/h (1 Bft) 97,87 %
02.07.2016 08:08 21,9 C 76 % 1012,4 hPa 0,0 l/m 2,5 km/h (1 Bft) S 190 2 min 0,000 mm 0,9 UV-I 274 W/m 17,5 C 21,9 C 4,8 km/h (1 Bft) 97,87 %
02.07.2016 08:10 21,9 C 76 % 1012,4 hPa 0,0 l/m 2,5 km/h (1 Bft) SW 226 2 min 0,000 mm 0,9 UV-I 275 W/m 17,5 C 21,9 C 4,8 km/h (1 Bft) 91,89 %
02.07.2016 08:12 22,0 C 77 % 1012,4 hPa 0,0 l/m 2,6 km/h (1 Bft) SW 226 2 min 0,000 mm 0,9 UV-I 293 W/m 17,8 C 22,0 C 4,8 km/h (1 Bft) 95,83 %
02.07.2016 08:14 22,1 C 76 % 1012,4 hPa 0,0 l/m 2,1 km/h (1 Bft) SW 227 2 min 0,000 mm 0,9 UV-I 283 W/m 17,7 C 22,1 C 3,2 km/h (1 Bft) 93,88 %
02.07.2016 08:16 22,1 C 76 % 1012,4 hPa 0,0 l/m 0,6 km/h (0 Bft) SW 227 0 min 0,000 mm 0,9 UV-I 227 W/m 17,7 C 22,1 C 3,2 km/h (1 Bft) 92,00 %
02.07.2016 08:18 22,1 C 77 % 1012,4 hPa 0,0 l/m 0,2 km/h (0 Bft) SW 227 0 min 0,000 mm 0,8 UV-I 215 W/m 17,9 C 22,1 C 3,2 km/h (1 Bft) 97,92 %
02.07.2016 08:20 22,1 C 76 % 1012,4 hPa 0,0 l/m 1,2 km/h (1 Bft) SW 227 0 min 0,000 mm 0,8 UV-I 208 W/m 17,7 C 22,1 C 3,2 km/h (1 Bft) 97,87 %
02.07.2016 08:22 22,1 C 77 % 1012,4 hPa 0,0 l/m 2,2 km/h (1 Bft) S-SW 206 0 min 0,000 mm 0,8 UV-I 201 W/m 17,9 C 22,1 C 4,8 km/h (1 Bft) 100,00 %
02.07.2016 08:24 22,1 C 77 % 1012,5 hPa 0,0 l/m 2,6 km/h (1 Bft) S-SW 207 0 min 0,000 mm 0,8 UV-I 198 W/m 17,9 C 22,1 C 4,8 km/h (1 Bft) 94,74 %
02.07.2016 08:26 22,1 C 77 % 1012,4 hPa 0,0 l/m 4,7 km/h (1 Bft) S 191 0 min 0,000 mm 0,8 UV-I 193 W/m 17,9 C 22,1 C 6,4 km/h (2 Bft) 100,00 %
02.07.2016 08:28 22,0 C 77 % 1012,4 hPa 0,0 l/m 3,7 km/h (1 Bft) S-SW 194 0 min 0,000 mm 0,8 UV-I 192 W/m 17,8 C 22,0 C 6,4 km/h (2 Bft) 100,00 %
02.07.2016 08:30 22,0 C 77 % 1012,5 hPa 0,0 l/m 3,0 km/h (1 Bft) SW 227 0 min 0,000 mm 0,9 UV-I 192 W/m 17,8 C 22,0 C 4,8 km/h (1 Bft) 97,87 %
02.07.2016 08:32 22,0 C 77 % 1012,4 hPa 0,0 l/m 4,0 km/h (1 Bft) W-SW 241 0 min 0,000 mm 0,9 UV-I 190 W/m 17,8 C 22,0 C 6,4 km/h (2 Bft) 100,00 %
02.07.2016 08:34 22,0 C 77 % 1012,4 hPa 0,0 l/m 4,1 km/h (1 Bft) W-SW 247 0 min 0,000 mm 0,9 UV-I 192 W/m 17,8 C 22,0 C 6,4 km/h (2 Bft) 100,00 %
02.07.2016 08:36 22,1 C 76 % 1012,4 hPa 0,0 l/m 3,4 km/h (1 Bft) W-SW 257 0 min 0,000 mm 0,9 UV-I 199 W/m 17,7 C 22,1 C 6,4 km/h (2 Bft) 97,14 %
02.07.2016 08:38 22,1 C 76 % 1012,4 hPa 0,0 l/m 2,8 km/h (1 Bft) W 259 0 min 0,000 mm 1,0 UV-I 208 W/m 17,7 C 22,1 C 4,8 km/h (1 Bft) 98,39 %
02.07.2016 08:40 22,1 C 77 % 1012,3 hPa 0,0 l/m 0,8 km/h (0 Bft) W 259 0 min 0,000 mm 1,0 UV-I 208 W/m 17,9 C 22,1 C 1,6 km/h (1 Bft) 100,00 %
02.07.2016 08:42 22,1 C 77 % 1012,3 hPa 0,0 l/m 1,2 km/h (1 Bft) W 259 0 min 0,000 mm 1,0 UV-I 208 W/m 17,9 C 22,1 C 3,2 km/h (1 Bft) 100,00 %
02.07.2016 08:44 22,2 C 79 % 1012,3 hPa 0,0 l/m 0,6 km/h (0 Bft) W 259 0 min 0,000 mm 1,0 UV-I 211 W/m 18,4 C 22,2 C 1,6 km/h (1 Bft) 100,00 %
02.07.2016 08:46 22,2 C 78 % 1012,2 hPa 0,0 l/m 1,0 km/h (0 Bft) W 262 0 min 0,000 mm 1,1 UV-I 214 W/m 18,2 C 22,2 C 3,2 km/h (1 Bft) 100,00 %
02.07.2016 08:48 22,2 C 79 % 1012,2 hPa 0,0 l/m 1,1 km/h (1 Bft) W 263 0 min 0,000 mm 1,1 UV-I 221 W/m 18,4 C 22,2 C 3,2 km/h (1 Bft) 97,87 %
02.07.2016 08:50 22,2 C 79 % 1012,2 hPa 0,0 l/m 2,0 km/h (1 Bft) W 273 0 min 0,000 mm 1,2 UV-I 228 W/m 18,4 C 22,2 C 3,2 km/h (1 Bft) 97,37 %
02.07.2016 08:52 22,1 C 77 % 1012,2 hPa 0,0 l/m 0,4 km/h (0 Bft) W 273 0 min 0,000 mm 1,2 UV-I 232 W/m 17,9 C 22,1 C 1,6 km/h (1 Bft) 100,00 %
02.07.2016 08:54 22,2 C 78 % 1012,2 hPa 0,0 l/m 0,8 km/h (0 Bft) W 273 0 min 0,000 mm 1,3 UV-I 235 W/m 18,2 C 22,2 C 1,6 km/h (1 Bft) 100,00 %
02.07.2016 08:56 22,2 C 79 % 1012,2 hPa 0,0 l/m 0,7 km/h (0 Bft) W 273 0 min 0,000 mm 1,3 UV-I 240 W/m 18,4 C 22,2 C 3,2 km/h (1 Bft) 100,00 %
02.07.2016 08:58 22,2 C 80 % 1012,2 hPa 0,0 l/m 1,5 km/h (1 Bft) W 277 0 min 0,000 mm 1,4 UV-I 251 W/m 18,6 C 22,2 C 3,2 km/h (1 Bft) 100,00 %
02.07.2016 09:00 22,2 C 79 % 1012,2 hPa 0,0 l/m 1,6 km/h (1 Bft) W 277 0 min 0,152 mm 1,4 UV-I 266 W/m 18,4 C 22,2 C 4,8 km/h (1 Bft) 100,00 %
02.07.2016 09:02 22,2 C 80 % 1012,2 hPa 0,0 l/m 1,6 km/h (1 Bft) W-NW 285 0 min 0,000 mm 1,5 UV-I 279 W/m 18,6 C 22,2 C 4,8 km/h (1 Bft) 100,00 %
02.07.2016 09:04 22,3 C 80 % 1012,1 hPa 0,0 l/m 2,2 km/h (1 Bft) N-NO 23 2 min 0,000 mm 1,7 UV-I 350 W/m 18,7 C 22,3 C 6,4 km/h (2 Bft) 97,87 %
02.07.2016 09:06 22,3 C 81 % 1012,1 hPa 0,0 l/m 1,7 km/h (1 Bft) N-NW 342 2 min 0,000 mm 1,8 UV-I 361 W/m 18,9 C 22,3 C 4,8 km/h (1 Bft) 97,87 %
02.07.2016 09:08 22,4 C 81 % 1012,1 hPa 0,0 l/m 1,5 km/h (1 Bft) N 11 2 min 0,000 mm 1,8 UV-I 359 W/m 19,0 C 22,4 C 6,4 km/h (2 Bft) 100,00 %
02.07.2016 09:10 22,5 C 79 % 1012,1 hPa 0,0 l/m 2,1 km/h (1 Bft) N 9 2 min 0,000 mm 1,8 UV-I 351 W/m 18,7 C 22,5 C 4,8 km/h (1 Bft) 98,00 %
02.07.2016 09:12 22,6 C 81 % 1012,1 hPa 0,0 l/m 2,1 km/h (1 Bft) N-NO 15 2 min 0,000 mm 1,9 UV-I 366 W/m 19,2 C 22,6 C 6,4 km/h (2 Bft) 100,00 %
02.07.2016 09:14 22,6 C 78 % 1012,2 hPa 0,0 l/m 1,4 km/h (1 Bft) N-NW 331 2 min 0,000 mm 2,0 UV-I 388 W/m 18,6 C 22,6 C 3,2 km/h (1 Bft) 100,00 %
02.07.2016 09:16 22,6 C 79 % 1012,2 hPa 0,0 l/m 1,4 km/h (1 Bft) N 355 2 min 0,000 mm 2,0 UV-I 395 W/m 18,8 C 22,6 C 3,2 km/h (1 Bft) 100,00 %
02.07.2016 09:18 22,6 C 79 % 1012,2 hPa 0,0 l/m 2,3 km/h (1 Bft) N 360 2 min 0,000 mm 1,9 UV-I 380 W/m 18,8 C 22,6 C 4,8 km/h (1 Bft) 100,00 %
02.07.2016 09:20 22,7 C 81 % 1012,2 hPa 0,0 l/m 2,3 km/h (1 Bft) NW 322 2 min 0,000 mm 1,9 UV-I 354 W/m 19,3 C 22,7 C 6,4 km/h (2 Bft) 100,00 %
02.07.2016 09:22 22,7 C 77 % 1012,2 hPa 0,0 l/m 3,4 km/h (1 Bft) NW 311 0 min 0,000 mm 1,8 UV-I 322 W/m 18,5 C 22,7 C 6,4 km/h (2 Bft) 100,00 %
02.07.2016 09:24 22,6 C 79 % 1012,2 hPa 0,0 l/m 1,4 km/h (1 Bft) N-NW 327 0 min 0,000 mm 1,8 UV-I 302 W/m 18,8 C 22,6 C 4,8 km/h (1 Bft) 96,00 %
02.07.2016 09:26 22,6 C 79 % 1012,2 hPa 0,0 l/m 2,1 km/h (1 Bft) NW 317 0 min 0,000 mm 1,8 UV-I 299 W/m 18,8 C 22,6 C 4,8 km/h (1 Bft) 100,00 %
02.07.2016 09:28 22,6 C 78 % 1012,2 hPa 0,0 l/m 1,9 km/h (1 Bft) NW 311 0 min 0,000 mm 1,9 UV-I 302 W/m 18,6 C 22,6 C 4,8 km/h (1 Bft) 100,00 %
02.07.2016 09:30 22,5 C 77 % 1012,3 hPa 0,0 l/m 1,2 km/h (1 Bft) NW 308 0 min 0,000 mm 2,0 UV-I 305 W/m 18,3 C 22,5 C 3,2 km/h (1 Bft) 100,00 %
02.07.2016 09:32 22,5 C 77 % 1012,2 hPa 0,0 l/m 1,6 km/h (1 Bft) NW 309 0 min 0,000 mm 2,0 UV-I 309 W/m 18,3 C 22,5 C 3,2 km/h (1 Bft) 100,00 %
02.07.2016 09:34 22,5 C 78 % 1012,2 hPa 0,0 l/m 1,3 km/h (1 Bft) N 11 0 min 0,000 mm 2,1 UV-I 313 W/m 18,5 C 22,5 C 4,8 km/h (1 Bft) 100,00 %
02.07.2016 09:36 22,6 C 79 % 1012,1 hPa 0,0 l/m 2,3 km/h (1 Bft) N-NW 327 0 min 0,000 mm 2,1 UV-I 309 W/m 18,8 C 22,6 C 4,8 km/h (1 Bft) 100,00 %
02.07.2016 09:38 22,6 C 79 % 1012,1 hPa 0,0 l/m 1,5 km/h (1 Bft) N 350 0 min 0,000 mm 2,2 UV-I 307 W/m 18,8 C 22,6 C 3,2 km/h (1 Bft) 100,00 %
02.07.2016 09:40 22,6 C 79 % 1012,1 hPa 0,0 l/m 1,4 km/h (1 Bft) N-NW 328 2 min 0,000 mm 2,4 UV-I 366 W/m 18,8 C 22,6 C 3,2 km/h (1 Bft) 100,00 %
02.07.2016 09:42 22,7 C 80 % 1012,0 hPa 0,0 l/m 3,7 km/h (1 Bft) N-NO 17 0 min 0,000 mm 2,3 UV-I 302 W/m 19,1 C 22,7 C 8,0 km/h (2 Bft) 100,00 %
02.07.2016 09:44 22,7 C 81 % 1012,0 hPa 0,0 l/m 0,8 km/h (0 Bft) N 9 0 min 0,000 mm 2,3 UV-I 271 W/m 19,3 C 22,7 C 1,6 km/h (1 Bft) 97,87 %
02.07.2016 09:46 22,6 C 78 % 1012,0 hPa 0,0 l/m 0,4 km/h (0 Bft) N-NW 348 0 min 0,000 mm 2,4 UV-I 265 W/m 18,6 C 22,6 C 1,6 km/h (1 Bft) 97,87 %
02.07.2016 09:48 22,7 C 80 % 1012,0 hPa 0,0 l/m 1,4 km/h (1 Bft) N 5 2 min 0,000 mm 3,4 UV-I 517 W/m 19,1 C 22,7 C 4,8 km/h (1 Bft) 95,74 %
02.07.2016 09:50 22,9 C 78 % 1012,0 hPa 0,0 l/m 2,8 km/h (1 Bft) NO 36 2 min 0,000 mm 3,4 UV-I 722 W/m 18,9 C 22,9 C 4,8 km/h (1 Bft) 94,00 %
02.07.2016 09:52 23,2 C 79 % 1012,0 hPa 0,0 l/m 2,7 km/h (1 Bft) N 355 2 min 0,000 mm 3,7 UV-I 725 W/m 19,3 C 23,2 C 6,4 km/h (2 Bft) 94,44 %
02.07.2016 09:54 23,3 C 77 % 1012,0 hPa 0,0 l/m 3,4 km/h (1 Bft) N-NO 15 2 min 0,000 mm 3,8 UV-I 735 W/m 19,0 C 23,3 C 6,4 km/h (2 Bft) 95,74 %
02.07.2016 09:56 23,4 C 74 % 1012,0 hPa 0,0 l/m 3,9 km/h (1 Bft) N-NO 21 2 min 0,000 mm 3,9 UV-I 743 W/m 18,5 C 23,4 C 6,4 km/h (2 Bft) 95,74 %
02.07.2016 09:58 23,6 C 74 % 1012,1 hPa 0,0 l/m 3,0 km/h (1 Bft) N 5 2 min 0,000 mm 3,9 UV-I 740 W/m 18,7 C 23,6 C 4,8 km/h (1 Bft) 95,74 %
02.07.2016 10:00 23,6 C 73 % 1012,1 hPa 0,0 l/m 2,5 km/h (1 Bft) N-NO 24 2 min 0,254 mm 3,9 UV-I 718 W/m 18,5 C 23,6 C 6,4 km/h (2 Bft) 97,87 %
02.07.2016 10:02 23,5 C 74 % 1012,1 hPa 0,0 l/m 2,7 km/h (1 Bft) W 275 2 min 0,000 mm 3,9 UV-I 714 W/m 18,6 C 23,5 C 6,4 km/h (2 Bft) 98,00 %
02.07.2016 10:04 23,5 C 73 % 1012,1 hPa 0,0 l/m 2,2 km/h (1 Bft) W-NW 289 2 min 0,000 mm 3,8 UV-I 627 W/m 18,4 C 23,5 C 4,8 km/h (1 Bft) 98,00 %
02.07.2016 10:06 23,7 C 78 % 1012,1 hPa 0,0 l/m 2,4 km/h (1 Bft) NW 323 2 min 0,000 mm 4,0 UV-I 653 W/m 19,6 C 23,7 C 4,8 km/h (1 Bft) 95,74 %
02.07.2016 10:08 23,8 C 74 % 1012,0 hPa 0,0 l/m 0,6 km/h (0 Bft) N-NW 339 2 min 0,000 mm 3,5 UV-I 582 W/m 18,9 C 23,8 C 1,6 km/h (1 Bft) 97,87 %
02.07.2016 10:10 23,9 C 75 % 1012,0 hPa 0,0 l/m 1,6 km/h (1 Bft) NW 324 2 min 0,000 mm 3,9 UV-I 470 W/m 19,2 C 23,9 C 4,8 km/h (1 Bft) 98,00 %
02.07.2016 10:12 24,0 C 75 % 1012,0 hPa 0,0 l/m 2,2 km/h (1 Bft) NW 308 2 min 0,000 mm 4,1 UV-I 696 W/m 19,3 C 24,0 C 4,8 km/h (1 Bft) 95,74 %
02.07.2016 10:14 24,1 C 73 % 1011,9 hPa 0,0 l/m 1,3 km/h (1 Bft) NW 310 2 min 0,000 mm 4,1 UV-I 699 W/m 18,9 C 24,1 C 3,2 km/h (1 Bft) 97,22 %
02.07.2016 10:16 24,3 C 76 % 1011,9 hPa 0,0 l/m 2,5 km/h (1 Bft) N 11 2 min 0,000 mm 3,5 UV-I 709 W/m 19,8 C 24,3 C 4,8 km/h (1 Bft) 95,74 %
02.07.2016 10:18 24,4 C 76 % 1011,9 hPa 0,0 l/m 3,7 km/h (1 Bft) N 360 2 min 0,000 mm 4,3 UV-I 719 W/m 19,9 C 24,4 C 8,0 km/h (2 Bft) 100,00 %
02.07.2016 10:20 24,4 C 73 % 1011,8 hPa 0,0 l/m 2,7 km/h (1 Bft) N-NW 340 2 min 0,000 mm 4,3 UV-I 727 W/m 19,2 C 24,4 C 6,4 km/h (2 Bft) 100,00 %
02.07.2016 10:22 24,3 C 73 % 1011,8 hPa 0,0 l/m 2,1 km/h (1 Bft) N 355 2 min 0,000 mm 4,4 UV-I 740 W/m 19,1 C 24,3 C 6,4 km/h (2 Bft) 97,87 %
02.07.2016 10:24 24,5 C 75 % 1011,8 hPa 0,0 l/m 4,4 km/h (1 Bft) N-NO 18 2 min 0,000 mm 4,5 UV-I 752 W/m 19,8 C 24,5 C 11,3 km/h (2 Bft) 100,00 %
02.07.2016 10:26 24,6 C 74 % 1011,7 hPa 0,0 l/m 5,9 km/h (2 Bft) N-NO 19 2 min 0,000 mm 4,5 UV-I 752 W/m 19,6 C 24,6 C 11,3 km/h (2 Bft) 97,87 %
02.07.2016 10:28 24,7 C 72 % 1011,8 hPa 0,0 l/m 2,6 km/h (1 Bft) N-NW 331 2 min 0,000 mm 4,5 UV-I 749 W/m 19,3 C 24,7 C 11,3 km/h (2 Bft) 100,00 %
02.07.2016 10:30 24,7 C 69 % 1011,8 hPa 0,0 l/m 2,0 km/h (1 Bft) N-NW 327 2 min 0,000 mm 4,4 UV-I 746 W/m 18,6 C 24,7 C 4,8 km/h (1 Bft) 100,00 %
02.07.2016 10:32 24,7 C 70 % 1011,8 hPa 0,0 l/m 2,0 km/h (1 Bft) W-NW 294 2 min 0,000 mm 4,6 UV-I 750 W/m 18,8 C 24,7 C 4,8 km/h (1 Bft) 97,87 %
02.07.2016 10:34 24,7 C 72 % 1011,8 hPa 0,0 l/m 3,0 km/h (1 Bft) NW 317 2 min 0,000 mm 4,6 UV-I 746 W/m 19,3 C 24,7 C 8,0 km/h (2 Bft) 100,00 %
02.07.2016 10:36 24,8 C 73 % 1011,8 hPa 0,0 l/m 1,8 km/h (1 Bft) N 9 2 min 0,000 mm 4,7 UV-I 739 W/m 19,6 C 24,8 C 3,2 km/h (1 Bft) 100,00 %
02.07.2016 10:38 24,9 C 73 % 1011,9 hPa 0,0 l/m 1,8 km/h (1 Bft) N-NO 17 2 min 0,000 mm 4,5 UV-I 735 W/m 19,7 C 24,9 C 3,2 km/h (1 Bft) 100,00 %
02.07.2016 10:40 24,9 C 70 % 1011,8 hPa 0,0 l/m 3,5 km/h (1 Bft) NW 320 2 min 0,000 mm 4,7 UV-I 736 W/m 19,0 C 24,9 C 8,0 km/h (2 Bft) 100,00 %
02.07.2016 10:42 24,9 C 71 % 1011,9 hPa 0,0 l/m 5,1 km/h (1 Bft) N 5 2 min 0,000 mm 4,8 UV-I 739 W/m 19,3 C 24,9 C 8,0 km/h (2 Bft) 100,00 %
02.07.2016 10:44 25,0 C 73 % 1011,9 hPa 0,0 l/m 2,8 km/h (1 Bft) N 349 2 min 0,000 mm 4,8 UV-I 737 W/m 19,8 C 25,0 C 6,4 km/h (2 Bft) 100,00 %
02.07.2016 10:46 25,0 C 70 % 1011,9 hPa 0,0 l/m 1,4 km/h (1 Bft) N 349 2 min 0,000 mm 4,9 UV-I 740 W/m 19,1 C 25,0 C 4,8 km/h (1 Bft) 97,87 %
02.07.2016 10:48 24,9 C 70 % 1011,9 hPa 0,0 l/m 1,6 km/h (1 Bft) N-NO 22 2 min 0,000 mm 4,9 UV-I 744 W/m 19,0 C 24,9 C 3,2 km/h (1 Bft) 100,00 %
02.07.2016 10:50 25,0 C 71 % 1011,8 hPa 0,0 l/m 5,2 km/h (1 Bft) N-NO 19 2 min 0,000 mm 5,0 UV-I 746 W/m 19,4 C 25,0 C 8,0 km/h (2 Bft) 100,00 %
02.07.2016 10:52 25,2 C 73 % 1011,9 hPa 0,0 l/m 2,8 km/h (1 Bft) N-NW 340 2 min 0,000 mm 5,0 UV-I 751 W/m 20,0 C 25,2 C 6,4 km/h (2 Bft) 100,00 %
02.07.2016 10:54 25,2 C 69 % 1011,9 hPa 0,0 l/m 2,2 km/h (1 Bft) N 10 2 min 0,000 mm 5,1 UV-I 759 W/m 19,1 C 25,2 C 4,8 km/h (1 Bft) 95,74 %
02.07.2016 10:56 25,3 C 68 % 1011,8 hPa 0,0 l/m 4,2 km/h (1 Bft) N-NO 20 2 min 0,000 mm 5,2 UV-I 769 W/m 19,0 C 25,3 C 8,0 km/h (2 Bft) 100,00 %
02.07.2016 10:58 25,4 C 70 % 1011,8 hPa 0,0 l/m 3,9 km/h (1 Bft) N 5 2 min 0,000 mm 5,2 UV-I 774 W/m 19,5 C 25,4 C 11,3 km/h (2 Bft) 100,00 %
02.07.2016 11:00 25,3 C 71 % 1011,8 hPa 0,0 l/m 2,1 km/h (1 Bft) N-NW 344 2 min 0,457 mm 5,3 UV-I 787 W/m 19,7 C 25,3 C 8,0 km/h (2 Bft) 100,00 %
02.07.2016 11:02 25,3 C 68 % 1011,8 hPa 0,0 l/m 1,3 km/h (1 Bft) N-NW 344 2 min 0,000 mm 5,4 UV-I 800 W/m 19,0 C 25,3 C 3,2 km/h (1 Bft) 100,00 %
02.07.2016 11:04 25,3 C 67 % 1011,8 hPa 0,0 l/m 1,6 km/h (1 Bft) NW 313 2 min 0,000 mm 5,4 UV-I 803 W/m 18,7 C 25,3 C 3,2 km/h (1 Bft) 98,00 %
02.07.2016 11:06 25,3 C 71 % 1011,7 hPa 0,0 l/m 1,2 km/h (1 Bft) N-NW 340 2 min 0,000 mm 5,4 UV-I 810 W/m 19,7 C 25,3 C 3,2 km/h (1 Bft) 100,00 %
02.07.2016 11:08 25,4 C 68 % 1011,7 hPa 0,0 l/m 2,5 km/h (1 Bft) NW 322 2 min 0,000 mm 5,0 UV-I 812 W/m 19,1 C 25,4 C 4,8 km/h (1 Bft) 97,87 %
02.07.2016 11:10 25,5 C 69 % 1011,7 hPa 0,0 l/m 1,7 km/h (1 Bft) N 9 2 min 0,000 mm 5,4 UV-I 759 W/m 19,4 C 25,5 C 3,2 km/h (1 Bft) 100,00 %
02.07.2016 11:12 25,5 C 70 % 1011,6 hPa 0,0 l/m 1,9 km/h (1 Bft) NW 306 2 min 0,000 mm 5,2 UV-I 710 W/m 19,6 C 25,5 C 4,8 km/h (1 Bft) 95,74 %
02.07.2016 11:14 25,6 C 70 % 1011,7 hPa 0,0 l/m 3,6 km/h (1 Bft) NW 308 2 min 0,000 mm 5,2 UV-I 691 W/m 19,7 C 25,6 C 6,4 km/h (2 Bft) 100,00 %
02.07.2016 11:16 25,7 C 70 % 1011,7 hPa 0,0 l/m 2,3 km/h (1 Bft) N-NW 328 2 min 0,000 mm 5,3 UV-I 762 W/m 19,8 C 25,7 C 4,8 km/h (1 Bft) 100,00 %
02.07.2016 11:18 25,6 C 66 % 1011,7 hPa 0,0 l/m 1,3 km/h (1 Bft) N-NW 328 2 min 0,000 mm 5,4 UV-I 624 W/m 18,8 C 25,6 C 3,2 km/h (1 Bft) 97,87 %
02.07.2016 11:20 25,6 C 73 % 1011,7 hPa 0,0 l/m 2,2 km/h (1 Bft) N 9 2 min 0,000 mm 5,4 UV-I 626 W/m 20,4 C 25,6 C 6,4 km/h (2 Bft) 97,87 %
02.07.2016 11:22 25,6 C 71 % 1011,7 hPa 0,0 l/m 3,1 km/h (1 Bft) N-NO 26 2 min 0,000 mm 5,0 UV-I 696 W/m 19,9 C 25,6 C 8,0 km/h (2 Bft) 97,87 %
02.07.2016 11:24 25,6 C 70 % 1011,7 hPa 0,0 l/m 3,0 km/h (1 Bft) NO 39 2 min 0,000 mm 5,7 UV-I 743 W/m 19,7 C 25,6 C 6,4 km/h (2 Bft) 100,00 %
02.07.2016 11:26 25,8 C 70 % 1011,7 hPa 0,0 l/m 3,3 km/h (1 Bft) NO 40 2 min 0,000 mm 6,2 UV-I 871 W/m 19,9 C 25,8 C 4,8 km/h (1 Bft) 100,00 %
02.07.2016 11:28 26,2 C 66 % 1011,7 hPa 0,0 l/m 2,3 km/h (1 Bft) N 11 2 min 0,000 mm 6,3 UV-I 994 W/m 19,3 C 26,2 C 4,8 km/h (1 Bft) 97,87 %
02.07.2016 11:30 26,4 C 68 % 1011,7 hPa 0,0 l/m 6,6 km/h (2 Bft) N-NO 32 2 min 0,000 mm 6,2 UV-I 948 W/m 20,0 C 26,4 C 12,9 km/h (3 Bft) 100,00 %
02.07.2016 11:32 26,6 C 68 % 1011,7 hPa 0,0 l/m 2,3 km/h (1 Bft) N-NW 340 2 min 0,000 mm 6,3 UV-I 964 W/m 20,2 C 26,6 C 8,0 km/h (2 Bft) 100,00 %
02.07.2016 11:34 26,6 C 65 % 1011,6 hPa 0,0 l/m 1,4 km/h (1 Bft) N 355 2 min 0,000 mm 6,5 UV-I 999 W/m 19,5 C 26,6 C 3,2 km/h (1 Bft) 96,00 %
02.07.2016 11:36 26,5 C 68 % 1011,6 hPa 0,0 l/m 3,3 km/h (1 Bft) N 355 2 min 0,000 mm 6,6 UV-I 1066 W/m 20,1 C 26,5 C 4,8 km/h (1 Bft) 95,74 %
02.07.2016 11:38 26,4 C 64 % 1011,6 hPa 0,0 l/m 3,3 km/h (1 Bft) O-NO 57 2 min 0,000 mm 6,0 UV-I 999 W/m 19,0 C 26,4 C 6,4 km/h (2 Bft) 96,00 %
02.07.2016 11:40 26,6 C 64 % 1011,5 hPa 0,0 l/m 2,7 km/h (1 Bft) N-NW 329 2 min 0,000 mm 4,9 UV-I 853 W/m 19,2 C 26,6 C 6,4 km/h (2 Bft) 97,87 %
02.07.2016 11:42 26,6 C 70 % 1011,6 hPa 0,0 l/m 2,4 km/h (1 Bft) O-SO 119 2 min 0,000 mm 4,7 UV-I 584 W/m 20,7 C 26,6 C 6,4 km/h (2 Bft) 95,74 %
02.07.2016 11:44 26,5 C 65 % 1011,6 hPa 0,0 l/m 2,4 km/h (1 Bft) NW 324 2 min 0,000 mm 4,3 UV-I 509 W/m 19,4 C 26,5 C 4,8 km/h (1 Bft) 97,37 %
02.07.2016 11:46 26,3 C 67 % 1011,5 hPa 0,0 l/m 3,1 km/h (1 Bft) N-NO 21 2 min 0,000 mm 4,1 UV-I 489 W/m 19,7 C 26,3 C 6,4 km/h (2 Bft) 95,74 %
02.07.2016 11:48 26,1 C 70 % 1011,5 hPa 0,0 l/m 3,7 km/h (1 Bft) NO 35 2 min 0,000 mm 4,1 UV-I 479 W/m 20,2 C 26,1 C 8,0 km/h (2 Bft) 98,11 %
02.07.2016 11:50 26,1 C 65 % 1011,5 hPa 0,0 l/m 2,3 km/h (1 Bft) NO 35 2 min 0,000 mm 4,2 UV-I 495 W/m 19,0 C 26,1 C 6,4 km/h (2 Bft) 95,74 %
02.07.2016 11:52 26,1 C 68 % 1011,5 hPa 0,0 l/m 1,5 km/h (1 Bft) N 5 2 min 0,000 mm 4,4 UV-I 527 W/m 19,7 C 26,1 C 3,2 km/h (1 Bft) 97,87 %
02.07.2016 11:54 26,1 C 67 % 1011,5 hPa 0,0 l/m 1,6 km/h (1 Bft) N 355 0 min 0,000 mm 4,1 UV-I 465 W/m 19,5 C 26,1 C 6,4 km/h (2 Bft) 93,62 %
02.07.2016 11:56 26,2 C 69 % 1011,4 hPa 0,0 l/m 1,8 km/h (1 Bft) N-NW 333 2 min 0,000 mm 4,4 UV-I 500 W/m 20,0 C 26,2 C 4,8 km/h (1 Bft) 93,62 %
02.07.2016 11:58 26,2 C 70 % 1011,4 hPa 0,0 l/m 2,7 km/h (1 Bft) N-NO 15 2 min 0,000 mm 4,2 UV-I 483 W/m 20,3 C 26,2 C 8,0 km/h (2 Bft) 95,74 %
02.07.2016 12:00 26,2 C 67 % 1011,5 hPa 0,0 l/m 4,9 km/h (1 Bft) N-NO 20 0 min 0,457 mm 3,9 UV-I 445 W/m 19,6 C 26,2 C 8,0 km/h (2 Bft) 96,00 %
02.07.2016 12:02 26,1 C 67 % 1011,5 hPa 0,0 l/m 8,1 km/h (2 Bft) N-NO 16 0 min 0,000 mm 3,8 UV-I 438 W/m 19,5 C 25,7 C 12,9 km/h (3 Bft) 97,37 %
02.07.2016 12:04 26,1 C 69 % 1011,4 hPa 0,0 l/m 3,6 km/h (1 Bft) N-NO 13 0 min 0,000 mm 3,8 UV-I 443 W/m 20,0 C 26,1 C 11,3 km/h (2 Bft) 97,87 %
02.07.2016 12:06 26,0 C 69 % 1011,5 hPa 0,0 l/m 2,3 km/h (1 Bft) N-NW 329 0 min 0,000 mm 3,2 UV-I 452 W/m 19,9 C 26,0 C 4,8 km/h (1 Bft) 100,00 %
02.07.2016 12:08 26,0 C 68 % 1011,4 hPa 0,0 l/m 2,4 km/h (1 Bft) NW 317 0 min 0,000 mm 4,0 UV-I 474 W/m 19,6 C 26,0 C 6,4 km/h (2 Bft) 97,92 %
02.07.2016 12:10 26,0 C 67 % 1011,4 hPa 0,0 l/m 1,9 km/h (1 Bft) N-NW 338 0 min 0,000 mm 4,4 UV-I 446 W/m 19,4 C 26,0 C 4,8 km/h (1 Bft) 100,00 %
02.07.2016 12:12 26,1 C 69 % 1011,4 hPa 0,0 l/m 1,6 km/h (1 Bft) N 355 0 min 0,000 mm 4,2 UV-I 455 W/m 20,0 C 26,1 C 4,8 km/h (1 Bft) 100,00 %
02.07.2016 12:14 26,1 C 68 % 1011,4 hPa 0,0 l/m 2,8 km/h (1 Bft) N-NO 13 0 min 0,000 mm 4,2 UV-I 477 W/m 19,7 C 26,1 C 6,4 km/h (2 Bft) 97,87 %
02.07.2016 12:16 26,1 C 66 % 1011,5 hPa 0,0 l/m 3,7 km/h (1 Bft) W-NW 298 0 min 0,000 mm 4,1 UV-I 463 W/m 19,2 C 26,1 C 9,7 km/h (2 Bft) 97,87 %
02.07.2016 12:18 26,0 C 65 % 1011,5 hPa 0,0 l/m 2,7 km/h (1 Bft) NW 323 0 min 0,000 mm 4,1 UV-I 461 W/m 18,9 C 26,0 C 4,8 km/h (1 Bft) 100,00 %
02.07.2016 12:20 25,9 C 68 % 1011,4 hPa 0,0 l/m 1,3 km/h (1 Bft) N-NW 348 0 min 0,000 mm 4,2 UV-I 455 W/m 19,5 C 25,9 C 3,2 km/h (1 Bft) 97,87 %
02.07.2016 12:22 26,0 C 71 % 1011,4 hPa 0,0 l/m 2,0 km/h (1 Bft) NO 34 0 min 0,000 mm 4,9 UV-I 452 W/m 20,3 C 26,0 C 4,8 km/h (1 Bft) 100,00 %
02.07.2016 12:24 26,1 C 66 % 1011,4 hPa 0,0 l/m 2,8 km/h (1 Bft) N-NW 329 0 min 0,000 mm 5,6 UV-I 444 W/m 19,2 C 26,1 C 4,8 km/h (1 Bft) 100,00 %
02.07.2016 12:26 26,2 C 66 % 1011,4 hPa 0,0 l/m 3,3 km/h (1 Bft) N 360 0 min 0,000 mm 4,5 UV-I 447 W/m 19,3 C 26,2 C 6,4 km/h (2 Bft) 100,00 %
02.07.2016 12:28 26,1 C 70 % 1011,3 hPa 0,0 l/m 3,3 km/h (1 Bft) N-NO 22 0 min 0,000 mm 5,2 UV-I 459 W/m 20,2 C 26,1 C 8,0 km/h (2 Bft) 100,00 %
02.07.2016 12:30 26,3 C 72 % 1011,3 hPa 0,0 l/m 3,7 km/h (1 Bft) N 355 2 min 0,000 mm 6,5 UV-I 711 W/m 20,8 C 26,3 C 8,0 km/h (2 Bft) 100,00 %
02.07.2016 12:32 26,5 C 69 % 1011,3 hPa 0,0 l/m 5,4 km/h (1 Bft) N-NW 327 2 min 0,000 mm 7,0 UV-I 1017 W/m 20,3 C 26,5 C 19,3 km/h (3 Bft) 100,00 %
02.07.2016 12:34 26,4 C 65 % 1011,3 hPa 0,0 l/m 7,1 km/h (2 Bft) N-NW 340 2 min 0,000 mm 6,8 UV-I 963 W/m 19,3 C 26,3 C 12,9 km/h (3 Bft) 98,00 %
02.07.2016 12:36 26,3 C 67 % 1011,3 hPa 0,0 l/m 4,4 km/h (1 Bft) N-NO 19 2 min 0,000 mm 6,9 UV-I 935 W/m 19,7 C 26,3 C 9,7 km/h (2 Bft) 97,14 %
02.07.2016 12:38 26,2 C 67 % 1011,3 hPa 0,0 l/m 4,7 km/h (1 Bft) NW 323 2 min 0,000 mm 6,4 UV-I 896 W/m 19,6 C 26,2 C 9,7 km/h (2 Bft) 97,87 %
02.07.2016 12:40 26,1 C 66 % 1011,3 hPa 0,0 l/m 4,5 km/h (1 Bft) N 9 2 min 0,000 mm 6,6 UV-I 887 W/m 19,2 C 26,1 C 8,0 km/h (2 Bft) 98,00 %
02.07.2016 12:42 26,0 C 65 % 1011,3 hPa 0,0 l/m 3,3 km/h (1 Bft) W-NW 302 2 min 0,000 mm 6,7 UV-I 862 W/m 18,9 C 26,0 C 8,0 km/h (2 Bft) 100,00 %
02.07.2016 12:44 26,1 C 67 % 1011,3 hPa 0,0 l/m 3,8 km/h (1 Bft) W 278 2 min 0,000 mm 6,8 UV-I 885 W/m 19,5 C 26,1 C 8,0 km/h (2 Bft) 97,87 %
02.07.2016 12:46 26,2 C 64 % 1011,3 hPa 0,0 l/m 4,2 km/h (1 Bft) NW 304 2 min 0,000 mm 5,9 UV-I 804 W/m 18,8 C 26,2 C 11,3 km/h (2 Bft) 100,00 %
02.07.2016 12:48 26,2 C 63 % 1011,4 hPa 0,0 l/m 4,7 km/h (1 Bft) W-SW 254 2 min 0,000 mm 5,9 UV-I 701 W/m 18,6 C 26,2 C 11,3 km/h (2 Bft) 100,00 %
02.07.2016 12:50 26,2 C 66 % 1011,4 hPa 0,0 l/m 3,4 km/h (1 Bft) NW 326 2 min 0,000 mm 6,3 UV-I 701 W/m 19,3 C 26,2 C 6,4 km/h (2 Bft) 97,87 %
02.07.2016 12:52 26,1 C 65 % 1011,3 hPa 0,0 l/m 5,0 km/h (1 Bft) NW 306 2 min 0,000 mm 5,9 UV-I 701 W/m 19,0 C 26,1 C 11,3 km/h (2 Bft) 100,00 %
02.07.2016 12:54 26,1 C 66 % 1011,3 hPa 0,0 l/m 3,8 km/h (1 Bft) NO 53 2 min 0,000 mm 6,6 UV-I 872 W/m 19,2 C 26,1 C 8,0 km/h (2 Bft) 100,00 %
02.07.2016 12:56 26,3 C 67 % 1011,3 hPa 0,0 l/m 3,3 km/h (1 Bft) SW 235 2 min 0,000 mm 6,8 UV-I 903 W/m 19,7 C 26,3 C 6,4 km/h (2 Bft) 97,87 %
02.07.2016 12:58 26,5 C 62 % 1011,2 hPa 0,0 l/m 4,8 km/h (1 Bft) W-NW 282 2 min 0,000 mm 6,8 UV-I 881 W/m 18,6 C 26,5 C 9,7 km/h (2 Bft) 100,00 %
02.07.2016 13:00 26,8 C 61 % 1011,1 hPa 0,0 l/m 3,0 km/h (1 Bft) NW 315 2 min 0,458 mm 6,9 UV-I 886 W/m 18,6 C 26,8 C 4,8 km/h (1 Bft) 97,87 %
02.07.2016 13:02 26,8 C 64 % 1011,2 hPa 0,0 l/m 5,6 km/h (1 Bft) W 275 2 min 0,000 mm 6,9 UV-I 895 W/m 19,4 C 26,8 C 12,9 km/h (3 Bft) 100,00 %
02.07.2016 13:04 26,9 C 62 % 1011,2 hPa 0,0 l/m 5,1 km/h (1 Bft) W-NW 282 2 min 0,000 mm 7,0 UV-I 935 W/m 19,0 C 26,9 C 11,3 km/h (2 Bft) 97,87 %
02.07.2016 13:06 26,8 C 62 % 1011,2 hPa 0,0 l/m 5,4 km/h (1 Bft) W-SW 252 2 min 0,000 mm 6,3 UV-I 951 W/m 18,9 C 26,8 C 14,5 km/h (3 Bft) 100,00 %
02.07.2016 13:08 26,9 C 63 % 1011,2 hPa 0,0 l/m 1,6 km/h (1 Bft) W-NW 286 2 min 0,000 mm 7,0 UV-I 920 W/m 19,2 C 26,9 C 3,2 km/h (1 Bft) 100,00 %
02.07.2016 13:10 27,2 C 61 % 1011,2 hPa 0,0 l/m 4,6 km/h (1 Bft) W-SW 246 2 min 0,000 mm 7,0 UV-I 935 W/m 19,0 C 27,2 C 8,0 km/h (2 Bft) 100,00 %
02.07.2016 13:12 27,2 C 60 % 1011,1 hPa 0,0 l/m 5,2 km/h (1 Bft) SW 235 2 min 0,000 mm 7,1 UV-I 927 W/m 18,7 C 27,2 C 11,3 km/h (2 Bft) 95,74 %
02.07.2016 13:14 27,2 C 60 % 1011,2 hPa 0,0 l/m 5,0 km/h (1 Bft) SW 233 2 min 0,000 mm 7,0 UV-I 986 W/m 18,7 C 27,2 C 9,7 km/h (2 Bft) 100,00 %
02.07.2016 13:16 27,3 C 58 % 1011,2 hPa 0,0 l/m 4,9 km/h (1 Bft) W-SW 257 2 min 0,000 mm 6,7 UV-I 1031 W/m 18,3 C 27,3 C 12,9 km/h (3 Bft) 97,87 %
02.07.2016 13:18 27,1 C 60 % 1011,2 hPa 0,0 l/m 4,8 km/h (1 Bft) NW 306 2 min 0,000 mm 7,1 UV-I 1022 W/m 18,6 C 27,1 C 12,9 km/h (3 Bft) 97,87 %
02.07.2016 13:20 26,9 C 61 % 1011,1 hPa 0,0 l/m 5,5 km/h (1 Bft) W-NW 289 2 min 0,000 mm 5,4 UV-I 1005 W/m 18,7 C 26,9 C 16,1 km/h (3 Bft) 100,00 %
02.07.2016 13:22 26,7 C 63 % 1011,1 hPa 0,0 l/m 3,1 km/h (1 Bft) NW 321 2 min 0,000 mm 5,5 UV-I 725 W/m 19,1 C 26,7 C 6,4 km/h (2 Bft) 100,00 %
02.07.2016 13:24 26,6 C 64 % 1011,1 hPa 0,0 l/m 4,2 km/h (1 Bft) W-NW 298 2 min 0,000 mm 6,8 UV-I 827 W/m 19,2 C 26,6 C 11,3 km/h (2 Bft) 97,87 %
02.07.2016 13:26 26,6 C 63 % 1011,2 hPa 0,0 l/m 3,7 km/h (1 Bft) W-SW 255 2 min 0,000 mm 7,0 UV-I 948 W/m 19,0 C 26,6 C 6,4 km/h (2 Bft) 95,74 %
02.07.2016 13:28 26,8 C 63 % 1011,1 hPa 0,0 l/m 2,9 km/h (1 Bft) W-SW 255 2 min 0,000 mm 6,9 UV-I 932 W/m 19,1 C 26,8 C 6,4 km/h (2 Bft) 96,00 %
02.07.2016 13:30 26,9 C 65 % 1011,1 hPa 0,0 l/m 1,6 km/h (1 Bft) W-SW 258 2 min 0,000 mm 6,9 UV-I 915 W/m 19,7 C 26,9 C 3,2 km/h (1 Bft) 97,92 %
02.07.2016 13:32 27,2 C 62 % 1011,1 hPa 0,0 l/m 5,0 km/h (1 Bft) NW 315 2 min 0,000 mm 6,9 UV-I 910 W/m 19,3 C 27,2 C 14,5 km/h (3 Bft) 97,87 %
02.07.2016 13:34 27,3 C 62 % 1011,0 hPa 0,0 l/m 5,0 km/h (1 Bft) N-NW 332 2 min 0,000 mm 6,8 UV-I 891 W/m 19,4 C 27,3 C 11,3 km/h (2 Bft) 95,74 %
02.07.2016 13:36 27,3 C 58 % 1011,0 hPa 0,0 l/m 6,9 km/h (2 Bft) W-SW 248 2 min 0,000 mm 6,7 UV-I 873 W/m 18,3 C 27,2 C 14,5 km/h (3 Bft) 95,74 %
02.07.2016 13:38 27,2 C 57 % 1011,1 hPa 0,0 l/m 9,8 km/h (2 Bft) W 262 2 min 0,000 mm 6,7 UV-I 867 W/m 17,9 C 26,6 C 24,1 km/h (4 Bft) 97,87 %
02.07.2016 13:40 27,2 C 54 % 1011,0 hPa 0,0 l/m 8,2 km/h (2 Bft) W 279 2 min 0,000 mm 6,7 UV-I 868 W/m 17,1 C 26,9 C 16,1 km/h (3 Bft) 96,00 %
02.07.2016 13:42 27,1 C 55 % 1011,1 hPa 0,0 l/m 8,6 km/h (2 Bft) W-SW 254 2 min 0,000 mm 6,7 UV-I 865 W/m 17,3 C 26,7 C 16,1 km/h (3 Bft) 95,74 %
02.07.2016 13:44 27,1 C 57 % 1011,1 hPa 0,0 l/m 7,7 km/h (2 Bft) W-SW 246 2 min 0,000 mm 6,7 UV-I 863 W/m 17,8 C 26,9 C 16,1 km/h (3 Bft) 97,37 %
02.07.2016 13:46 26,9 C 55 % 1011,0 hPa 0,0 l/m 7,6 km/h (2 Bft) W-SW 240 2 min 0,000 mm 6,7 UV-I 863 W/m 17,1 C 26,7 C 16,1 km/h (3 Bft) 97,87 %
02.07.2016 13:48 26,9 C 56 % 1011,0 hPa 0,0 l/m 6,1 km/h (2 Bft) NW 313 2 min 0,000 mm 6,7 UV-I 862 W/m 17,4 C 26,9 C 14,5 km/h (3 Bft) 97,87 %
02.07.2016 13:50 26,9 C 55 % 1011,0 hPa 0,0 l/m 11,2 km/h (2 Bft) W 278 2 min 0,000 mm 6,7 UV-I 860 W/m 17,1 C 26,1 C 24,1 km/h (4 Bft) 98,11 %
02.07.2016 13:52 26,8 C 54 % 1011,0 hPa 0,0 l/m 10,4 km/h (2 Bft) NW 320 2 min 0,000 mm 6,6 UV-I 858 W/m 16,7 C 26,1 C 19,3 km/h (3 Bft) 95,74 %
02.07.2016 13:54 26,6 C 53 % 1011,0 hPa 0,0 l/m 8,1 km/h (2 Bft) S 178 2 min 0,000 mm 6,6 UV-I 857 W/m 16,2 C 26,3 C 16,1 km/h (3 Bft) 97,87 %
02.07.2016 13:56 26,6 C 56 % 1011,0 hPa 0,0 l/m 8,8 km/h (2 Bft) SW 226 2 min 0,000 mm 6,6 UV-I 858 W/m 17,1 C 26,1 C 22,5 km/h (4 Bft) 97,87 %
02.07.2016 13:58 26,7 C 55 % 1011,0 hPa 0,0 l/m 7,5 km/h (2 Bft) W-SW 238 2 min 0,000 mm 6,6 UV-I 860 W/m 16,9 C 26,5 C 14,5 km/h (3 Bft) 97,87 %
02.07.2016 14:00 26,9 C 55 % 1011,0 hPa 0,0 l/m 6,5 km/h (2 Bft) W-SW 258 2 min 0,609 mm 6,6 UV-I 857 W/m 17,1 C 26,9 C 11,3 km/h (2 Bft) 92,11 %
02.07.2016 14:02 27,1 C 58 % 1011,0 hPa 0,0 l/m 3,1 km/h (1 Bft) W 269 2 min 0,000 mm 6,6 UV-I 856 W/m 18,1 C 27,1 C 9,7 km/h (2 Bft) 97,87 %
02.07.2016 14:04 27,1 C 53 % 1011,0 hPa 0,0 l/m 5,0 km/h (1 Bft) N-NW 345 2 min 0,000 mm 6,5 UV-I 847 W/m 16,7 C 27,1 C 12,9 km/h (3 Bft) 100,00 %
02.07.2016 14:06 27,0 C 57 % 1011,0 hPa 0,0 l/m 5,5 km/h (1 Bft) W-NW 294 2 min 0,000 mm 6,5 UV-I 846 W/m 17,7 C 27,0 C 12,9 km/h (3 Bft) 95,74 %
02.07.2016 14:08 27,0 C 57 % 1010,9 hPa 0,0 l/m 4,2 km/h (1 Bft) W-NW 289 2 min 0,000 mm 6,5 UV-I 845 W/m 17,7 C 27,0 C 9,7 km/h (2 Bft) 100,00 %
02.07.2016 14:10 26,9 C 55 % 1011,0 hPa 0,0 l/m 7,0 km/h (2 Bft) N-NW 337 2 min 0,000 mm 6,5 UV-I 844 W/m 17,1 C 26,8 C 16,1 km/h (3 Bft) 97,87 %
02.07.2016 14:12 26,9 C 57 % 1010,9 hPa 0,0 l/m 5,2 km/h (1 Bft) NW 319 2 min 0,000 mm 6,4 UV-I 844 W/m 17,6 C 26,9 C 9,7 km/h (2 Bft) 98,00 %
02.07.2016 14:14 26,9 C 57 % 1010,9 hPa 0,0 l/m 4,6 km/h (1 Bft) W-NW 286 2 min 0,000 mm 6,0 UV-I 846 W/m 17,6 C 26,9 C 11,3 km/h (2 Bft) 100,00 %
02.07.2016 14:16 26,8 C 59 % 1010,8 hPa 0,0 l/m 4,9 km/h (1 Bft) S-SO 167 2 min 0,000 mm 6,1 UV-I 845 W/m 18,1 C 26,8 C 9,7 km/h (2 Bft) 100,00 %
02.07.2016 14:18 26,8 C 57 % 1010,8 hPa 0,0 l/m 7,6 km/h (2 Bft) W 279 2 min 0,000 mm 6,3 UV-I 846 W/m 17,6 C 26,6 C 19,3 km/h (3 Bft) 100,00 %
02.07.2016 14:20 26,7 C 57 % 1010,8 hPa 0,0 l/m 6,3 km/h (2 Bft) N 355 2 min 0,000 mm 6,3 UV-I 843 W/m 17,5 C 26,7 C 16,1 km/h (3 Bft) 100,00 %
02.07.2016 14:22 26,8 C 60 % 1010,6 hPa 0,0 l/m 4,4 km/h (1 Bft) W-NW 292 2 min 0,000 mm 6,3 UV-I 840 W/m 18,4 C 26,8 C 8,0 km/h (2 Bft) 97,87 %
02.07.2016 14:24 26,9 C 65 % 1010,7 hPa 0,0 l/m 2,9 km/h (1 Bft) NW 304 2 min 0,000 mm 6,2 UV-I 837 W/m 19,7 C 26,9 C 6,4 km/h (2 Bft) 97,87 %
02.07.2016 14:26 27,0 C 58 % 1010,6 hPa 0,0 l/m 4,6 km/h (1 Bft) W-SW 250 2 min 0,000 mm 6,2 UV-I 838 W/m 18,0 C 27,0 C 16,1 km/h (3 Bft) 100,00 %
02.07.2016 14:28 27,0 C 58 % 1010,5 hPa 0,0 l/m 5,2 km/h (1 Bft) W-SW 251 2 min 0,000 mm 6,1 UV-I 833 W/m 18,0 C 27,0 C 11,3 km/h (2 Bft) 100,00 %
02.07.2016 14:30 27,1 C 59 % 1010,4 hPa 0,0 l/m 7,6 km/h (2 Bft) W-SW 238 2 min 0,000 mm 6,1 UV-I 828 W/m 18,4 C 26,9 C 14,5 km/h (3 Bft) 97,87 %
02.07.2016 14:32 27,2 C 57 % 1010,4 hPa 0,0 l/m 6,3 km/h (2 Bft) W 274 2 min 0,000 mm 6,1 UV-I 829 W/m 17,9 C 27,2 C 17,7 km/h (3 Bft) 100,00 %
02.07.2016 14:34 27,1 C 56 % 1010,4 hPa 0,0 l/m 9,6 km/h (2 Bft) NW 310 2 min 0,000 mm 6,1 UV-I 833 W/m 17,5 C 26,5 C 19,3 km/h (3 Bft) 95,74 %
02.07.2016 14:36 26,8 C 59 % 1010,3 hPa 0,0 l/m 5,9 km/h (2 Bft) N-NW 340 2 min 0,000 mm 6,0 UV-I 830 W/m 18,1 C 26,8 C 14,5 km/h (3 Bft) 95,74 %
02.07.2016 14:38 26,9 C 59 % 1010,3 hPa 0,0 l/m 3,2 km/h (1 Bft) W-NW 290 2 min 0,000 mm 6,0 UV-I 829 W/m 18,2 C 26,9 C 6,4 km/h (2 Bft) 100,00 %
02.07.2016 14:40 26,9 C 59 % 1010,3 hPa 0,0 l/m 5,1 km/h (1 Bft) O-SO 110 2 min 0,000 mm 6,0 UV-I 824 W/m 18,2 C 26,9 C 12,9 km/h (3 Bft) 95,74 %
02.07.2016 14:42 26,9 C 58 % 1010,2 hPa 0,0 l/m 4,7 km/h (1 Bft) NW 317 2 min 0,000 mm 5,9 UV-I 823 W/m 17,9 C 26,9 C 9,7 km/h (2 Bft) 100,00 %
02.07.2016 14:44 26,9 C 58 % 1010,3 hPa 0,0 l/m 6,9 km/h (2 Bft) NW 318 2 min 0,000 mm 5,9 UV-I 821 W/m 17,9 C 26,8 C 12,9 km/h (3 Bft) 97,87 %
02.07.2016 14:46 27,0 C 61 % 1010,2 hPa 0,0 l/m 5,9 km/h (2 Bft) N-NW 342 2 min 0,000 mm 5,8 UV-I 820 W/m 18,8 C 27,0 C 12,9 km/h (3 Bft) 98,00 %
02.07.2016 14:48 26,9 C 60 % 1010,2 hPa 0,0 l/m 4,1 km/h (1 Bft) NW 316 2 min 0,000 mm 5,8 UV-I 823 W/m 18,5 C 26,9 C 9,7 km/h (2 Bft) 100,00 %
02.07.2016 14:50 27,0 C 60 % 1010,2 hPa 0,0 l/m 4,6 km/h (1 Bft) W 266 2 min 0,000 mm 5,8 UV-I 821 W/m 18,6 C 27,0 C 11,3 km/h (2 Bft) 100,00 %
02.07.2016 14:52 27,1 C 57 % 1010,3 hPa 0,0 l/m 8,6 km/h (2 Bft) W-SW 240 2 min 0,000 mm 5,7 UV-I 818 W/m 17,8 C 26,7 C 16,1 km/h (3 Bft) 97,87 %
02.07.2016 14:54 27,2 C 61 % 1010,3 hPa 0,0 l/m 8,0 km/h (2 Bft) W-NW 300 2 min 0,000 mm 5,7 UV-I 815 W/m 19,0 C 26,9 C 17,7 km/h (3 Bft) 100,00 %
02.07.2016 14:56 27,2 C 56 % 1010,3 hPa 0,0 l/m 8,0 km/h (2 Bft) W-SW 251 2 min 0,000 mm 5,6 UV-I 812 W/m 17,6 C 26,9 C 22,5 km/h (4 Bft) 100,00 %
02.07.2016 14:58 27,3 C 56 % 1010,3 hPa 0,0 l/m 5,5 km/h (1 Bft) W-NW 289 2 min 0,000 mm 5,6 UV-I 815 W/m 17,7 C 27,3 C 11,3 km/h (2 Bft) 100,00 %
02.07.2016 15:00 27,3 C 55 % 1010,3 hPa 0,0 l/m 5,9 km/h (2 Bft) NW 309 2 min 0,559 mm 5,6 UV-I 813 W/m 17,4 C 27,3 C 12,9 km/h (3 Bft) 100,00 %
02.07.2016 15:02 27,2 C 55 % 1010,3 hPa 0,0 l/m 7,0 km/h (2 Bft) N 350 2 min 0,000 mm 5,5 UV-I 810 W/m 17,4 C 27,1 C 16,1 km/h (3 Bft) 100,00 %
02.07.2016 15:04 27,2 C 58 % 1010,3 hPa 0,0 l/m 2,7 km/h (1 Bft) N-NW 329 2 min 0,000 mm 5,5 UV-I 810 W/m 18,2 C 27,2 C 4,8 km/h (1 Bft) 100,00 %
02.07.2016 15:06 27,4 C 52 % 1010,4 hPa 0,0 l/m 9,7 km/h (2 Bft) W-NW 283 2 min 0,000 mm 5,5 UV-I 809 W/m 16,7 C 26,9 C 20,9 km/h (4 Bft) 97,87 %
02.07.2016 15:08 27,4 C 55 % 1010,3 hPa 0,0 l/m 9,7 km/h (2 Bft) W-SW 248 2 min 0,000 mm 5,5 UV-I 809 W/m 17,5 C 26,9 C 22,5 km/h (4 Bft) 97,87 %
02.07.2016 15:10 27,5 C 52 % 1010,4 hPa 0,0 l/m 12,5 km/h (3 Bft) W-SW 238 2 min 0,000 mm 5,4 UV-I 810 W/m 16,7 C 26,6 C 19,3 km/h (3 Bft) 100,00 %
02.07.2016 15:12 27,5 C 54 % 1010,4 hPa 0,0 l/m 6,7 km/h (2 Bft) W-SW 258 2 min 0,000 mm 5,3 UV-I 810 W/m 17,3 C 27,5 C 16,1 km/h (3 Bft) 100,00 %
02.07.2016 15:14 27,4 C 53 % 1010,4 hPa 0,0 l/m 13,4 km/h (3 Bft) SW 229 2 min 0,000 mm 5,3 UV-I 811 W/m 17,0 C 26,4 C 19,3 km/h (3 Bft) 100,00 %
02.07.2016 15:16 27,4 C 56 % 1010,4 hPa 0,0 l/m 10,7 km/h (2 Bft) W-SW 243 2 min 0,000 mm 5,2 UV-I 812 W/m 17,8 C 26,7 C 17,7 km/h (3 Bft) 100,00 %
02.07.2016 15:18 27,4 C 53 % 1010,5 hPa 0,0 l/m 9,3 km/h (2 Bft) W-SW 242 2 min 0,000 mm 5,2 UV-I 823 W/m 17,0 C 26,9 C 17,7 km/h (3 Bft) 97,87 %
02.07.2016 15:20 27,3 C 54 % 1010,5 hPa 0,0 l/m 8,8 km/h (2 Bft) W-SW 257 2 min 0,000 mm 5,0 UV-I 798 W/m 17,2 C 26,9 C 19,3 km/h (3 Bft) 95,74 %
02.07.2016 15:22 27,3 C 55 % 1010,6 hPa 0,0 l/m 6,4 km/h (2 Bft) NW 309 2 min 0,000 mm 4,9 UV-I 781 W/m 17,4 C 27,3 C 14,5 km/h (3 Bft) 95,83 %
02.07.2016 15:24 27,4 C 54 % 1010,6 hPa 0,0 l/m 4,3 km/h (1 Bft) N-NW 331 2 min 0,000 mm 4,6 UV-I 713 W/m 17,3 C 27,4 C 9,7 km/h (2 Bft) 98,00 %
02.07.2016 15:26 27,4 C 54 % 1010,6 hPa 0,0 l/m 4,3 km/h (1 Bft) N-NW 329 2 min 0,000 mm 4,1 UV-I 633 W/m 17,3 C 27,4 C 8,0 km/h (2 Bft) 96,00 %
02.07.2016 15:28 27,3 C 57 % 1010,6 hPa 0,0 l/m 4,3 km/h (1 Bft) W-NW 299 2 min 0,000 mm 3,8 UV-I 545 W/m 18,0 C 27,3 C 11,3 km/h (2 Bft) 96,00 %
02.07.2016 15:30 27,1 C 55 % 1010,6 hPa 0,0 l/m 10,4 km/h (2 Bft) W 260 2 min 0,000 mm 3,2 UV-I 430 W/m 17,3 C 26,4 C 22,5 km/h (4 Bft) 97,87 %
02.07.2016 15:32 26,9 C 56 % 1010,6 hPa 0,0 l/m 6,6 km/h (2 Bft) W 279 0 min 0,000 mm 2,9 UV-I 408 W/m 17,4 C 26,9 C 12,9 km/h (3 Bft) 97,87 %
02.07.2016 15:34 26,8 C 58 % 1010,6 hPa 0,0 l/m 7,7 km/h (2 Bft) W 264 0 min 0,000 mm 2,7 UV-I 356 W/m 17,8 C 26,5 C 14,5 km/h (3 Bft) 97,14 %
02.07.2016 15:36 26,6 C 59 % 1010,6 hPa 0,0 l/m 5,0 km/h (1 Bft) NW 306 0 min 0,000 mm 2,5 UV-I 326 W/m 17,9 C 26,6 C 12,9 km/h (3 Bft) 96,61 %
02.07.2016 15:38 26,4 C 58 % 1010,6 hPa 0,0 l/m 8,6 km/h (2 Bft) SW 227 0 min 0,000 mm 2,3 UV-I 278 W/m 17,5 C 26,0 C 14,5 km/h (3 Bft) 97,14 %
02.07.2016 15:40 26,2 C 58 % 1010,6 hPa 0,0 l/m 9,3 km/h (2 Bft) W 263 0 min 0,000 mm 2,2 UV-I 253 W/m 17,3 C 25,6 C 16,1 km/h (3 Bft) 95,74 %
02.07.2016 15:42 26,0 C 59 % 1010,7 hPa 0,0 l/m 6,1 km/h (2 Bft) NW 314 0 min 0,000 mm 2,1 UV-I 244 W/m 17,4 C 26,0 C 17,7 km/h (3 Bft) 94,34 %
02.07.2016 15:44 25,8 C 61 % 1010,7 hPa 0,0 l/m 8,4 km/h (2 Bft) SW 231 0 min 0,000 mm 2,0 UV-I 229 W/m 17,7 C 25,4 C 16,1 km/h (3 Bft) 95,74 %
02.07.2016 15:46 25,8 C 62 % 1010,8 hPa 0,0 l/m 9,7 km/h (2 Bft) W-SW 248 0 min 0,000 mm 1,9 UV-I 222 W/m 18,0 C 25,1 C 14,5 km/h (3 Bft) 97,87 %
02.07.2016 15:48 25,7 C 62 % 1010,8 hPa 0,0 l/m 8,0 km/h (2 Bft) SW 216 0 min 0,000 mm 1,8 UV-I 218 W/m 17,9 C 25,3 C 16,1 km/h (3 Bft) 98,00 %
02.07.2016 15:50 25,5 C 63 % 1010,7 hPa 0,0 l/m 6,4 km/h (2 Bft) W-NW 283 0 min 0,000 mm 1,7 UV-I 218 W/m 17,9 C 25,5 C 12,9 km/h (3 Bft) 92,11 %
02.07.2016 15:52 25,4 C 64 % 1010,7 hPa 0,0 l/m 4,9 km/h (1 Bft) W 268 0 min 0,000 mm 1,7 UV-I 216 W/m 18,1 C 25,4 C 11,3 km/h (2 Bft) 96,08 %
02.07.2016 15:54 25,3 C 65 % 1010,7 hPa 0,0 l/m 4,1 km/h (1 Bft) W-SW 239 0 min 0,000 mm 1,6 UV-I 218 W/m 18,2 C 25,3 C 8,0 km/h (2 Bft) 97,14 %
02.07.2016 15:55 25,3 C 65 % 1010,8 hPa 0,0 l/m 7,7 km/h (2 Bft) W 268 0 min 0,000 mm 1,6 UV-I 220 W/m 18,2 C 25,0 C 11,3 km/h (2 Bft) 97,44 %
02.07.2016 15:56 25,3 C 65 % 1010,7 hPa 0,0 l/m 6,4 km/h (2 Bft) W-SW 238 0 min 0,000 mm 1,6 UV-I 220 W/m 18,2 C 25,3 C 11,3 km/h (2 Bft) 100,00 %
02.07.2016 15:57 25,3 C 65 % 1010,7 hPa 0,0 l/m 5,8 km/h (2 Bft) W-SW 255 0 min 0,000 mm 1,6 UV-I 222 W/m 18,2 C 25,3 C 8,0 km/h (2 Bft) 95,83 %
02.07.2016 15:58 25,3 C 66 % 1010,8 hPa 0,0 l/m 9,7 km/h (2 Bft) NW 324 0 min 0,000 mm 1,6 UV-I 223 W/m 18,5 C 24,6 C 17,7 km/h (3 Bft) 95,65 %
02.07.2016 15:59 25,3 C 64 % 1010,8 hPa 0,0 l/m 8,0 km/h (2 Bft) W-SW 237 0 min 0,000 mm 1,6 UV-I 225 W/m 18,0 C 24,9 C 17,7 km/h (3 Bft) 100,00 %
02.07.2016 16:00 25,2 C 65 % 1010,7 hPa 0,0 l/m 9,4 km/h (2 Bft) W-SW 245 0 min 0,000 mm 1,6 UV-I 228 W/m 18,1 C 24,5 C 19,3 km/h (3 Bft) 100,00 %
02.07.2016 16:01 25,2 C 66 % 1010,8 hPa 0,0 l/m 6,1 km/h (2 Bft) S-SW 203 0 min 0,381 mm 1,6 UV-I 230 W/m 18,4 C 25,2 C 9,7 km/h (2 Bft) 100,00 %
02.07.2016 16:02 25,2 C 66 % 1010,8 hPa 0,0 l/m 3,6 km/h (1 Bft) SW 224 0 min 0,000 mm 1,6 UV-I 234 W/m 18,4 C 25,2 C 6,4 km/h (2 Bft) 100,00 %
02.07.2016 16:03 25,2 C 66 % 1010,9 hPa 0,0 l/m 3,2 km/h (1 Bft) W-SW 252 0 min 0,000 mm 1,6 UV-I 239 W/m 18,4 C 25,2 C 4,8 km/h (1 Bft) 100,00 %
02.07.2016 16:04 25,2 C 67 % 1010,9 hPa 0,0 l/m 2,0 km/h (1 Bft) N-NO 32 0 min 0,000 mm 1,7 UV-I 246 W/m 18,6 C 25,2 C 6,4 km/h (2 Bft) 100,00 %
02.07.2016 16:05 25,2 C 65 % 1010,9 hPa 0,0 l/m 9,1 km/h (2 Bft) W-SW 252 0 min 0,000 mm 1,7 UV-I 258 W/m 18,1 C 24,6 C 14,5 km/h (3 Bft) 100,00 %
02.07.2016 16:06 25,2 C 66 % 1010,9 hPa 0,0 l/m 4,1 km/h (1 Bft) W-SW 242 0 min 0,000 mm 1,8 UV-I 270 W/m 18,4 C 25,2 C 6,4 km/h (2 Bft) 91,30 %
02.07.2016 16:07 25,2 C 66 % 1010,9 hPa 0,0 l/m 5,8 km/h (2 Bft) W-SW 252 0 min 0,000 mm 1,9 UV-I 286 W/m 18,4 C 25,2 C 8,0 km/h (2 Bft) 95,83 %
02.07.2016 16:08 25,2 C 66 % 1010,9 hPa 0,0 l/m 4,9 km/h (1 Bft) W-SW 244 0 min 0,000 mm 1,9 UV-I 277 W/m 18,4 C 25,2 C 11,3 km/h (2 Bft) 95,83 %
02.07.2016 16:09 25,2 C 67 % 1010,8 hPa 0,0 l/m 1,5 km/h (1 Bft) SW 221 0 min 0,000 mm 1,8 UV-I 267 W/m 18,6 C 25,2 C 4,8 km/h (1 Bft) 100,00 %
02.07.2016 16:10 25,2 C 68 % 1010,9 hPa 0,0 l/m 3,1 km/h (1 Bft) NW 322 0 min 0,000 mm 1,8 UV-I 263 W/m 18,9 C 25,2 C 4,8 km/h (1 Bft) 100,00 %
02.07.2016 16:11 25,2 C 68 % 1010,8 hPa 0,0 l/m 4,6 km/h (1 Bft) W 277 0 min 0,000 mm 1,8 UV-I 260 W/m 18,9 C 25,2 C 11,3 km/h (2 Bft) 100,00 %
02.07.2016 16:12 25,2 C 67 % 1010,8 hPa 0,0 l/m 1,9 km/h (1 Bft) W 269 0 min 0,000 mm 1,8 UV-I 260 W/m 18,6 C 25,2 C 4,8 km/h (1 Bft) 100,00 %
02.07.2016 16:13 25,1 C 68 % 1010,8 hPa 0,0 l/m 3,7 km/h (1 Bft) W 273 0 min 0,000 mm 1,8 UV-I 258 W/m 18,8 C 25,1 C 9,7 km/h (2 Bft) 100,00 %
02.07.2016 16:14 25,1 C 65 % 1010,7 hPa 0,0 l/m 3,7 km/h (1 Bft) W-NW 284 0 min 0,000 mm 1,8 UV-I 256 W/m 18,0 C 25,1 C 11,3 km/h (2 Bft) 100,00 %
02.07.2016 16:15 25,0 C 66 % 1010,7 hPa 0,0 l/m 4,9 km/h (1 Bft) N-NO 31 0 min 0,000 mm 1,9 UV-I 270 W/m 18,2 C 25,0 C 11,3 km/h (2 Bft) 100,00 %
02.07.2016 16:16 25,0 C 66 % 1010,7 hPa 0,0 l/m 2,7 km/h (1 Bft) W 271 0 min 0,000 mm 2,0 UV-I 282 W/m 18,2 C 25,0 C 6,4 km/h (2 Bft) 100,00 %
02.07.2016 16:17 25,1 C 65 % 1010,7 hPa 0,0 l/m 8,1 km/h (2 Bft) W 270 0 min 0,000 mm 1,9 UV-I 273 W/m 18,0 C 24,7 C 19,3 km/h (3 Bft) 100,00 %
02.07.2016 16:18 25,1 C 66 % 1010,6 hPa 0,0 l/m 5,3 km/h (1 Bft) W-NW 282 0 min 0,000 mm 2,0 UV-I 277 W/m 18,3 C 25,1 C 12,9 km/h (3 Bft) 100,00 %
02.07.2016 16:19 25,0 C 65 % 1010,5 hPa 0,0 l/m 7,7 km/h (2 Bft) N-NW 339 0 min 0,000 mm 2,1 UV-I 294 W/m 17,9 C 24,7 C 12,9 km/h (3 Bft) 91,30 %
02.07.2016 16:20 25,0 C 65 % 1010,6 hPa 0,0 l/m 4,8 km/h (1 Bft) NW 320 0 min 0,000 mm 2,4 UV-I 340 W/m 17,9 C 25,0 C 11,3 km/h (2 Bft) 100,00 %
02.07.2016 16:21 25,1 C 64 % 1010,5 hPa 0,0 l/m 7,6 km/h (2 Bft) W-SW 256 1 min 0,000 mm 2,6 UV-I 532 W/m 17,8 C 24,8 C 16,1 km/h (3 Bft) 100,00 %
02.07.2016 16:22 25,1 C 64 % 1010,6 hPa 0,0 l/m 4,8 km/h (1 Bft) W-SW 256 1 min 0,000 mm 2,4 UV-I 570 W/m 17,8 C 25,1 C 12,9 km/h (3 Bft) 100,00 %
02.07.2016 16:23 25,2 C 65 % 1010,7 hPa 0,0 l/m 3,9 km/h (1 Bft) W 277 0 min 0,000 mm 2,1 UV-I 362 W/m 18,1 C 25,2 C 9,7 km/h (2 Bft) 100,00 %
02.07.2016 16:24 25,2 C 64 % 1010,7 hPa 0,0 l/m 1,7 km/h (1 Bft) W-NW 291 0 min 0,000 mm 1,8 UV-I 241 W/m 17,9 C 25,2 C 4,8 km/h (1 Bft) 100,00 %
02.07.2016 16:25 25,2 C 65 % 1010,7 hPa 0,0 l/m 2,7 km/h (1 Bft) N-NW 328 0 min 0,000 mm 1,7 UV-I 220 W/m 18,1 C 25,2 C 4,8 km/h (1 Bft) 100,00 %
02.07.2016 16:26 25,2 C 66 % 1010,8 hPa 0,0 l/m 5,0 km/h (1 Bft) W-NW 300 0 min 0,000 mm 1,6 UV-I 203 W/m 18,4 C 25,2 C 9,7 km/h (2 Bft) 100,00 %
02.07.2016 16:27 25,1 C 67 % 1010,8 hPa 0,0 l/m 2,2 km/h (1 Bft) N 360 0 min 0,000 mm 1,5 UV-I 192 W/m 18,5 C 25,1 C 3,2 km/h (1 Bft) 100,00 %
02.07.2016 16:28 25,1 C 65 % 1010,8 hPa 0,0 l/m 9,6 km/h (2 Bft) W-NW 293 0 min 0,000 mm 1,5 UV-I 184 W/m 18,0 C 24,4 C 20,9 km/h (4 Bft) 100,00 %
02.07.2016 16:29 25,1 C 66 % 1010,8 hPa 0,0 l/m 3,5 km/h (1 Bft) W-NW 294 0 min 0,000 mm 1,3 UV-I 179 W/m 18,3 C 25,1 C 6,4 km/h (2 Bft) 100,00 %
02.07.2016 16:30 24,9 C 65 % 1010,8 hPa 0,0 l/m 9,7 km/h (2 Bft) W 277 0 min 0,000 mm 1,3 UV-I 176 W/m 17,9 C 24,1 C 20,9 km/h (4 Bft) 100,00 %
02.07.2016 16:31 24,9 C 64 % 1010,7 hPa 0,0 l/m 6,4 km/h (2 Bft) SW 223 0 min 0,000 mm 1,3 UV-I 174 W/m 17,6 C 24,9 C 19,3 km/h (3 Bft) 100,00 %
02.07.2016 16:32 24,8 C 65 % 1010,7 hPa 0,0 l/m 2,8 km/h (1 Bft) W-SW 255 0 min 0,000 mm 1,2 UV-I 174 W/m 17,8 C 24,8 C 4,8 km/h (1 Bft) 100,00 %
02.07.2016 16:33 24,7 C 64 % 1010,7 hPa 0,0 l/m 4,6 km/h (1 Bft) W-NW 284 0 min 0,000 mm 1,2 UV-I 173 W/m 17,4 C 24,7 C 11,3 km/h (2 Bft) 100,00 %
02.07.2016 16:34 24,7 C 64 % 1010,6 hPa 0,0 l/m 7,0 km/h (2 Bft) N-NO 31 0 min 0,000 mm 1,2 UV-I 170 W/m 17,4 C 24,5 C 14,5 km/h (3 Bft) 100,00 %
02.07.2016 16:35 24,6 C 65 % 1010,6 hPa 0,0 l/m 4,5 km/h (1 Bft) NW 323 0 min 0,000 mm 1,1 UV-I 168 W/m 17,6 C 24,6 C 11,3 km/h (2 Bft) 95,83 %
02.07.2016 16:36 24,5 C 65 % 1010,5 hPa 0,0 l/m 6,5 km/h (2 Bft) W-NW 302 0 min 0,000 mm 1,1 UV-I 164 W/m 17,5 C 24,5 C 12,9 km/h (3 Bft) 91,30 %
02.07.2016 16:37 24,4 C 66 % 1010,6 hPa 0,0 l/m 5,4 km/h (1 Bft) NW 321 0 min 0,000 mm 1,0 UV-I 160 W/m 17,6 C 24,4 C 8,0 km/h (2 Bft) 100,00 %
02.07.2016 16:38 24,3 C 66 % 1010,6 hPa 0,0 l/m 7,2 km/h (2 Bft) NW 323 0 min 0,000 mm 0,9 UV-I 153 W/m 17,5 C 24,1 C 12,9 km/h (3 Bft) 100,00 %
02.07.2016 16:39 24,2 C 65 % 1010,6 hPa 0,0 l/m 10,0 km/h (2 Bft) W-NW 296 0 min 0,000 mm 0,9 UV-I 144 W/m 17,2 C 23,3 C 17,7 km/h (3 Bft) 100,00 %
02.07.2016 16:40 24,2 C 66 % 1010,6 hPa 0,0 l/m 3,7 km/h (1 Bft) NW 321 0 min 0,000 mm 0,7 UV-I 133 W/m 17,4 C 24,2 C 11,3 km/h (2 Bft) 100,00 %
02.07.2016 16:41 24,1 C 66 % 1010,6 hPa 0,0 l/m 6,1 km/h (2 Bft) NW 310 0 min 0,000 mm 0,7 UV-I 125 W/m 17,3 C 24,1 C 12,9 km/h (3 Bft) 100,00 %
02.07.2016 16:42 24,1 C 66 % 1010,6 hPa 0,0 l/m 5,2 km/h (1 Bft) W-NW 298 0 min 0,000 mm 0,6 UV-I 119 W/m 17,3 C 24,1 C 8,0 km/h (2 Bft) 91,30 %
02.07.2016 16:43 24,0 C 66 % 1010,6 hPa 0,0 l/m 8,2 km/h (2 Bft) N-NW 338 0 min 0,000 mm 0,6 UV-I 113 W/m 17,2 C 23,5 C 17,7 km/h (3 Bft) 100,00 %
02.07.2016 16:44 23,9 C 66 % 1010,6 hPa 0,0 l/m 4,1 km/h (1 Bft) NW 305 0 min 0,000 mm 0,6 UV-I 106 W/m 17,1 C 23,9 C 6,4 km/h (2 Bft) 91,67 %
02.07.2016 16:45 23,9 C 67 % 1010,6 hPa 0,0 l/m 2,2 km/h (1 Bft) NW 305 0 min 0,000 mm 0,5 UV-I 96 W/m 17,4 C 23,9 C 3,2 km/h (1 Bft) 100,00 %
02.07.2016 16:46 23,9 C 68 % 1010,7 hPa 0,0 l/m 1,3 km/h (1 Bft) NW 305 0 min 0,000 mm 0,3 UV-I 86 W/m 17,6 C 23,9 C 3,2 km/h (1 Bft) 100,00 %
02.07.2016 16:47 23,9 C 68 % 1010,8 hPa 0,0 l/m 1,6 km/h (1 Bft) W 276 0 min 0,000 mm 0,0 UV-I 77 W/m 17,6 C 23,9 C 3,2 km/h (1 Bft) 95,65 %
02.07.2016 16:48 23,9 C 68 % 1010,8 hPa 0,0 l/m 5,9 km/h (2 Bft) W 274 0 min 0,000 mm 0,0 UV-I 68 W/m 17,6 C 23,9 C 11,3 km/h (2 Bft) 100,00 %
02.07.2016 16:49 23,9 C 66 % 1010,9 hPa 0,0 l/m 3,3 km/h (1 Bft) NW 309 0 min 0,000 mm 0,0 UV-I 59 W/m 17,1 C 23,9 C 6,4 km/h (2 Bft) 91,30 %
02.07.2016 16:50 23,9 C 68 % 1010,9 hPa 0,0 l/m 4,1 km/h (1 Bft) W-NW 298 0 min 0,000 mm 0,0 UV-I 51 W/m 17,6 C 23,9 C 6,4 km/h (2 Bft) 100,00 %
02.07.2016 16:51 23,9 C 68 % 1010,9 hPa 0,0 l/m 2,0 km/h (1 Bft) W-NW 291 0 min 0,000 mm 0,0 UV-I 47 W/m 17,6 C 23,9 C 3,2 km/h (1 Bft) 100,00 %
02.07.2016 16:52 23,8 C 68 % 1010,9 hPa 0,0 l/m 1,9 km/h (1 Bft) W-NW 291 0 min 0,000 mm 0,0 UV-I 45 W/m 17,5 C 23,8 C 3,2 km/h (1 Bft) 100,00 %
02.07.2016 16:53 23,8 C 67 % 1010,9 hPa 0,0 l/m 5,4 km/h (1 Bft) N-NO 21 0 min 0,000 mm 0,0 UV-I 44 W/m 17,3 C 23,8 C 12,9 km/h (3 Bft) 95,65 %
02.07.2016 16:54 23,7 C 68 % 1010,8 hPa 0,0 l/m 3,3 km/h (1 Bft) N 355 0 min 0,000 mm 0,0 UV-I 46 W/m 17,4 C 23,7 C 6,4 km/h (2 Bft) 100,00 %
02.07.2016 16:55 23,7 C 68 % 1010,8 hPa 0,0 l/m 2,0 km/h (1 Bft) N 355 0 min 0,000 mm 0,0 UV-I 47 W/m 17,4 C 23,7 C 3,2 km/h (1 Bft) 100,00 %
02.07.2016 16:56 23,6 C 69 % 1010,7 hPa 0,0 l/m 2,0 km/h (1 Bft) N-NW 335 0 min 0,000 mm 0,0 UV-I 49 W/m 17,6 C 23,6 C 3,2 km/h (1 Bft) 96,15 %
02.07.2016 16:57 23,6 C 69 % 1010,7 hPa 0,0 l/m 2,5 km/h (1 Bft) N-NO 22 0 min 0,000 mm 0,0 UV-I 49 W/m 17,6 C 23,6 C 4,8 km/h (1 Bft) 91,30 %
02.07.2016 16:58 23,5 C 70 % 1010,7 hPa 0,0 l/m 2,3 km/h (1 Bft) NW 316 0 min 0,000 mm 0,0 UV-I 48 W/m 17,7 C 23,5 C 4,8 km/h (1 Bft) 100,00 %
02.07.2016 16:59 23,4 C 70 % 1010,7 hPa 0,0 l/m 3,5 km/h (1 Bft) S-SW 195 0 min 0,000 mm 0,0 UV-I 47 W/m 17,6 C 23,4 C 6,4 km/h (2 Bft) 100,00 %
02.07.2016 17:00 23,4 C 69 % 1010,7 hPa 0,0 l/m 1,9 km/h (1 Bft) NW 304 0 min 0,000 mm 0,0 UV-I 47 W/m 17,4 C 23,4 C 3,2 km/h (1 Bft) 100,00 %
02.07.2016 17:01 23,4 C 70 % 1010,6 hPa 0,0 l/m 4,9 km/h (1 Bft) NW 313 0 min 0,152 mm 0,0 UV-I 49 W/m 17,6 C 23,4 C 9,7 km/h (2 Bft) 100,00 %
02.07.2016 17:02 23,3 C 69 % 1010,6 hPa 0,0 l/m 5,2 km/h (1 Bft) W 269 0 min 0,000 mm 0,0 UV-I 52 W/m 17,3 C 23,3 C 9,7 km/h (2 Bft) 100,00 %
02.07.2016 17:03 23,4 C 69 % 1010,6 hPa 0,0 l/m 2,5 km/h (1 Bft) N-NW 342 0 min 0,000 mm 0,0 UV-I 54 W/m 17,4 C 23,4 C 4,8 km/h (1 Bft) 95,83 %
02.07.2016 17:04 23,4 C 69 % 1010,5 hPa 0,0 l/m 2,7 km/h (1 Bft) W-NW 296 0 min 0,000 mm 0,0 UV-I 55 W/m 17,4 C 23,4 C 4,8 km/h (1 Bft) 100,00 %
02.07.2016 17:05 23,4 C 70 % 1010,5 hPa 0,0 l/m 1,6 km/h (1 Bft) W-NW 300 0 min 0,000 mm 0,0 UV-I 58 W/m 17,6 C 23,4 C 3,2 km/h (1 Bft) 100,00 %
02.07.2016 17:06 23,4 C 71 % 1010,5 hPa 0,0 l/m 0,6 km/h (0 Bft) W-NW 300 0 min 0,000 mm 0,0 UV-I 58 W/m 17,8 C 23,4 C 1,6 km/h (1 Bft) 100,00 %
02.07.2016 17:07 23,4 C 69 % 1010,6 hPa 0,0 l/m 3,2 km/h (1 Bft) SW 222 0 min 0,000 mm 0,0 UV-I 56 W/m 17,4 C 23,4 C 4,8 km/h (1 Bft) 100,00 %
02.07.2016 17:08 23,4 C 69 % 1010,6 hPa 0,0 l/m 5,4 km/h (1 Bft) W 273 0 min 0,000 mm 0,0 UV-I 54 W/m 17,4 C 23,4 C 12,9 km/h (3 Bft) 100,00 %
02.07.2016 17:09 23,4 C 70 % 1010,7 hPa 0,0 l/m 3,2 km/h (1 Bft) SW 234 0 min 0,000 mm 0,0 UV-I 52 W/m 17,6 C 23,4 C 8,0 km/h (2 Bft) 100,00 %
02.07.2016 17:10 23,5 C 68 % 1010,7 hPa 0,0 l/m 2,9 km/h (1 Bft) W-SW 241 0 min 0,000 mm 0,0 UV-I 48 W/m 17,2 C 23,5 C 6,4 km/h (2 Bft) 100,00 %
02.07.2016 17:11 23,5 C 69 % 1010,8 hPa 0,0 l/m 3,4 km/h (1 Bft) S-SW 200 0 min 0,000 mm 0,0 UV-I 46 W/m 17,5 C 23,5 C 6,4 km/h (2 Bft) 100,00 %
02.07.2016 17:12 23,5 C 68 % 1010,9 hPa 0,0 l/m 5,0 km/h (1 Bft) W-SW 242 0 min 0,000 mm 0,0 UV-I 44 W/m 17,2 C 23,5 C 6,4 km/h (2 Bft) 100,00 %
02.07.2016 17:13 23,5 C 68 % 1011,0 hPa 0,0 l/m 3,5 km/h (1 Bft) NW 304 0 min 0,000 mm 0,0 UV-I 42 W/m 17,2 C 23,5 C 6,4 km/h (2 Bft) 100,00 %
02.07.2016 17:14 23,5 C 69 % 1011,0 hPa 0,0 l/m 5,5 km/h (1 Bft) W-SW 247 0 min 0,000 mm 0,0 UV-I 40 W/m 17,5 C 23,5 C 9,7 km/h (2 Bft) 100,00 %
02.07.2016 17:15 23,5 C 68 % 1011,0 hPa 0,0 l/m 4,7 km/h (1 Bft) W-SW 249 0 min 0,000 mm 0,0 UV-I 39 W/m 17,2 C 23,5 C 8,0 km/h (2 Bft) 100,00 %
02.07.2016 17:16 23,5 C 68 % 1011,1 hPa 0,0 l/m 4,3 km/h (1 Bft) W-SW 248 0 min 0,000 mm 0,0 UV-I 38 W/m 17,2 C 23,5 C 6,4 km/h (2 Bft) 100,00 %
02.07.2016 17:17 23,5 C 68 % 1011,1 hPa 0,0 l/m 5,2 km/h (1 Bft) W-SW 245 0 min 0,000 mm 0,0 UV-I 37 W/m 17,2 C 23,5 C 9,7 km/h (2 Bft) 100,00 %
02.07.2016 17:18 23,5 C 67 % 1011,1 hPa 0,0 l/m 3,8 km/h (1 Bft) SW 229 0 min 0,000 mm 0,0 UV-I 37 W/m 17,0 C 23,5 C 6,4 km/h (2 Bft) 100,00 %
02.07.2016 17:19 23,6 C 67 % 1011,1 hPa 0,0 l/m 11,3 km/h (2 Bft) N-NW 335 0 min 0,000 mm 0,0 UV-I 35 W/m 17,1 C 22,3 C 16,1 km/h (3 Bft) 100,00 %
02.07.2016 17:20 23,6 C 68 % 1011,2 hPa 0,0 l/m 5,0 km/h (1 Bft) W 264 0 min 0,000 mm 0,0 UV-I 35 W/m 17,3 C 23,6 C 8,0 km/h (2 Bft) 100,00 %
02.07.2016 17:21 23,6 C 66 % 1011,1 hPa 0,0 l/m 8,4 km/h (2 Bft) SW 217 0 min 0,000 mm 0,0 UV-I 35 W/m 16,9 C 23,0 C 17,7 km/h (3 Bft) 95,65 %
02.07.2016 17:22 23,5 C 65 % 1011,1 hPa 0,0 l/m 8,0 km/h (2 Bft) W 267 0 min 0,000 mm 0,0 UV-I 35 W/m 16,5 C 23,0 C 14,5 km/h (3 Bft) 95,83 %
02.07.2016 17:23 23,6 C 65 % 1011,1 hPa 0,0 l/m 9,7 km/h (2 Bft) W 263 0 min 0,000 mm 0,0 UV-I 35 W/m 16,6 C 22,7 C 17,7 km/h (3 Bft) 84,62 %
02.07.2016 17:24 23,6 C 64 % 1011,1 hPa 0,0 l/m 1,5 km/h (1 Bft) SW 214 0 min 0,000 mm 0,0 UV-I 35 W/m 16,4 C 23,6 C 3,2 km/h (1 Bft) 100,00 %
02.07.2016 17:25 23,6 C 64 % 1011,2 hPa 0,0 l/m 4,4 km/h (1 Bft) W-SW 246 0 min 0,000 mm 0,0 UV-I 33 W/m 16,4 C 23,6 C 9,7 km/h (2 Bft) 95,65 %
02.07.2016 17:26 23,6 C 64 % 1011,2 hPa 0,0 l/m 3,7 km/h (1 Bft) W-SW 246 0 min 0,000 mm 0,0 UV-I 33 W/m 16,4 C 23,6 C 6,4 km/h (2 Bft) 100,00 %
02.07.2016 17:27 23,6 C 64 % 1011,2 hPa 0,0 l/m 6,1 km/h (2 Bft) W 277 0 min 0,000 mm 0,0 UV-I 33 W/m 16,4 C 23,6 C 12,9 km/h (3 Bft) 86,96 %
02.07.2016 17:28 23,6 C 64 % 1011,2 hPa 0,0 l/m 5,8 km/h (2 Bft) S 184 0 min 0,000 mm 0,0 UV-I 33 W/m 16,4 C 23,6 C 11,3 km/h (2 Bft) 91,67 %
02.07.2016 17:29 23,6 C 63 % 1011,2 hPa 0,0 l/m 11,2 km/h (2 Bft) SW 215 0 min 0,000 mm 0,0 UV-I 33 W/m 16,1 C 22,3 C 19,3 km/h (3 Bft) 100,00 %
02.07.2016 17:30 23,6 C 62 % 1011,2 hPa 0,0 l/m 15,3 km/h (3 Bft) W-SW 253 0 min 0,000 mm 0,0 UV-I 33 W/m 15,9 C 21,6 C 24,1 km/h (4 Bft) 95,83 %
02.07.2016 17:31 23,7 C 62 % 1011,2 hPa 0,0 l/m 7,9 km/h (2 Bft) SW 235 0 min 0,000 mm 0,0 UV-I 33 W/m 16,0 C 23,3 C 14,5 km/h (3 Bft) 95,65 %
02.07.2016 17:32 23,7 C 62 % 1011,2 hPa 0,0 l/m 9,4 km/h (2 Bft) SW 235 0 min 0,000 mm 0,0 UV-I 33 W/m 16,0 C 22,9 C 17,7 km/h (3 Bft) 95,83 %
02.07.2016 17:33 23,7 C 62 % 1011,2 hPa 0,0 l/m 14,6 km/h (3 Bft) W-SW 248 0 min 0,000 mm 0,0 UV-I 33 W/m 16,0 C 21,8 C 25,7 km/h (4 Bft) 95,65 %
02.07.2016 17:34 23,7 C 61 % 1011,1 hPa 0,0 l/m 9,6 km/h (2 Bft) W 274 0 min 0,000 mm 0,0 UV-I 33 W/m 15,7 C 22,8 C 14,5 km/h (3 Bft) 96,15 %
02.07.2016 17:35 23,7 C 60 % 1011,2 hPa 0,0 l/m 6,7 km/h (2 Bft) S-SW 207 0 min 0,000 mm 0,0 UV-I 33 W/m 15,5 C 23,6 C 12,9 km/h (3 Bft) 95,65 %
02.07.2016 17:36 23,7 C 60 % 1011,2 hPa 0,0 l/m 7,1 km/h (2 Bft) W-SW 246 0 min 0,000 mm 0,0 UV-I 32 W/m 15,5 C 23,5 C 11,3 km/h (2 Bft) 100,00 %
02.07.2016 17:37 23,7 C 61 % 1011,2 hPa 0,0 l/m 8,3 km/h (2 Bft) W-SW 244 0 min 0,000 mm 0,0 UV-I 30 W/m 15,7 C 23,2 C 16,1 km/h (3 Bft) 91,30 %
02.07.2016 17:38 23,7 C 61 % 1011,3 hPa 0,0 l/m 4,7 km/h (1 Bft) W-NW 287 0 min 0,000 mm 0,0 UV-I 29 W/m 15,7 C 23,7 C 8,0 km/h (2 Bft) 100,00 %
02.07.2016 17:39 23,7 C 61 % 1011,3 hPa 0,0 l/m 9,8 km/h (2 Bft) W-SW 249 0 min 0,000 mm 0,0 UV-I 27 W/m 15,7 C 22,8 C 17,7 km/h (3 Bft) 95,65 %
02.07.2016 17:40 23,7 C 61 % 1011,3 hPa 0,0 l/m 9,4 km/h (2 Bft) W-SW 255 0 min 0,000 mm 0,0 UV-I 25 W/m 15,7 C 22,9 C 19,3 km/h (3 Bft) 100,00 %
02.07.2016 17:41 23,7 C 61 % 1011,4 hPa 0,0 l/m 12,8 km/h (3 Bft) N-NW 334 0 min 0,000 mm 0,0 UV-I 25 W/m 15,7 C 22,1 C 19,3 km/h (3 Bft) 95,65 %
02.07.2016 17:42 23,7 C 61 % 1011,4 hPa 0,0 l/m 7,6 km/h (2 Bft) W-SW 244 0 min 0,000 mm 0,0 UV-I 23 W/m 15,7 C 23,3 C 17,7 km/h (3 Bft) 91,67 %
02.07.2016 17:43 23,6 C 61 % 1011,4 hPa 0,0 l/m 5,4 km/h (1 Bft) W-NW 288 0 min 0,000 mm 0,0 UV-I 20 W/m 15,6 C 23,6 C 9,7 km/h (2 Bft) 100,00 %
02.07.2016 17:44 23,6 C 62 % 1011,4 hPa 0,0 l/m 8,1 km/h (2 Bft) W 273 0 min 0,000 mm 0,0 UV-I 18 W/m 15,9 C 23,1 C 16,1 km/h (3 Bft) 95,83 %
02.07.2016 17:45 23,6 C 61 % 1011,5 hPa 0,0 l/m 7,0 km/h (2 Bft) W 265 0 min 0,000 mm 0,0 UV-I 18 W/m 15,6 C 23,4 C 17,7 km/h (3 Bft) 100,00 %
02.07.2016 17:46 23,6 C 61 % 1011,5 hPa 0,0 l/m 4,9 km/h (1 Bft) W 279 0 min 0,000 mm 0,0 UV-I 16 W/m 15,6 C 23,6 C 9,7 km/h (2 Bft) 95,65 %
02.07.2016 17:47 23,6 C 62 % 1011,5 hPa 0,0 l/m 9,2 km/h (2 Bft) SW 235 0 min 0,000 mm 0,0 UV-I 16 W/m 15,9 C 22,8 C 20,9 km/h (4 Bft) 100,00 %
02.07.2016 17:48 23,5 C 61 % 1011,5 hPa 0,0 l/m 9,4 km/h (2 Bft) W-NW 295 0 min 0,000 mm 0,0 UV-I 16 W/m 15,5 C 22,7 C 16,1 km/h (3 Bft) 91,43 %
02.07.2016 17:49 23,5 C 62 % 1011,5 hPa 0,0 l/m 4,6 km/h (1 Bft) S 187 0 min 0,000 mm 0,0 UV-I 16 W/m 15,8 C 23,5 C 8,0 km/h (2 Bft) 100,00 %
02.07.2016 17:50 23,4 C 62 % 1011,5 hPa 0,0 l/m 4,3 km/h (1 Bft) W 275 0 min 0,000 mm 0,0 UV-I 16 W/m 15,7 C 23,4 C 11,3 km/h (2 Bft) 95,65 %
02.07.2016 17:51 23,4 C 62 % 1011,5 hPa 0,0 l/m 2,0 km/h (1 Bft) W-SW 241 0 min 0,000 mm 0,0 UV-I 16 W/m 15,7 C 23,4 C 6,4 km/h (2 Bft) 100,00 %
02.07.2016 17:52 23,4 C 63 % 1011,6 hPa 0,0 l/m 1,6 km/h (1 Bft) NW 326 0 min 0,000 mm 0,0 UV-I 16 W/m 15,9 C 23,4 C 4,8 km/h (1 Bft) 95,65 %
02.07.2016 17:54 23,3 C 64 % 1011,6 hPa 0,0 l/m 3,6 km/h (1 Bft) W-SW 248 0 min 0,000 mm 0,0 UV-I 16 W/m 16,1 C 23,3 C 11,3 km/h (2 Bft) 97,87 %
02.07.2016 17:56 23,3 C 64 % 1011,6 hPa 0,0 l/m 7,2 km/h (2 Bft) S-SW 209 0 min 0,000 mm 0,0 UV-I 14 W/m 16,1 C 23,1 C 11,3 km/h (2 Bft) 93,75 %
02.07.2016 17:58 23,2 C 65 % 1011,7 hPa 0,0 l/m 3,2 km/h (1 Bft) W 274 0 min 0,000 mm 0,0 UV-I 14 W/m 16,2 C 23,2 C 9,7 km/h (2 Bft) 100,00 %
02.07.2016 18:00 23,2 C 65 % 1011,8 hPa 0,0 l/m 7,3 km/h (2 Bft) W-SW 245 0 min 0,051 mm 0,0 UV-I 14 W/m 16,2 C 22,9 C 19,3 km/h (3 Bft) 95,74 %
02.07.2016 18:02 23,1 C 66 % 1011,8 hPa 0,0 l/m 12,1 km/h (2 Bft) NW 316 0 min 0,000 mm 0,0 UV-I 14 W/m 16,4 C 21,6 C 22,5 km/h (4 Bft) 100,00 %
02.07.2016 18:04 22,9 C 67 % 1011,8 hPa 0,0 l/m 5,9 km/h (2 Bft) W 259 0 min 0,000 mm 0,0 UV-I 14 W/m 16,4 C 22,9 C 17,7 km/h (3 Bft) 97,87 %
02.07.2016 18:06 22,8 C 67 % 1011,9 hPa 0,0 l/m 5,9 km/h (2 Bft) W 279 0 min 0,000 mm 0,0 UV-I 13 W/m 16,3 C 22,8 C 11,3 km/h (2 Bft) 100,00 %
02.07.2016 18:08 22,7 C 67 % 1012,0 hPa 0,0 l/m 6,5 km/h (2 Bft) W 275 0 min 0,000 mm 0,0 UV-I 12 W/m 16,2 C 22,7 C 11,3 km/h (2 Bft) 100,00 %
02.07.2016 18:10 22,7 C 68 % 1012,1 hPa 0,0 l/m 5,1 km/h (1 Bft) SW 234 0 min 0,000 mm 0,0 UV-I 12 W/m 16,5 C 22,7 C 9,7 km/h (2 Bft) 97,87 %
02.07.2016 18:12 22,6 C 68 % 1012,0 hPa 0,0 l/m 7,6 km/h (2 Bft) W-NW 297 0 min 0,000 mm 0,0 UV-I 13 W/m 16,4 C 22,2 C 12,9 km/h (3 Bft) 97,87 %
02.07.2016 18:14 22,5 C 70 % 1012,1 hPa 0,0 l/m 6,0 km/h (2 Bft) W-SW 251 0 min 0,000 mm 0,0 UV-I 14 W/m 16,7 C 22,5 C 11,3 km/h (2 Bft) 97,87 %
02.07.2016 18:16 22,4 C 70 % 1012,1 hPa 0,0 l/m 6,8 km/h (2 Bft) SW 235 0 min 0,000 mm 0,0 UV-I 14 W/m 16,7 C 22,3 C 11,3 km/h (2 Bft) 98,00 %
02.07.2016 18:18 22,2 C 72 % 1012,3 hPa 0,2 l/m 6,2 km/h (2 Bft) S-SW 198 0 min 0,000 mm 0,0 UV-I 13 W/m 16,9 C 22,2 C 9,7 km/h (2 Bft) 100,00 %
02.07.2016 18:20 22,1 C 73 % 1012,3 hPa 0,0 l/m 6,6 km/h (2 Bft) W-SW 238 0 min 0,000 mm 0,0 UV-I 12 W/m 17,0 C 22,0 C 12,9 km/h (3 Bft) 100,00 %
02.07.2016 18:22 21,9 C 73 % 1012,4 hPa 0,0 l/m 9,4 km/h (2 Bft) W 274 0 min 0,000 mm 0,0 UV-I 11 W/m 16,8 C 20,9 C 17,7 km/h (3 Bft) 97,37 %
02.07.2016 18:24 21,8 C 73 % 1012,4 hPa 0,0 l/m 10,2 km/h (2 Bft) W-SW 242 0 min 0,000 mm 0,0 UV-I 11 W/m 16,7 C 20,6 C 30,6 km/h (5 Bft) 100,00 %
02.07.2016 18:26 21,7 C 75 % 1012,5 hPa 0,0 l/m 7,3 km/h (2 Bft) W-SW 242 0 min 0,000 mm 0,0 UV-I 11 W/m 17,1 C 21,4 C 11,3 km/h (2 Bft) 100,00 %
02.07.2016 18:28 21,6 C 75 % 1012,6 hPa 0,0 l/m 7,8 km/h (2 Bft) W-NW 282 0 min 0,000 mm 0,0 UV-I 11 W/m 17,0 C 21,1 C 12,9 km/h (3 Bft) 100,00 %
02.07.2016 18:30 21,6 C 76 % 1012,7 hPa 0,0 l/m 6,6 km/h (2 Bft) W-NW 288 0 min 0,000 mm 0,0 UV-I 11 W/m 17,2 C 21,5 C 11,3 km/h (2 Bft) 100,00 %
02.07.2016 18:32 21,5 C 76 % 1012,7 hPa 0,0 l/m 6,2 km/h (2 Bft) W 265 0 min 0,000 mm 0,0 UV-I 11 W/m 17,1 C 21,5 C 11,3 km/h (2 Bft) 97,92 %
02.07.2016 18:34 21,4 C 76 % 1012,8 hPa 0,0 l/m 6,1 km/h (2 Bft) W-SW 240 0 min 0,000 mm 0,0 UV-I 11 W/m 17,0 C 21,4 C 12,9 km/h (3 Bft) 100,00 %
02.07.2016 18:36 21,3 C 78 % 1012,8 hPa 0,0 l/m 7,8 km/h (2 Bft) W-SW 254 0 min 0,000 mm 0,0 UV-I 11 W/m 17,3 C 20,8 C 11,3 km/h (2 Bft) 100,00 %
02.07.2016 18:38 21,2 C 79 % 1012,8 hPa 0,0 l/m 9,0 km/h (2 Bft) W 276 0 min 0,000 mm 0,0 UV-I 11 W/m 17,4 C 20,3 C 12,9 km/h (3 Bft) 97,87 %
02.07.2016 18:40 21,2 C 78 % 1012,8 hPa 0,0 l/m 7,7 km/h (2 Bft) W 261 0 min 0,000 mm 0,0 UV-I 11 W/m 17,2 C 20,7 C 12,9 km/h (3 Bft) 95,83 %
02.07.2016 18:42 21,1 C 79 % 1012,9 hPa 0,0 l/m 6,7 km/h (2 Bft) W-SW 251 0 min 0,000 mm 0,0 UV-I 11 W/m 17,3 C 21,0 C 11,3 km/h (2 Bft) 100,00 %
02.07.2016 18:44 20,9 C 80 % 1013,0 hPa 0,0 l/m 10,1 km/h (2 Bft) W-SW 243 0 min 0,000 mm 0,0 UV-I 11 W/m 17,3 C 19,6 C 17,7 km/h (3 Bft) 100,00 %
02.07.2016 18:46 20,8 C 81 % 1013,1 hPa 0,0 l/m 9,8 km/h (2 Bft) W-SW 256 0 min 0,000 mm 0,0 UV-I 11 W/m 17,4 C 19,6 C 16,1 km/h (3 Bft) 100,00 %
02.07.2016 18:48 20,7 C 83 % 1013,2 hPa 0,2 l/m 10,5 km/h (2 Bft) W-SW 242 0 min 0,000 mm 0,0 UV-I 11 W/m 17,7 C 19,3 C 17,7 km/h (3 Bft) 97,87 %
02.07.2016 18:50 20,6 C 84 % 1013,3 hPa 0,0 l/m 11,9 km/h (2 Bft) W 274 0 min 0,000 mm 0,0 UV-I 9 W/m 17,8 C 18,7 C 17,7 km/h (3 Bft) 97,87 %
02.07.2016 18:52 20,4 C 84 % 1013,4 hPa 0,0 l/m 11,5 km/h (2 Bft) W-SW 252 0 min 0,000 mm 0,0 UV-I 9 W/m 17,6 C 18,6 C 19,3 km/h (3 Bft) 100,00 %
02.07.2016 18:54 20,3 C 86 % 1013,5 hPa 0,2 l/m 10,6 km/h (2 Bft) W-SW 256 0 min 0,000 mm 0,0 UV-I 7 W/m 17,9 C 18,8 C 16,1 km/h (3 Bft) 100,00 %
02.07.2016 18:56 20,2 C 86 % 1013,5 hPa 0,0 l/m 7,5 km/h (2 Bft) W-SW 246 0 min 0,000 mm 0,0 UV-I 7 W/m 17,8 C 19,8 C 11,3 km/h (2 Bft) 97,87 %
02.07.2016 18:58 20,1 C 87 % 1013,6 hPa 0,0 l/m 8,2 km/h (2 Bft) W 279 0 min 0,000 mm 0,0 UV-I 7 W/m 17,9 C 19,4 C 14,5 km/h (3 Bft) 98,00 %
02.07.2016 19:00 19,9 C 87 % 1013,7 hPa 0,0 l/m 7,9 km/h (2 Bft) W-SW 253 0 min 0,051 mm 0,0 UV-I 7 W/m 17,7 C 19,3 C 12,9 km/h (3 Bft) 100,00 %
02.07.2016 19:02 19,8 C 87 % 1013,8 hPa 0,2 l/m 9,8 km/h (2 Bft) W-SW 246 0 min 0,000 mm 0,0 UV-I 7 W/m 17,6 C 18,5 C 17,7 km/h (3 Bft) 97,87 %
02.07.2016 19:04 19,8 C 88 % 1013,9 hPa 0,2 l/m 9,9 km/h (2 Bft) W 261 0 min 0,000 mm 0,0 UV-I 7 W/m 17,8 C 18,5 C 19,3 km/h (3 Bft) 100,00 %
02.07.2016 19:06 19,7 C 89 % 1013,9 hPa 0,0 l/m 15,3 km/h (3 Bft) W 263 0 min 0,000 mm 0,0 UV-I 7 W/m 17,8 C 16,8 C 25,7 km/h (4 Bft) 100,00 %
02.07.2016 19:08 19,6 C 88 % 1013,9 hPa 0,2 l/m 11,7 km/h (2 Bft) W 275 0 min 0,000 mm 0,0 UV-I 7 W/m 17,6 C 17,7 C 17,7 km/h (3 Bft) 95,74 %
02.07.2016 19:10 19,5 C 88 % 1013,9 hPa 0,0 l/m 10,4 km/h (2 Bft) W-SW 257 0 min 0,000 mm 0,0 UV-I 7 W/m 17,5 C 18,0 C 16,1 km/h (3 Bft) 100,00 %
02.07.2016 19:12 19,4 C 88 % 1013,9 hPa 0,2 l/m 10,1 km/h (2 Bft) W 270 0 min 0,000 mm 0,0 UV-I 7 W/m 17,4 C 17,9 C 16,1 km/h (3 Bft) 97,87 %
02.07.2016 19:14 19,3 C 89 % 1013,9 hPa 0,0 l/m 6,9 km/h (2 Bft) W-SW 252 0 min 0,000 mm 0,0 UV-I 7 W/m 17,4 C 19,1 C 11,3 km/h (2 Bft) 97,87 %
02.07.2016 19:16 19,2 C 89 % 1013,9 hPa 0,2 l/m 8,4 km/h (2 Bft) W 275 0 min 0,000 mm 0,0 UV-I 7 W/m 17,3 C 18,4 C 14,5 km/h (3 Bft) 100,00 %
02.07.2016 19:18 19,2 C 90 % 1013,8 hPa 0,2 l/m 8,9 km/h (2 Bft) W-SW 245 0 min 0,000 mm 0,0 UV-I 7 W/m 17,5 C 18,2 C 14,5 km/h (3 Bft) 95,83 %
02.07.2016 19:20 19,1 C 91 % 1013,8 hPa 0,0 l/m 11,4 km/h (2 Bft) W 259 0 min 0,000 mm 0,0 UV-I 7 W/m 17,6 C 17,2 C 17,7 km/h (3 Bft) 96,00 %
02.07.2016 19:22 19,0 C 91 % 1013,8 hPa 0,2 l/m 10,6 km/h (2 Bft) W 259 0 min 0,000 mm 0,0 UV-I 7 W/m 17,5 C 17,3 C 17,7 km/h (3 Bft) 93,62 %
02.07.2016 19:24 18,9 C 91 % 1013,8 hPa 0,2 l/m 10,3 km/h (2 Bft) W-SW 248 0 min 0,000 mm 0,0 UV-I 9 W/m 17,4 C 17,3 C 14,5 km/h (3 Bft) 98,00 %
02.07.2016 19:26 18,9 C 91 % 1013,8 hPa 0,0 l/m 13,0 km/h (3 Bft) W-SW 248 0 min 0,000 mm 0,0 UV-I 9 W/m 17,4 C 16,5 C 19,3 km/h (3 Bft) 93,62 %
02.07.2016 19:28 18,8 C 92 % 1013,7 hPa 0,0 l/m 12,7 km/h (3 Bft) W 261 0 min 0,000 mm 0,0 UV-I 11 W/m 17,5 C 16,4 C 17,7 km/h (3 Bft) 97,56 %
02.07.2016 19:30 18,8 C 92 % 1013,7 hPa 0,2 l/m 13,7 km/h (3 Bft) W-SW 250 0 min 0,000 mm 0,0 UV-I 11 W/m 17,5 C 16,1 C 19,3 km/h (3 Bft) 95,74 %
02.07.2016 19:32 18,8 C 92 % 1013,8 hPa 0,0 l/m 11,4 km/h (2 Bft) W-SW 257 0 min 0,000 mm 0,0 UV-I 12 W/m 17,5 C 16,8 C 17,7 km/h (3 Bft) 97,87 %
02.07.2016 19:34 18,7 C 92 % 1013,7 hPa 0,2 l/m 12,4 km/h (3 Bft) W-SW 252 0 min 0,000 mm 0,0 UV-I 13 W/m 17,4 C 16,4 C 19,3 km/h (3 Bft) 98,00 %
02.07.2016 19:36 18,7 C 92 % 1013,8 hPa 0,0 l/m 9,6 km/h (2 Bft) SW 231 0 min 0,000 mm 0,0 UV-I 15 W/m 17,4 C 17,4 C 16,1 km/h (3 Bft) 97,87 %
02.07.2016 19:38 18,6 C 93 % 1013,8 hPa 0,0 l/m 11,0 km/h (2 Bft) W-NW 301 0 min 0,000 mm 0,0 UV-I 17 W/m 17,4 C 16,7 C 17,7 km/h (3 Bft) 97,87 %
02.07.2016 19:40 18,6 C 93 % 1013,8 hPa 0,0 l/m 11,6 km/h (2 Bft) SW 227 0 min 0,000 mm 0,0 UV-I 19 W/m 17,4 C 16,5 C 19,3 km/h (3 Bft) 97,87 %
02.07.2016 19:42 18,6 C 93 % 1013,9 hPa 0,0 l/m 13,6 km/h (3 Bft) W-SW 258 0 min 0,000 mm 0,0 UV-I 21 W/m 17,4 C 15,9 C 20,9 km/h (4 Bft) 97,87 %
02.07.2016 19:44 18,6 C 93 % 1013,9 hPa 0,0 l/m 11,1 km/h (2 Bft) W 267 0 min 0,000 mm 0,0 UV-I 22 W/m 17,4 C 16,7 C 17,7 km/h (3 Bft) 95,74 %
02.07.2016 19:46 18,5 C 93 % 1014,0 hPa 0,2 l/m 13,7 km/h (3 Bft) W-SW 240 0 min 0,000 mm 0,0 UV-I 25 W/m 17,3 C 15,8 C 20,9 km/h (4 Bft) 98,00 %
02.07.2016 19:48 18,4 C 93 % 1014,0 hPa 0,0 l/m 13,4 km/h (3 Bft) W-SW 239 0 min 0,000 mm 0,0 UV-I 26 W/m 17,2 C 15,8 C 20,9 km/h (4 Bft) 94,29 %
02.07.2016 19:50 18,4 C 93 % 1014,0 hPa 0,2 l/m 11,4 km/h (2 Bft) W 279 0 min 0,000 mm 0,0 UV-I 27 W/m 17,2 C 16,4 C 16,1 km/h (3 Bft) 97,87 %
02.07.2016 19:52 18,4 C 93 % 1014,0 hPa 0,0 l/m 12,6 km/h (3 Bft) W-SW 254 0 min 0,000 mm 0,0 UV-I 28 W/m 17,2 C 16,0 C 19,3 km/h (3 Bft) 100,00 %
02.07.2016 19:54 18,4 C 93 % 1014,0 hPa 0,2 l/m 11,0 km/h (2 Bft) W-SW 243 0 min 0,000 mm 0,0 UV-I 29 W/m 17,2 C 16,5 C 17,7 km/h (3 Bft) 97,87 %
02.07.2016 19:56 18,3 C 93 % 1014,1 hPa 0,2 l/m 12,7 km/h (3 Bft) W 273 0 min 0,000 mm 0,0 UV-I 30 W/m 17,1 C 15,9 C 19,3 km/h (3 Bft) 100,00 %
02.07.2016 19:58 18,3 C 93 % 1014,2 hPa 0,0 l/m 11,1 km/h (2 Bft) W 266 0 min 0,000 mm 0,0 UV-I 30 W/m 17,1 C 16,4 C 19,3 km/h (3 Bft) 100,00 %
02.07.2016 20:00 18,3 C 93 % 1014,3 hPa 0,0 l/m 9,4 km/h (2 Bft) SW 224 0 min 0,000 mm 0,0 UV-I 32 W/m 17,1 C 17,0 C 17,7 km/h (3 Bft) 94,00 %
02.07.2016 20:02 18,3 C 93 % 1014,3 hPa 0,0 l/m 9,7 km/h (2 Bft) W 263 0 min 0,025 mm 0,0 UV-I 30 W/m 17,1 C 16,9 C 14,5 km/h (3 Bft) 97,87 %
02.07.2016 20:04 18,3 C 93 % 1014,4 hPa 0,2 l/m 11,1 km/h (2 Bft) W 273 0 min 0,000 mm 0,0 UV-I 28 W/m 17,1 C 16,4 C 19,3 km/h (3 Bft) 98,00 %
02.07.2016 20:06 18,3 C 93 % 1014,4 hPa 0,0 l/m 9,6 km/h (2 Bft) W-NW 282 0 min 0,000 mm 0,0 UV-I 26 W/m 17,1 C 16,9 C 16,1 km/h (3 Bft) 100,00 %
02.07.2016 20:08 18,3 C 93 % 1014,4 hPa 0,0 l/m 6,7 km/h (2 Bft) SW 232 0 min 0,000 mm 0,0 UV-I 26 W/m 17,1 C 18,2 C 11,3 km/h (2 Bft) 97,87 %
02.07.2016 20:10 18,3 C 93 % 1014,4 hPa 0,0 l/m 9,7 km/h (2 Bft) W-SW 246 0 min 0,000 mm 0,0 UV-I 25 W/m 17,1 C 16,9 C 16,1 km/h (3 Bft) 100,00 %
02.07.2016 20:12 18,3 C 93 % 1014,5 hPa 0,2 l/m 9,2 km/h (2 Bft) W-SW 244 0 min 0,000 mm 0,0 UV-I 25 W/m 17,1 C 17,1 C 14,5 km/h (3 Bft) 97,87 %
02.07.2016 20:14 18,3 C 93 % 1014,5 hPa 0,0 l/m 10,2 km/h (2 Bft) W-SW 240 0 min 0,000 mm 0,0 UV-I 22 W/m 17,1 C 16,7 C 16,1 km/h (3 Bft) 100,00 %
02.07.2016 20:16 18,3 C 93 % 1014,6 hPa 0,0 l/m 9,5 km/h (2 Bft) W-SW 248 0 min 0,000 mm 0,0 UV-I 20 W/m 17,1 C 17,0 C 20,9 km/h (4 Bft) 100,00 %
02.07.2016 20:18 18,2 C 92 % 1014,5 hPa 0,0 l/m 8,3 km/h (2 Bft) W 263 0 min 0,000 mm 0,0 UV-I 19 W/m 16,9 C 17,3 C 16,1 km/h (3 Bft) 98,00 %
02.07.2016 20:20 18,2 C 92 % 1014,5 hPa 0,0 l/m 7,7 km/h (2 Bft) W-SW 242 0 min 0,000 mm 0,0 UV-I 18 W/m 16,9 C 17,6 C 12,9 km/h (3 Bft) 100,00 %
02.07.2016 20:22 18,2 C 91 % 1014,5 hPa 0,0 l/m 9,2 km/h (2 Bft) W-SW 250 0 min 0,000 mm 0,0 UV-I 17 W/m 16,7 C 17,0 C 17,7 km/h (3 Bft) 97,87 %
02.07.2016 20:24 18,2 C 91 % 1014,6 hPa 0,0 l/m 5,8 km/h (2 Bft) W-NW 282 0 min 0,000 mm 0,0 UV-I 14 W/m 16,7 C 18,2 C 9,7 km/h (2 Bft) 93,62 %
02.07.2016 20:26 18,2 C 91 % 1014,6 hPa 0,0 l/m 7,9 km/h (2 Bft) W-SW 258 0 min 0,000 mm 0,0 UV-I 12 W/m 16,7 C 17,5 C 12,9 km/h (3 Bft) 100,00 %
02.07.2016 20:28 18,1 C 91 % 1014,7 hPa 0,0 l/m 8,2 km/h (2 Bft) W 262 0 min 0,000 mm 0,0 UV-I 11 W/m 16,6 C 17,3 C 14,5 km/h (3 Bft) 97,87 %
02.07.2016 20:30 18,1 C 91 % 1014,7 hPa 0,0 l/m 8,7 km/h (2 Bft) W-SW 248 0 min 0,000 mm 0,0 UV-I 8 W/m 16,6 C 17,1 C 14,5 km/h (3 Bft) 100,00 %
02.07.2016 20:32 18,1 C 91 % 1014,8 hPa 0,0 l/m 8,0 km/h (2 Bft) W 261 0 min 0,000 mm 0,0 UV-I 7 W/m 16,6 C 17,4 C 11,3 km/h (2 Bft) 100,00 %
02.07.2016 20:34 18,1 C 91 % 1014,8 hPa 0,0 l/m 6,5 km/h (2 Bft) W-SW 255 0 min 0,000 mm 0,0 UV-I 7 W/m 16,6 C 18,1 C 9,7 km/h (2 Bft) 100,00 %
02.07.2016 20:36 18,1 C 91 % 1014,8 hPa 0,0 l/m 8,4 km/h (2 Bft) W 269 0 min 0,000 mm 0,0 UV-I 7 W/m 16,6 C 17,2 C 14,5 km/h (3 Bft) 100,00 %
02.07.2016 20:38 18,0 C 91 % 1014,8 hPa 0,0 l/m 5,0 km/h (1 Bft) W 273 0 min 0,000 mm 0,0 UV-I 7 W/m 16,5 C 18,0 C 9,7 km/h (2 Bft) 100,00 %
02.07.2016 20:40 17,9 C 91 % 1014,9 hPa 0,0 l/m 5,9 km/h (2 Bft) W-NW 298 0 min 0,000 mm 0,0 UV-I 5 W/m 16,4 C 17,9 C 9,7 km/h (2 Bft) 98,00 %
02.07.2016 20:42 17,9 C 92 % 1014,9 hPa 0,0 l/m 4,8 km/h (1 Bft) W 264 0 min 0,000 mm 0,0 UV-I 5 W/m 16,6 C 17,9 C 11,3 km/h (2 Bft) 97,87 %
02.07.2016 20:44 17,9 C 92 % 1014,9 hPa 0,0 l/m 5,2 km/h (1 Bft) W-SW 250 0 min 0,000 mm 0,0 UV-I 0 W/m 16,6 C 17,9 C 9,7 km/h (2 Bft) 97,87 %
02.07.2016 20:46 17,9 C 92 % 1014,9 hPa 0,0 l/m 5,2 km/h (1 Bft) W 259 0 min 0,000 mm 0,0 UV-I 0 W/m 16,6 C 17,9 C 9,7 km/h (2 Bft) 97,87 %
02.07.2016 20:48 17,9 C 92 % 1014,9 hPa 0,0 l/m 4,9 km/h (1 Bft) W 259 0 min 0,000 mm 0,0 UV-I 0 W/m 16,6 C 17,9 C 9,7 km/h (2 Bft) 96,00 %
02.07.2016 20:50 17,8 C 92 % 1015,0 hPa 0,0 l/m 3,9 km/h (1 Bft) W-SW 255 0 min 0,000 mm 0,0 UV-I 0 W/m 16,5 C 17,8 C 9,7 km/h (2 Bft) 100,00 %
02.07.2016 20:52 17,8 C 92 % 1015,0 hPa 0,0 l/m 3,3 km/h (1 Bft) W-NW 284 0 min 0,000 mm 0,0 UV-I 0 W/m 16,5 C 17,8 C 4,8 km/h (1 Bft) 100,00 %
02.07.2016 20:54 17,8 C 93 % 1015,0 hPa 0,0 l/m 4,3 km/h (1 Bft) W-SW 251 0 min 0,000 mm 0,0 UV-I 0 W/m 16,7 C 17,8 C 9,7 km/h (2 Bft) 100,00 %
02.07.2016 20:56 17,8 C 92 % 1015,0 hPa 0,2 l/m 4,9 km/h (1 Bft) W-SW 257 0 min 0,000 mm 0,0 UV-I 0 W/m 16,5 C 17,8 C 9,7 km/h (2 Bft) 100,00 %
02.07.2016 20:58 17,8 C 93 % 1015,1 hPa 0,0 l/m 3,7 km/h (1 Bft) W-SW 255 0 min 0,000 mm 0,0 UV-I 0 W/m 16,7 C 17,8 C 6,4 km/h (2 Bft) 95,74 %
02.07.2016 21:00 17,8 C 93 % 1015,2 hPa 0,0 l/m 4,4 km/h (1 Bft) W-SW 244 0 min 0,026 mm 0,0 UV-I 0 W/m 16,7 C 17,8 C 6,4 km/h (2 Bft) 97,87 %
02.07.2016 21:02 17,8 C 93 % 1015,2 hPa 0,0 l/m 3,4 km/h (1 Bft) W-NW 282 0 min 0,000 mm 0,0 UV-I 0 W/m 16,7 C 17,8 C 6,4 km/h (2 Bft) 98,00 %
02.07.2016 21:04 17,7 C 93 % 1015,3 hPa 0,0 l/m 3,3 km/h (1 Bft) W-SW 242 0 min 0,000 mm 0,0 UV-I 0 W/m 16,6 C 17,7 C 6,4 km/h (2 Bft) 100,00 %
02.07.2016 21:06 17,7 C 93 % 1015,3 hPa 0,0 l/m 4,4 km/h (1 Bft) W 275 0 min 0,000 mm 0,0 UV-I 0 W/m 16,6 C 17,7 C 6,4 km/h (2 Bft) 97,87 %
02.07.2016 21:08 17,7 C 93 % 1015,3 hPa 0,0 l/m 4,8 km/h (1 Bft) W-NW 284 0 min 0,000 mm 0,0 UV-I 0 W/m 16,6 C 17,7 C 6,4 km/h (2 Bft) 100,00 %
02.07.2016 21:10 17,8 C 93 % 1015,3 hPa 0,2 l/m 3,2 km/h (1 Bft) W 273 0 min 0,000 mm 0,0 UV-I 0 W/m 16,7 C 17,8 C 4,8 km/h (1 Bft) 97,87 %
02.07.2016 21:12 17,8 C 94 % 1015,4 hPa 0,0 l/m 3,3 km/h (1 Bft) W 259 0 min 0,000 mm 0,0 UV-I 0 W/m 16,8 C 17,8 C 4,8 km/h (1 Bft) 97,87 %
02.07.2016 21:14 17,8 C 94 % 1015,4 hPa 0,0 l/m 3,9 km/h (1 Bft) W-SW 242 0 min 0,000 mm 0,0 UV-I 0 W/m 16,8 C 17,8 C 6,4 km/h (2 Bft) 100,00 %
02.07.2016 21:16 17,8 C 94 % 1015,4 hPa 0,0 l/m 6,0 km/h (2 Bft) W 260 0 min 0,000 mm 0,0 UV-I 0 W/m 16,8 C 17,8 C 12,9 km/h (3 Bft) 93,62 %
02.07.2016 21:18 17,8 C 94 % 1015,5 hPa 0,2 l/m 4,8 km/h (1 Bft) W-NW 285 0 min 0,000 mm 0,0 UV-I 0 W/m 16,8 C 17,8 C 9,7 km/h (2 Bft) 97,87 %
02.07.2016 21:20 17,7 C 93 % 1015,5 hPa 0,2 l/m 4,5 km/h (1 Bft) W-SW 241 0 min 0,000 mm 0,0 UV-I 0 W/m 16,6 C 17,7 C 9,7 km/h (2 Bft) 97,92 %
02.07.2016 21:22 17,7 C 93 % 1015,6 hPa 0,0 l/m 5,0 km/h (1 Bft) W-NW 296 0 min 0,000 mm 0,0 UV-I 0 W/m 16,6 C 17,7 C 8,0 km/h (2 Bft) 97,87 %
02.07.2016 21:24 17,6 C 93 % 1015,6 hPa 0,0 l/m 4,3 km/h (1 Bft) W-NW 282 0 min 0,000 mm 0,0 UV-I 0 W/m 16,5 C 17,6 C 6,4 km/h (2 Bft) 97,87 %
02.07.2016 21:26 17,5 C 93 % 1015,6 hPa 0,0 l/m 4,1 km/h (1 Bft) W-SW 256 0 min 0,000 mm 0,0 UV-I 0 W/m 16,4 C 17,5 C 6,4 km/h (2 Bft) 97,87 %
02.07.2016 21:28 17,5 C 94 % 1015,6 hPa 0,0 l/m 5,0 km/h (1 Bft) W-SW 249 0 min 0,000 mm 0,0 UV-I 0 W/m 16,5 C 17,5 C 6,4 km/h (2 Bft) 95,74 %
02.07.2016 21:30 17,4 C 94 % 1015,6 hPa 0,2 l/m 7,3 km/h (2 Bft) W 260 0 min 0,000 mm 0,0 UV-I 0 W/m 16,4 C 17,0 C 11,3 km/h (2 Bft) 97,37 %
02.07.2016 21:32 17,4 C 94 % 1015,7 hPa 0,0 l/m 6,9 km/h (2 Bft) W 269 0 min 0,000 mm 0,0 UV-I 0 W/m 16,4 C 17,2 C 9,7 km/h (2 Bft) 96,00 %
02.07.2016 21:34 17,4 C 94 % 1015,7 hPa 0,0 l/m 7,4 km/h (2 Bft) W-SW 244 0 min 0,000 mm 0,0 UV-I 0 W/m 16,4 C 16,9 C 14,5 km/h (3 Bft) 97,87 %
02.07.2016 21:36 17,3 C 94 % 1015,8 hPa 0,2 l/m 5,3 km/h (1 Bft) W 263 0 min 0,000 mm 0,0 UV-I 0 W/m 16,3 C 17,3 C 9,7 km/h (2 Bft) 95,74 %
02.07.2016 21:38 17,3 C 94 % 1015,7 hPa 0,0 l/m 4,4 km/h (1 Bft) W-SW 250 0 min 0,000 mm 0,0 UV-I 0 W/m 16,3 C 17,3 C 8,0 km/h (2 Bft) 97,87 %
02.07.2016 21:40 17,3 C 94 % 1015,7 hPa 0,0 l/m 4,8 km/h (1 Bft) SW 236 0 min 0,000 mm 0,0 UV-I 0 W/m 16,3 C 17,3 C 6,4 km/h (2 Bft) 95,74 %
02.07.2016 21:42 17,2 C 94 % 1015,8 hPa 0,0 l/m 3,9 km/h (1 Bft) W-SW 246 0 min 0,000 mm 0,0 UV-I 0 W/m 16,2 C 17,2 C 9,7 km/h (2 Bft) 97,87 %
02.07.2016 21:44 17,2 C 94 % 1015,8 hPa 0,2 l/m 4,4 km/h (1 Bft) W-SW 250 0 min 0,000 mm 0,0 UV-I 0 W/m 16,2 C 17,2 C 6,4 km/h (2 Bft) 96,00 %
02.07.2016 21:46 17,2 C 94 % 1015,8 hPa 0,0 l/m 7,0 km/h (2 Bft) S-SW 213 0 min 0,000 mm 0,0 UV-I 0 W/m 16,2 C 16,9 C 9,7 km/h (2 Bft) 95,74 %
02.07.2016 21:48 17,2 C 94 % 1015,8 hPa 0,0 l/m 6,0 km/h (2 Bft) W-SW 241 0 min 0,000 mm 0,0 UV-I 0 W/m 16,2 C 17,2 C 9,7 km/h (2 Bft) 100,00 %
02.07.2016 21:50 17,2 C 94 % 1015,8 hPa 0,0 l/m 6,0 km/h (2 Bft) SW 236 0 min 0,000 mm 0,0 UV-I 0 W/m 16,2 C 17,2 C 8,0 km/h (2 Bft) 97,96 %
02.07.2016 21:52 17,2 C 94 % 1015,8 hPa 0,0 l/m 6,0 km/h (2 Bft) SW 229 0 min 0,000 mm 0,0 UV-I 0 W/m 16,2 C 17,2 C 8,0 km/h (2 Bft) 100,00 %
02.07.2016 21:54 17,2 C 94 % 1015,8 hPa 0,0 l/m 3,2 km/h (1 Bft) S-SW 207 0 min 0,000 mm 0,0 UV-I 0 W/m 16,2 C 17,2 C 4,8 km/h (1 Bft) 100,00 %
02.07.2016 21:56 17,1 C 94 % 1015,9 hPa 0,0 l/m 5,1 km/h (1 Bft) W-SW 245 0 min 0,000 mm 0,0 UV-I 0 W/m 16,1 C 17,1 C 8,0 km/h (2 Bft) 98,00 %
02.07.2016 21:58 17,2 C 95 % 1015,9 hPa 0,0 l/m 5,8 km/h (2 Bft) W-SW 248 0 min 0,000 mm 0,0 UV-I 0 W/m 16,4 C 17,2 C 9,7 km/h (2 Bft) 98,00 %
02.07.2016 22:00 17,1 C 94 % 1015,9 hPa 0,0 l/m 6,9 km/h (2 Bft) S-SW 209 0 min 0,000 mm 0,0 UV-I 0 W/m 16,1 C 16,9 C 9,7 km/h (2 Bft) 100,00 %
02.07.2016 22:02 17,1 C 94 % 1015,9 hPa 0,0 l/m 5,8 km/h (2 Bft) W 261 0 min 0,000 mm 0,0 UV-I 0 W/m 16,1 C 17,1 C 9,7 km/h (2 Bft) 94,00 %
02.07.2016 22:04 17,1 C 94 % 1016,1 hPa 0,0 l/m 7,3 km/h (2 Bft) W 264 0 min 0,000 mm 0,0 UV-I 0 W/m 16,1 C 16,6 C 11,3 km/h (2 Bft) 100,00 %
02.07.2016 22:06 17,1 C 94 % 1016,1 hPa 0,0 l/m 6,3 km/h (2 Bft) W-SW 242 0 min 0,000 mm 0,0 UV-I 0 W/m 16,1 C 17,1 C 11,3 km/h (2 Bft) 100,00 %
02.07.2016 22:08 17,1 C 94 % 1016,1 hPa 0,2 l/m 5,8 km/h (2 Bft) W-SW 244 0 min 0,000 mm 0,0 UV-I 0 W/m 16,1 C 17,1 C 8,0 km/h (2 Bft) 100,00 %
02.07.2016 22:10 17,2 C 94 % 1016,2 hPa 0,0 l/m 5,9 km/h (2 Bft) W-SW 257 0 min 0,000 mm 0,0 UV-I 0 W/m 16,2 C 17,2 C 11,3 km/h (2 Bft) 100,00 %
02.07.2016 22:12 17,2 C 94 % 1016,1 hPa 0,0 l/m 6,0 km/h (2 Bft) SW 229 0 min 0,000 mm 0,0 UV-I 0 W/m 16,2 C 17,2 C 12,9 km/h (3 Bft) 97,87 %
02.07.2016 22:14 17,2 C 94 % 1016,2 hPa 0,0 l/m 4,7 km/h (1 Bft) SW 220 0 min 0,000 mm 0,0 UV-I 0 W/m 16,2 C 17,2 C 6,4 km/h (2 Bft) 97,87 %
02.07.2016 22:16 17,1 C 94 % 1016,2 hPa 0,0 l/m 4,1 km/h (1 Bft) W-SW 244 0 min 0,000 mm 0,0 UV-I 0 W/m 16,1 C 17,1 C 6,4 km/h (2 Bft) 100,00 %
02.07.2016 22:18 17,1 C 94 % 1016,3 hPa 0,0 l/m 5,9 km/h (2 Bft) W 265 0 min 0,000 mm 0,0 UV-I 0 W/m 16,1 C 17,1 C 11,3 km/h (2 Bft) 97,87 %
02.07.2016 22:20 17,1 C 94 % 1016,3 hPa 0,2 l/m 5,9 km/h (2 Bft) W-SW 253 0 min 0,000 mm 0,0 UV-I 0 W/m 16,1 C 17,1 C 9,7 km/h (2 Bft) 97,87 %
02.07.2016 22:22 17,1 C 94 % 1016,4 hPa 0,2 l/m 6,7 km/h (2 Bft) W-SW 251 0 min 0,000 mm 0,0 UV-I 0 W/m 16,1 C 17,0 C 14,5 km/h (3 Bft) 100,00 %
02.07.2016 22:24 17,1 C 94 % 1016,4 hPa 0,2 l/m 12,2 km/h (2 Bft) W 263 0 min 0,000 mm 0,0 UV-I 0 W/m 16,1 C 14,6 C 16,1 km/h (3 Bft) 100,00 %
02.07.2016 22:26 17,1 C 94 % 1016,4 hPa 0,2 l/m 10,8 km/h (2 Bft) W-NW 285 0 min 0,000 mm 0,0 UV-I 0 W/m 16,1 C 15,1 C 19,3 km/h (3 Bft) 100,00 %
02.07.2016 22:28 17,1 C 94 % 1016,5 hPa 0,0 l/m 10,0 km/h (2 Bft) W-NW 287 0 min 0,000 mm 0,0 UV-I 0 W/m 16,1 C 15,4 C 17,7 km/h (3 Bft) 96,00 %
02.07.2016 22:30 16,9 C 94 % 1016,5 hPa 0,0 l/m 13,5 km/h (3 Bft) NW 323 0 min 0,000 mm 0,0 UV-I 0 W/m 15,9 C 14,0 C 25,7 km/h (4 Bft) 97,87 %
02.07.2016 22:32 16,9 C 94 % 1016,6 hPa 0,2 l/m 13,4 km/h (3 Bft) W-NW 287 0 min 0,000 mm 0,0 UV-I 0 W/m 15,9 C 14,0 C 22,5 km/h (4 Bft) 100,00 %
02.07.2016 22:34 16,8 C 94 % 1016,6 hPa 0,0 l/m 11,9 km/h (2 Bft) W-SW 258 0 min 0,000 mm 0,0 UV-I 0 W/m 15,8 C 14,4 C 19,3 km/h (3 Bft) 100,00 %
02.07.2016 22:36 16,8 C 94 % 1016,7 hPa 0,0 l/m 12,8 km/h (3 Bft) W-SW 241 0 min 0,000 mm 0,0 UV-I 0 W/m 15,8 C 14,1 C 19,3 km/h (3 Bft) 97,87 %
02.07.2016 22:38 16,7 C 93 % 1016,7 hPa 0,0 l/m 10,0 km/h (2 Bft) W-NW 293 0 min 0,000 mm 0,0 UV-I 0 W/m 15,6 C 15,0 C 17,7 km/h (3 Bft) 100,00 %
02.07.2016 22:40 16,6 C 93 % 1016,7 hPa 0,0 l/m 13,9 km/h (3 Bft) S-SW 211 0 min 0,000 mm 0,0 UV-I 0 W/m 15,5 C 13,5 C 25,7 km/h (4 Bft) 100,00 %
02.07.2016 22:42 16,5 C 93 % 1016,7 hPa 0,0 l/m 11,2 km/h (2 Bft) W 269 0 min 0,000 mm 0,0 UV-I 0 W/m 15,4 C 14,3 C 17,7 km/h (3 Bft) 93,62 %
02.07.2016 22:44 16,4 C 92 % 1016,8 hPa 0,0 l/m 9,9 km/h (2 Bft) W-SW 240 0 min 0,000 mm 0,0 UV-I 0 W/m 15,1 C 14,7 C 19,3 km/h (3 Bft) 100,00 %
02.07.2016 22:46 16,3 C 92 % 1016,8 hPa 0,0 l/m 10,1 km/h (2 Bft) W-NW 303 0 min 0,000 mm 0,0 UV-I 0 W/m 15,0 C 14,5 C 17,7 km/h (3 Bft) 95,74 %
02.07.2016 22:48 16,2 C 92 % 1016,7 hPa 0,0 l/m 8,5 km/h (2 Bft) W-SW 248 0 min 0,000 mm 0,0 UV-I 0 W/m 14,9 C 15,1 C 14,5 km/h (3 Bft) 97,87 %
02.07.2016 22:50 16,1 C 93 % 1016,8 hPa 0,0 l/m 10,3 km/h (2 Bft) W-NW 284 0 min 0,000 mm 0,0 UV-I 0 W/m 15,0 C 14,2 C 22,5 km/h (4 Bft) 97,87 %
02.07.2016 22:52 16,1 C 92 % 1016,8 hPa 0,0 l/m 12,7 km/h (3 Bft) W-SW 253 0 min 0,000 mm 0,0 UV-I 0 W/m 14,8 C 13,3 C 25,7 km/h (4 Bft) 100,00 %
02.07.2016 22:54 15,9 C 92 % 1016,8 hPa 0,0 l/m 12,0 km/h (2 Bft) SW 228 0 min 0,000 mm 0,0 UV-I 0 W/m 14,6 C 13,3 C 17,7 km/h (3 Bft) 100,00 %
02.07.2016 22:56 15,9 C 92 % 1016,8 hPa 0,0 l/m 9,5 km/h (2 Bft) W-SW 244 0 min 0,000 mm 0,0 UV-I 0 W/m 14,6 C 14,3 C 16,1 km/h (3 Bft) 100,00 %
02.07.2016 22:58 15,8 C 92 % 1016,9 hPa 0,0 l/m 11,0 km/h (2 Bft) W 266 0 min 0,000 mm 0,0 UV-I 0 W/m 14,5 C 13,6 C 17,7 km/h (3 Bft) 96,00 %
02.07.2016 23:00 15,8 C 93 % 1016,9 hPa 0,0 l/m 10,4 km/h (2 Bft) W-SW 252 0 min 0,000 mm 0,0 UV-I 0 W/m 14,7 C 13,8 C 14,5 km/h (3 Bft) 100,00 %
02.07.2016 23:02 15,8 C 93 % 1016,8 hPa 0,0 l/m 11,1 km/h (2 Bft) W-SW 257 0 min 0,000 mm 0,0 UV-I 0 W/m 14,7 C 13,5 C 16,1 km/h (3 Bft) 100,00 %
02.07.2016 23:04 15,7 C 93 % 1016,9 hPa 0,0 l/m 11,6 km/h (2 Bft) SW 218 0 min 0,000 mm 0,0 UV-I 0 W/m 14,6 C 13,2 C 16,1 km/h (3 Bft) 97,87 %
02.07.2016 23:06 15,7 C 93 % 1016,9 hPa 0,0 l/m 12,8 km/h (3 Bft) W-SW 248 0 min 0,000 mm 0,0 UV-I 0 W/m 14,6 C 12,8 C 20,9 km/h (4 Bft) 100,00 %
02.07.2016 23:08 15,7 C 93 % 1016,9 hPa 0,0 l/m 12,5 km/h (3 Bft) W-SW 242 0 min 0,000 mm 0,0 UV-I 0 W/m 14,6 C 12,9 C 19,3 km/h (3 Bft) 100,00 %
02.07.2016 23:10 15,6 C 93 % 1017,0 hPa 0,0 l/m 15,1 km/h (3 Bft) W-SW 255 0 min 0,000 mm 0,0 UV-I 0 W/m 14,5 C 11,9 C 22,5 km/h (4 Bft) 100,00 %
02.07.2016 23:12 15,6 C 93 % 1017,0 hPa 0,0 l/m 15,8 km/h (3 Bft) W-SW 252 0 min 0,000 mm 0,0 UV-I 0 W/m 14,5 C 11,7 C 20,9 km/h (4 Bft) 100,00 %
02.07.2016 23:14 15,6 C 93 % 1017,1 hPa 0,0 l/m 11,7 km/h (2 Bft) W-SW 248 0 min 0,000 mm 0,0 UV-I 0 W/m 14,5 C 13,1 C 17,7 km/h (3 Bft) 97,44 %
02.07.2016 23:16 15,6 C 92 % 1017,1 hPa 0,0 l/m 12,9 km/h (3 Bft) W-SW 257 0 min 0,000 mm 0,0 UV-I 0 W/m 14,3 C 12,6 C 20,9 km/h (4 Bft) 95,92 %
02.07.2016 23:18 15,5 C 92 % 1017,1 hPa 0,0 l/m 12,6 km/h (3 Bft) W 259 0 min 0,000 mm 0,0 UV-I 0 W/m 14,2 C 12,6 C 17,7 km/h (3 Bft) 98,00 %
02.07.2016 23:20 15,4 C 93 % 1017,2 hPa 0,0 l/m 11,6 km/h (2 Bft) W-SW 256 0 min 0,000 mm 0,0 UV-I 0 W/m 14,3 C 12,9 C 16,1 km/h (3 Bft) 95,74 %
02.07.2016 23:22 15,4 C 93 % 1017,3 hPa 0,0 l/m 10,9 km/h (2 Bft) W-SW 248 0 min 0,000 mm 0,0 UV-I 0 W/m 14,3 C 13,2 C 17,7 km/h (3 Bft) 97,87 %
02.07.2016 23:24 15,3 C 92 % 1017,3 hPa 0,0 l/m 14,7 km/h (3 Bft) W-SW 252 0 min 0,000 mm 0,0 UV-I 0 W/m 14,0 C 11,7 C 20,9 km/h (4 Bft) 97,87 %
02.07.2016 23:26 15,3 C 92 % 1017,4 hPa 0,0 l/m 13,9 km/h (3 Bft) W 259 0 min 0,000 mm 0,0 UV-I 0 W/m 14,0 C 11,9 C 19,3 km/h (3 Bft) 95,74 %
02.07.2016 23:28 15,2 C 92 % 1017,4 hPa 0,0 l/m 13,4 km/h (3 Bft) W-SW 250 0 min 0,000 mm 0,0 UV-I 0 W/m 13,9 C 12,0 C 19,3 km/h (3 Bft) 97,87 %
02.07.2016 23:30 15,2 C 93 % 1017,5 hPa 0,0 l/m 14,5 km/h (3 Bft) W-SW 246 0 min 0,000 mm 0,0 UV-I 0 W/m 14,1 C 11,6 C 20,9 km/h (4 Bft) 95,74 %
02.07.2016 23:32 15,1 C 93 % 1017,5 hPa 0,0 l/m 14,5 km/h (3 Bft) W-SW 255 0 min 0,000 mm 0,0 UV-I 0 W/m 14,0 C 11,5 C 22,5 km/h (4 Bft) 98,00 %
02.07.2016 23:34 15,1 C 93 % 1017,6 hPa 0,2 l/m 13,8 km/h (3 Bft) W 262 0 min 0,000 mm 0,0 UV-I 0 W/m 14,0 C 11,7 C 20,9 km/h (4 Bft) 97,87 %
02.07.2016 23:36 15,1 C 93 % 1017,6 hPa 0,0 l/m 11,4 km/h (2 Bft) W-SW 245 0 min 0,000 mm 0,0 UV-I 0 W/m 14,0 C 12,6 C 16,1 km/h (3 Bft) 97,30 %
02.07.2016 23:38 15,1 C 93 % 1017,6 hPa 0,0 l/m 13,3 km/h (3 Bft) SW 221 0 min 0,000 mm 0,0 UV-I 0 W/m 14,0 C 11,9 C 19,3 km/h (3 Bft) 97,87 %
02.07.2016 23:40 15,0 C 93 % 1017,7 hPa 0,0 l/m 13,8 km/h (3 Bft) W-SW 239 0 min 0,000 mm 0,0 UV-I 0 W/m 13,9 C 11,6 C 19,3 km/h (3 Bft) 96,00 %
02.07.2016 23:42 15,0 C 93 % 1017,7 hPa 0,0 l/m 11,6 km/h (2 Bft) W-SW 247 0 min 0,000 mm 0,0 UV-I 0 W/m 13,9 C 12,4 C 16,1 km/h (3 Bft) 97,87 %
02.07.2016 23:44 15,0 C 93 % 1017,7 hPa 0,0 l/m 11,3 km/h (2 Bft) W 260 0 min 0,000 mm 0,0 UV-I 0 W/m 13,9 C 12,6 C 19,3 km/h (3 Bft) 95,74 %
02.07.2016 23:46 15,1 C 94 % 1017,7 hPa 0,0 l/m 10,7 km/h (2 Bft) W-SW 254 0 min 0,000 mm 0,0 UV-I 0 W/m 14,1 C 12,9 C 16,1 km/h (3 Bft) 97,87 %
02.07.2016 23:48 15,0 C 94 % 1017,7 hPa 0,0 l/m 10,0 km/h (2 Bft) SW 226 0 min 0,000 mm 0,0 UV-I 0 W/m 14,0 C 13,1 C 16,1 km/h (3 Bft) 95,74 %
02.07.2016 23:50 15,0 C 94 % 1017,7 hPa 0,0 l/m 10,8 km/h (2 Bft) SW 225 0 min 0,000 mm 0,0 UV-I 0 W/m 14,0 C 12,8 C 17,7 km/h (3 Bft) 100,00 %
02.07.2016 23:52 15,0 C 94 % 1017,7 hPa 0,0 l/m 14,8 km/h (3 Bft) W-SW 244 0 min 0,000 mm 0,0 UV-I 0 W/m 14,0 C 11,3 C 22,5 km/h (4 Bft) 97,92 %
02.07.2016 23:54 15,0 C 94 % 1017,8 hPa 0,0 l/m 11,9 km/h (2 Bft) W 267 0 min 0,000 mm 0,0 UV-I 0 W/m 14,0 C 12,3 C 17,7 km/h (3 Bft) 100,00 %
02.07.2016 23:56 15,0 C 93 % 1017,9 hPa 0,0 l/m 13,9 km/h (3 Bft) W 263 0 min 0,000 mm 0,0 UV-I 0 W/m 13,9 C 11,6 C 22,5 km/h (4 Bft) 98,00 %
02.07.2016 23:58 15,0 C 93 % 1017,8 hPa 0,0 l/m 11,0 km/h (2 Bft) W-SW 244 0 min 0,000 mm 0,0 UV-I 0 W/m 13,9 C 12,7 C 17,7 km/h (3 Bft) 100,00 %
_ Min-Zeit 23:40 15:06 14:42 - 00:38 - - - - - - 23:40 23:52 00:38 17:23
Minimum _ 15,0 C 52 % 1010,2 hPa - 0,0 km/h (0 Bft) - - - - - - 13,9 C 11,3 C 0,0 km/h (0 Bft) 84,62 %
_ Max-Zeit 15:10 21:58 23:56 18:18 23:12 - - 05:22 14:00 13:12 11:36 12:30 15:12 18:24 00:20
Maximum _ 27,5 C 95 % 1017,9 hPa 0,2 l/m 15,8 km/h
W-SW (3 Bft)
- - 2 min 0,609 mm 7,1 UV-I 1066 W/m 20,8 C 27,5 C 30,6 km/h
W (5 Bft)
100,00 %
Durchschnitt _ 21,1 C 79 % 1012,8 hPa #6,6 l/m 4,8 km/h (1 Bft) W-SW - #6:26 h #3,861 mm 3,8 UV-I 355 W/m 17,1 C 20,7 C 8,9 km/h (2 Bft) 98,27 %